     2              OBSERVATION DATA    GPS                 RINEX VERSION / TYPE
ASHTORIN MIT 05 - NOV - 96 18:25                            PGM / RUN BY / DATE
                                                            COMMENT
CHINA LAKE 1996 EXPT#2 P-Code Ashtech                       COMMENT
Original Marker Name: GS16                                  COMMENT
Campaign Name: China Lake Nov 1996                          COMMENT
4-Character Station Name: GS16                              COMMENT
6-Character Antenna Code: ASHP12                            COMMENT
Vertical Measurement Point: TGP                             COMMENT
Vertical Offset to Rinex Ref. Point: 0.0640                 COMMENT
Radial Measurement Point: RRP                               COMMENT
Radial Offset to Rinex Ref. Point: 0.0000                   COMMENT
Antenna Height from Field Measurement: 0.2130 m             COMMENT
Additional Antenna Identification Info.:                    COMMENT
Ashtech L1/L2 Revision B (700228DE)                         COMMENT
Original XYZ: -2428152.4000 -4572505.9100 3715143.6800      COMMENT
New XYZ position is based on association with SCEC monument COMMENT
E1F4B2D0+0011. Position of that monument is believed to be  COMMENT
valid to within 1 m horizontally; vertical accuracy         COMMENT
should be no worse than 3-times this value.                 COMMENT
                                                            COMMENT
Revised Rinex header created by UCSD GPS archive for        COMMENT
GSAC on 01-Aug-2000 (2000:214) 02:05:21 GMT                 COMMENT
For assistance contact dagnew@ucsd.edu                      COMMENT
or anderson@python.ucsd.edu                                 COMMENT
                                                            COMMENT
BLM CA 065-94-66 GO16                                       MARKER NAME
                                                            MARKER NUMBER
HEM US DEFENSE MAPPING AGENCY                               OBSERVER / AGENCY
940 ASHTECH Z-XII3 1E861D0                                  REC # / TYPE / VERS
351 ASHTECH GEODETIC P                                      ANT # / TYPE
 -2418317.9371 -4604949.2537  3681198.3925                  APPROX POSITION XYZ
        0.1490        0.0000        0.0000                  ANTENNA: DELTA H/E/N
     1     1     0                                          WAVELENGTH FACT L1/2
     7    L1    L2    C1    P1    P2    D1    D2            # / TYPES OF OBSERV
    30                                                      INTERVAL
  1996    10    31    16    23   30.000000                  TIME OF FIRST OBS
  1996    10    31    22    29   60.000000                  TIME OF LAST OBS
                                                            END OF HEADER
 96 10 31 16 23 30.0000000  0  9 17 28  3 26 23 21  1  9 31         -0.000706321
     81452.682 9     55712.72348  18512209.106    18512208.5525   18512214.2654
     -1606.538       -1251.848
     90828.761 9     60180.74349  18145887.226    18145887.1675   18145891.8724
     -1741.115       -1356.713
    -69791.208 9    -47866.45148  18862806.763    18862807.1325   18862812.1464
      1221.076         951.488
    182149.190 9    121756.41255  22333469.821           0.0004   22333474.3095
     -3515.304       -2739.198
     61055.363 9     29505.34258  18334368.716    18334367.9885   18334373.1815
     -1164.833        -907.662
    -46002.562 9    -30664.43048  18317972.890    18317972.7755   18317978.3604
       897.460         699.319
   -156271.343 9   -106077.35048  19481448.587    19481448.2225   19481453.9434
      3080.063        2400.049
    -68088.500 9    -48326.24356  21337960.655           0.0005   21337966.2005
      1405.882        1095.492
   -147320.399 8   -101888.22156  21667504.521           0.0004          0.0005
      2959.297        2305.946
 96 10 31 16 24  0.0000000  0  9 17 28  3 26 23 21  1  9 31          0.000906069
    129587.378 9     93220.26848  21519293.772    21519292.8464   21519298.5564
     -1604.422       -1250.199
    143113.429 9    100922.029 9  21153761.391    21153761.249    21153765.924
     -1746.657       -1361.031
   -106331.928 9    -76339.74148  21853777.657    21853778.2494   21853783.2844
      1214.707         946.525
    287431.104 9    203794.29846  25351428.813    25351428.2525   25351434.2064
     -3506.775       -2732.552
     95872.452 9     56635.54348  21338918.885    21338918.2624   21338923.2144
     -1158.049        -902.376
    -73000.590 9    -51701.84548  21310760.081    21310759.7974   21310765.3704
       902.056         702.901
   -248682.946 9   -178086.36048  22461788.004    22461787.5394   22461793.1984
      3081.943        2401.514
   -110258.310 9    -81185.83046  24327860.798    24327860.5205   24327865.3564
      1405.348        1095.076
   -236132.631 9   -171092.58256  24648529.576    24648528.9375   24648534.6435
      2962.369        2308.339
 96 10 31 16 24 30.0000000  0  9 17 28  3 26 23 21  1  9 31          0.000906496
    177781.778 9    130774.33248  21528464.425    21528463.9234   21528469.6294
     -1609.600       -1254.234
    195690.338 9    141891.032 9  21163766.469    21163766.291    21163770.999
     -1759.546       -1371.075
   -142586.136 9   -104589.77348  21846879.867    21846879.3164   21846884.3814
      1201.223         936.018
    392599.910 8    285743.96246  25371443.796    25371442.3854   25371447.6014
     -3505.545       -2731.593
    130614.964 9     83707.62548  21345530.201    21345529.5544   21345534.4974
     -1159.233        -903.298
   -100031.878 9    -72765.18148  21305616.617    21305615.9904   21305621.5034
       898.838         700.393
   -341076.956 9   -250081.66148  22444206.001    22444205.5684   22444211.2044
      3076.596        2397.348
   -152319.307 9   -113960.59146  24319854.554    24319855.7424   24319861.5954
      1397.730        1089.140
   -324947.280 9   -240298.79346  24631627.188    24631628.4634   24631633.0534
      2957.375        2304.448
 96 10 31 16 25  0.0000000  0  9 17 28  3 26 23 21  1  9 31          0.000906853
    226170.270 9    168479.63348  21537672.704    21537671.9854   21537677.6614
     -1617.423       -1260.330
    248697.616 9    183195.385 9  21173853.382    21173853.247    21173857.973
     -1775.271       -1383.328
   -178392.877 9   -132491.13048  21840065.907    21840065.5594   21840070.6494
      1184.796         923.218
    497779.498 8    367701.93146  25391457.558    25391456.9714   25391462.9334
     -3507.325       -2732.981
    165438.609 9    110842.92548  21352156.967    21352156.2664   21352161.2584
     -1163.400        -906.545
   -126908.216 9    -93707.77448  21300502.163    21300501.6144   21300507.1364
       892.025         695.084
   -433264.879 9   -321916.37948  22426663.303    22426662.7834   22426668.4244
      3068.424        2390.980
   -194107.543 9   -146522.84546  24311903.639    24311903.9344   24311909.6484
      1387.184        1080.923
   -413568.452 9   -309354.24046  24614764.053    24614764.3894   24614769.1114
      2949.595        2298.386
 96 10 31 16 25 30.0000000  0  9 17 28  3 26 23 21  1  9 31          0.000907189
    274843.428 9    206406.74748  21546934.890    21546934.1974   21546939.8744
     -1627.721       -1268.354
    302216.702 9    224898.553 9  21184037.714    21184037.604    21184042.353
     -1792.949       -1397.103
   -213655.674 9   -159968.63948  21833355.626    21833355.3034   21833360.4284
      1165.765         908.388
    603062.657 8    449740.78145  25411491.986    25411491.7464   25411497.5204
     -3511.771       -2736.445
    200426.578 9    138106.27348  21358814.935    21358814.2934   21358819.2984
     -1169.441        -911.253
   -153551.508 9   -114468.77748  21295432.092    21295431.5954   21295437.1224
       883.780         688.660
   -525171.066 9   -393531.56848  22409174.099    22409173.6354   22409179.2634
      3058.236        2383.041
   -235540.362 9   -178808.13346  24304019.500    24304019.5024   24304025.4004
      1374.778        1071.255
   -501901.789 9   -378185.41246  24597955.159    24597955.1304   24597960.0184
      2939.040        2290.161
 96 10 31 16 26  0.0000000  0  9 17 28  3 26 23 21  1  9 31          0.000907510
    323806.944 9    244560.11148  21556252.263    21556251.6744   21556257.3604
     -1636.395       -1275.113
    356252.382 9    267004.261 9  21194320.452    21194320.282    21194325.048
     -1809.272       -1409.822
   -248354.731 9   -187006.87548  21826752.617    21826752.3344   21826757.5144
      1147.572         894.212
    708458.206 8    531867.09546  25431548.019    25431547.8554   25431553.6394
     -3514.318       -2738.430
    235585.233 9    165502.61448  21365505.425    21365504.7844   21365509.7834
     -1174.328        -915.061
   -179951.883 9   -135040.49448  21290408.271    21290407.8014   21290413.3454
       876.393         682.904
   -616787.255 9   -464920.78548  22391740.089    22391739.6644   22391745.2584
      3049.798        2376.466
   -276612.936 9   -210812.69646  24296203.674    24296203.4944   24296209.4914
      1363.724        1062.642
   -589935.961 9   -446783.48146  24581202.848    24581202.6034   24581207.7084
      2930.040        2283.148
 96 10 31 16 26 30.0000000  0  9 17 28  3 26 23 21  1  9 31          0.000907775
    373020.807 9    282908.55948  21565617.423    21565616.8214   21565622.4754
     -1644.483       -1281.415
    410759.682 9    309477.461 9  21204692.892    21204692.715    21204697.477
     -1824.432       -1421.635
   -282526.145 9   -213633.95748  21820250.061    21820249.7994   21820254.9784
      1130.613         880.997
    813906.132 8    614034.19946  25451614.052    25451613.9604   25451619.7744
     -3515.333       -2739.221
    270877.599 9    193003.15648  21372221.271    21372220.6994   21372225.7124
     -1178.322        -918.173
   -206152.522 9   -155456.57348  21285422.485    21285422.0224   21285427.5774
       870.516         678.324
   -708167.417 9   -536126.08348  22374351.003    22374350.5924   22374356.1734
      3042.142        2370.500
   -317382.943 9   -242581.53746  24288445.331    24288445.2714   24288451.0424
      1354.334        1055.325
   -677718.296 9   -515185.29046  24564498.346    24564498.0334   24564503.3364
      2922.140        2276.992
 96 10 31 16 27  0.0000000  0  9 17 28  3 26 23 21  1  9 31          0.000907955
    422445.320 9    321421.14048  21575022.641    21575022.0284   21575027.6784
     -1650.457       -1286.070
    465681.802 9    352273.898 9  21215144.236    21215144.073    21215148.838
     -1836.946       -1431.386
   -316221.251 9   -239889.89448  21813838.105    21813837.8954   21813843.0784
      1115.695         869.373
    919342.205 8    696192.10946  25471677.867    25471677.8264   25471683.7194
     -3513.635       -2737.897
    306238.965 9    220557.46248  21378950.322    21378949.7644   21378954.7564
     -1179.065        -918.752
   -232225.530 9   -175773.20848  21280460.927    21280460.5094   21280466.0664
       867.839         676.238
   -799354.024 9   -607180.56348  22356998.707    22356998.3534   22357003.9184
      3036.994        2366.489
   -357903.718 9   -274156.15346  24280734.342    24280734.3334   24280740.2114
      1347.042        1049.643
   -765306.108 9   -583435.50746  24547830.917    24547830.6404   24547835.9644
      2917.018        2273.001
 96 10 31 16 27 30.0000000  0  9 17 28  3 26 23 21  1  9 31          0.000908032
    472044.678 9    360069.96748  21584461.114    21584460.5164   21584466.1674
     -1655.424       -1289.941
    520968.889 9    395354.722 9  21225665.070    21225664.879    21225669.655
     -1848.095       -1440.074
   -349477.278 9   -265803.68948  21807509.679    21807509.4634   21807514.6484
      1102.335         858.962
   1024719.181 8    778303.99846  25491730.407    25491730.5174   25491736.2454
     -3510.745       -2735.645
    341618.342 9    248125.80248  21385682.843    21385682.2644   21385687.2594
     -1178.807        -918.551
   -258239.071 9   -196043.49248  21275510.694    21275510.3064   21275515.8394
       867.027         675.605
   -890387.824 9   -678115.98048  22339675.568    22339675.2004   22339680.7644
      3032.550        2363.026
   -398214.319 9   -305567.03946  24273063.648    24273063.5664   24273069.3004
      1340.888        1044.848
   -852748.066 9   -651572.10546  24531191.321    24531191.0984   24531196.3954
      2913.188        2270.017
 96 10 31 16 28  0.0000000  0  9 17 28  3 26 23 21  1  9 31          0.000907970
    521779.861 9    398824.63948  21593925.441    21593924.8654   21593930.4984
     -1659.671       -1293.250
    576570.461 9    438680.599 9  21236245.733    21236245.519    21236250.309
     -1858.017       -1447.805
   -382361.284 9   -291427.59948  21801251.990    21801251.8254   21801257.0344
      1090.503         849.743
   1129992.600 9    860335.13245  25511763.337    25511763.5324   25511769.2484
     -3506.791       -2732.564
    376974.229 9    275675.83948  21392410.879    21392410.2934   21392415.3014
     -1177.557        -917.577
   -284237.013 9   -216301.63048  21270563.449    21270563.0694   21270568.6224
       866.811         675.437
   -981302.557 9   -748958.62048  22322375.039    22322374.7014   22322380.2774
      3029.145        2360.373
   -438346.131 9   -336838.56146  24265426.718    24265426.6474   24265432.6904
      1335.261        1040.463
   -940099.365 9   -719638.06446  24514569.030    24514568.7384   24514574.0464
      2910.753        2268.119
 96 10 31 16 28 30.0000000  0  9 17 28  3 26 23 21  1  9 31          0.000907751
    571629.973 9    437668.85748  21603411.641    21603411.0364   21603416.6894
     -1662.864       -1295.738
    632445.120 9    482219.273 9  21246878.351    21246878.144    21246882.934
     -1866.283       -1454.246
   -414919.237 9   -316797.43848  21795056.407    21795056.2694   21795061.4774
      1080.757         842.148
   1235131.687 9    942261.68646  25531770.842    25531771.0064   25531776.5494
     -3501.817       -2728.689
    412266.748 9    303176.49648  21399126.794    21399126.2494   21399131.2454
     -1174.459        -915.163
   -310252.670 9   -236573.57348  21265612.862    21265612.4664   21265618.0504
       868.268         676.572
  -1072131.178 9   -819734.15448  22305090.907    22305090.5884   22305096.1404
      3026.805        2358.549
   -478325.442 9   -367991.31146  24257819.140    24257818.9964   24257824.8184
      1330.712        1036.918
  -1027389.570 9   -787656.39346  24497958.423    24497958.1084   24497963.3164
      2909.134        2266.858
 96 10 31 16 29  0.0000000  0  9 17 28  3 26 23 21  1  9 31          0.000907370
    621569.679 9    476582.89648  21612914.885    21612914.2764   21612919.9634
     -1665.727       -1297.969
    688568.371 9    525951.655 9  21257558.312    21257558.094    21257562.846
     -1874.757       -1460.850
   -447181.606 9   -341936.95448  21788917.159    21788917.0074   21788922.1774
      1070.534         834.182
   1340137.364 8   1024084.15745  25551752.864    25551753.0544   25551758.5974
     -3498.020       -2725.730
    447458.900 9    330598.94748  21405823.632    21405823.1004   21405828.0854
     -1171.362        -912.750
   -336306.795 9   -256875.48648  21260654.901    21260654.5384   21260660.1514
       868.991         677.136
  -1162892.950 9   -890457.60348  22287819.604    22287819.2264   22287824.7704
      3024.442        2356.708
   -518159.637 9   -399030.90346  24250238.559    24250238.5404   24250244.4674
      1325.558        1032.902
  -1114622.544 9   -855630.15546  24481358.691    24481358.3234   24481363.3804
      2906.954        2265.159
 96 10 31 16 29 30.0000000  0  9 17 28  3 26 23 21  1  9 31          0.000906807
    671554.519 9    515532.09948  21622426.753    21622426.1294   21622431.8014
     -1666.617       -1298.663
    744918.005 9    569860.440 9  21268281.350    21268281.117    21268285.853
     -1881.918       -1466.430
   -479167.795 9   -366861.26648  21782830.432    21782830.2834   21782835.4744
      1061.913         827.465
   1445007.856 8   1105801.37345  25571708.994    25571709.0094   25571714.7094
     -3493.213       -2721.984
    482537.672 9    357933.05048  21412498.968    21412498.3974   21412503.3614
     -1167.134        -909.455
   -362401.183 9   -277208.77548  21255689.328    21255688.9634   21255694.5664
       870.571         678.367
  -1253605.471 9   -961142.67248  22270557.602    22270557.2384   22270562.7204
      3023.110        2355.670
   -557875.474 9   -429978.31747  24242681.513    24242681.3294   24242687.0304
      1322.181        1030.271
  -1201813.799 9   -923571.37146  24464766.784    24464766.4134   24464771.4614
      2905.657        2264.148
 96 10 31 16 30  0.0000000  0  9 17 28  3 26 23 21  1  9 31          0.000906047
    721555.718 9    554494.05648  21631941.667    21631941.0694   21631946.7534
     -1666.358       -1298.461
    801478.140 9    613933.250 9  21279044.413    21279044.197    21279048.911
     -1888.457       -1471.525
   -510892.631 9   -391581.92248  21776793.425    21776793.2874   21776798.4934
      1053.275         820.734
   1549722.717 9   1187397.30345  25591635.813    25591635.6244   25591641.2974
     -3487.245       -2717.334
    517475.305 9    385157.17848  21419147.376    21419146.8344   21419151.8204
     -1161.772        -905.277
   -388543.312 9   -297579.26848  21250714.617    21250714.2534   21250719.8924
       872.684         680.014
  -1344293.916 9  -1031808.99048  22253300.178    22253299.8244   22253305.2974
      3023.085        2355.651
   -597495.764 9   -460851.25746  24235141.975    24235141.7834   24235147.5464
      1319.672        1028.316
  -1288967.140 9   -991483.07846  24448182.038    24448181.7034   24448186.7744
      2904.831        2263.505
 96 10 31 16 30 30.0000000  0  9 17 28  3 26 23 21  1  9 31          0.000905081
    771543.241 9    593445.35548  21641454.039    21641453.4384   21641459.0904
     -1665.439       -1297.745
    858239.843 9    658163.129 9  21289845.832    21289845.630    21289850.334
     -1894.922       -1476.562
   -542352.213 9   -416095.88848  21770806.908    21770806.7484   21770811.9624
      1044.704         814.055
   1654256.107 8   1268851.91046  25611528.023    25611527.9484   25611533.3994
     -3480.910       -2712.397
    552260.420 9    412262.45548  21425766.799    21425766.2444   21425771.2254
     -1156.582        -901.233
   -414757.503 9   -318005.90748  21245726.180    21245725.8654   21245731.5214
       875.680         682.348
  -1434977.678 9  -1102471.66148  22236043.598    22236043.2724   22236048.7744
      3023.271        2355.796
   -637050.542 9   -491673.16646  24227615.027    24227614.7674   24227620.3714
      1317.892        1026.929
  -1376083.777 9  -1059366.16846  24431604.212    24431603.9384   24431609.1134
      2903.607        2262.551
 96 10 31 16 31  0.0000000  0  9 17 28  3 26 23 21  1  9 31          0.000903904
    821514.664 9    632384.11148  21650963.348    21650962.7394   21650968.3564
     -1665.896       -1298.101
    915202.358 9    702549.485 9  21300685.455    21300685.261    21300689.986
     -1902.399       -1482.389
   -573541.354 9   -440399.12548  21764871.862    21764871.7024   21764876.8754
      1034.639         806.212
   1758602.295 8   1350160.48145  25631384.413    25631384.3054   25631390.0324
     -3475.178       -2707.931
    586902.580 9    439256.34448  21432359.047    21432358.4924   21432363.4424
     -1152.770        -898.262
   -441055.647 9   -338497.96648  21240721.878    21240721.5414   21240727.1494
       877.636         683.872
  -1525663.392 9  -1173135.85348  22218786.653    22218786.3454   22218791.8474
      3022.511        2355.203
   -676545.503 9   -522448.40346  24220099.459    24220099.1944   24220104.8024
      1315.103        1024.755
  -1463160.291 9  -1127217.98546  24415034.044    24415033.6914   24415038.9434
      2901.675        2261.045
 96 10 31 16 31 30.0000000  0  9 17 28  3 26 23 21  1  9 31          0.000902511
    871476.569 9    671315.44848  21660470.763    21660470.1524   21660475.8194
     -1665.713       -1297.958
    972355.147 9    747084.107 9  21311561.260    21311561.077    21311565.849
     -1908.373       -1487.044
   -604458.476 9   -464490.39648  21758988.550    21758988.3904   21758993.5774
      1025.949         799.441
   1862728.072 8   1431297.43845  25651198.931    25651198.9814   25651204.5434
     -3467.181       -2701.699
    621402.355 9    466139.27648  21438924.185    21438923.6274   21438928.5764
     -1147.573        -894.213
   -467450.026 9   -359065.01448  21235699.239    21235698.8774   21235704.4974
       881.479         686.867
  -1616356.983 9  -1243806.18148  22201528.283    22201527.9574   22201533.4594
      3023.217        2355.754
   -715983.241 9   -553179.11547  24212594.959    24212594.6574   24212600.0974
      1313.359        1023.397
  -1550212.066 9  -1195050.53346  24398468.519    24398468.1924   24398473.6384
      2901.094        2260.593
 96 10 31 16 32  0.0000000  0  9 17 28  3 26 23 21  1  9 31          0.000900909
    921458.600 9    710262.46648  21669982.008    21669981.4274   21669987.1204
     -1666.267       -1298.390
   1029699.571 9    791768.051 9  21322473.537    21322473.370    21322478.175
     -1914.377       -1491.722
   -635097.643 9   -488365.08148  21753158.110    21753157.9484   21753163.1444
      1016.868         792.365
   1966622.408 9   1512253.91546  25670969.522    25670969.4494   25670974.9914
     -3458.836       -2695.197
    655755.152 9    492907.68348  21445461.336    21445460.7794   21445465.7184
     -1142.394        -890.177
   -493949.344 9   -379713.82948  21230656.647    21230656.2174   21230661.8694
       885.381         689.907
  -1707061.648 9  -1314485.14048  22184267.768    22184267.4634   22184272.9704
      3023.730        2356.153
   -755348.059 9   -583852.95647  24205104.132    24205103.8544   24205109.5484
      1311.114        1021.647
  -1637236.364 9  -1262861.68446  24381908.452    24381908.0774   24381913.5024
      2900.633        2260.234
 96 10 31 16 32 30.0000000  0  9 17 28  3 26 23 21  1  9 31          0.000899107
    971483.655 9    749243.02248  21679501.535    21679500.9554   21679506.5974
     -1668.849       -1300.402
   1087239.013 9    836603.961 9  21333422.985    21333422.795    21333427.607
     -1921.621       -1497.367
   -665458.008 9   -512022.52248  21747380.755    21747380.5854   21747385.7964
      1007.118         784.767
   2070280.574 9   1593026.53946  25690695.109    25690694.9844   25690700.4754
     -3451.790       -2689.706
    689969.502 9    519568.21048  21451972.139    21451971.5884   21451976.5164
     -1138.578        -887.204
   -520548.862 9   -400440.72748  21225594.923    21225594.5334   21225600.1684
       887.684         691.702
  -1797752.229 9  -1385153.12648  22167009.926    22167009.6404   22167015.1424
      3022.375        2355.097
   -794622.975 9   -614456.74546  24197630.291    24197629.9474   24197635.5934
      1307.041        1018.474
  -1724229.989 9  -1330648.92446  24365354.190    24365353.7724   24365359.1954
      2898.797        2258.803
 96 10 31 16 33  0.0000000  0  8 17 28  3 23 21  1  9 31             0.000897108
   1021574.524 9    788274.85048  21689033.545    21689032.9434   21689038.5854
     -1670.565       -1301.739
   1144976.555 9    881594.233 9  21344410.133    21344409.922    21344414.759
     -1927.757       -1502.148
   -695545.422 9   -535467.26948  21741655.328    21741655.2014   21741660.3854
       998.487         778.042
    724043.965 9    546119.73448  21458456.349    21458455.7864   21458460.7014
     -1133.189        -883.004
   -547224.763 9   -421227.14048  21220518.644    21220518.2774   21220523.8874
       890.523         693.914
  -1888414.950 9  -1455799.39748  22149757.416    22149757.1114   22149762.6144
      3021.430        2354.361
   -833781.634 9   -644969.97546  24190178.557    24190178.2344   24190183.7934
      1303.313        1015.569
  -1811191.333 9  -1398410.99546  24348806.045    24348805.5594   24348810.9954
      2898.324        2258.434
 96 10 31 16 33 30.0000000  0  8 17 28  3 23 21  1  9 31             0.000894929
   1071722.500 9    827351.18448  21698576.359    21698575.8344   21698581.5054
     -1672.499       -1303.246
   1202917.409 9    926742.932 9  21355435.933    21355435.741    21355440.591
     -1934.923       -1507.732
   -725351.235 9   -558692.58848  21735983.504    21735983.3624   21735988.5414
       988.637         770.366
    757973.184 9    572558.08448  21464912.888    21464912.3274   21464917.2324
     -1128.703        -879.509
   -573972.171 9   -442069.27648  21215428.748    21215428.4094   21215434.0074
       892.730         695.634
  -1979019.214 9  -1526400.11748  22132516.091    22132515.7544   22132521.2094
      3018.873        2352.369
   -872806.547 9   -675378.97046  24182752.484    24182752.1674   24182757.6064
      1298.542        1011.851
  -1898113.201 9  -1466142.31946  24332265.396    24332264.9474   24332270.1824
      2896.167        2256.754
 96 10 31 16 34  0.0000000  0  8 17 28  3 23 21  1  9 31             0.000892589
   1121922.773 9    866468.26548  21708129.243    21708128.6774   21708134.3484
     -1673.536       -1304.054
   1261076.136 9    972061.397 9  21366503.211    21366503.003    21366507.862
     -1941.755       -1513.056
   -754861.154 9   -581687.34348  21730368.003    21730367.8664   21730373.0404
       979.227         763.034
    791769.450 9    598892.83148  21471344.095    21471343.5634   21471348.4864
     -1124.011        -875.853
   -600783.618 9   -462961.31548  21210326.795    21210326.4124   21210331.9874
       895.309         697.643
  -2069535.734 9  -1596932.47248  22115291.395    22115291.0734   22115296.4724
      3015.996        2350.127
   -911685.665 9   -705674.33646  24175353.951    24175353.6034   24175359.2704
      1293.907        1008.239
  -1984960.915 9  -1533815.84646  24315738.804    24315738.4134   24315743.6044
      2894.111        2255.151
 96 10 31 16 34 30.0000000  0  8 17 28  3 23 21  1  9 31             0.000890100
   1172174.400 9    905625.36548  21717691.879    21717691.3084   21717696.9484
     -1676.146       -1306.088
   1319465.708 9   1017559.745 9  21377614.391    21377614.181    21377619.071
     -1950.464       -1519.842
   -784065.833 9   -604444.24348  21724810.568    21724810.4334   21724815.5844
       968.032         754.311
    825456.066 9    625142.13848  21477754.471    21477753.9234   21477758.8464
     -1121.454        -873.860
   -627644.392 9   -483891.78748  21205215.398    21205215.0224   21205220.5674
       895.788         698.017
  -2159935.413 9  -1667373.77248  22098088.945    22098088.6454   22098093.9624
      3011.257        2346.434
   -950393.027 9   -735835.86747  24167988.083    24167987.8574   24167993.7214
      1287.001        1002.858
  -2071713.170 9  -1601415.01346  24299230.465    24299230.0684   24299235.3104
      2889.604        2251.639
 96 10 31 16 35  0.0000000  0  8 17 28  3 23 21  1  9 31             0.000887476
   1222486.191 9    944829.34248  21727265.913    21727265.3304   21727270.9604
     -1678.272       -1307.744
   1378100.207 9   1063248.942 9  21388772.191    21388771.990    21388776.875
     -1958.833       -1526.363
   -812935.772 9   -626940.31448  21719316.843    21719316.7034   21719321.8284
       956.157         745.057
    859051.346 9    651320.27548  21484147.490    21484146.9414   21484151.8484
     -1118.566        -871.610
   -654537.004 9   -504847.07348  21200097.958    21200097.5834   21200103.0784
       896.818         698.819
  -2250209.008 9  -1737716.82648  22080910.494    22080910.1794   22080915.4584
      3006.691        2342.876
   -988908.253 9   -765847.75546  24160658.785    24160658.6844   24160664.1444
      1280.330         997.660
  -2158340.395 9  -1668916.70546  24282745.763    24282745.3664   24282750.8254
      2885.052        2248.092
 96 10 31 16 35 30.0000000  0  8 17 28  3 23 21  1  9 31             0.000884729
   1272862.545 9    984083.62748  21736852.274    21736851.6824   21736857.3204
     -1679.954       -1309.055
   1436984.718 9   1109132.954 9  21399977.593    21399977.377    21399982.262
     -1966.317       -1532.195
   -841441.630 9   -649152.68048  21713892.393    21713892.2174   21713897.3554
       944.760         736.177
    892565.034 9    677434.83148  21490524.963    21490524.4134   21490529.3074
     -1115.223        -869.005
   -681459.485 9   -525825.63548  21194974.779    21194974.4064   21194979.9094
       898.319         699.989
  -2340354.623 9  -1807960.15448  22063756.396    22063756.0474   22063761.3034
      3003.747        2340.582
  -1027231.177 9   -795709.75347  24153366.218    24153365.9884   24153371.5304
      1275.065         993.557
  -2244819.189 9  -1736302.81046  24266289.430    24266289.0234   24266294.4004
      2880.742        2244.734
 96 10 31 16 36  0.0000000  0  8 17 28  3 23 21  1  9 31             0.000881830
   1323334.320 9   1023412.26948  21746456.776    21746456.1784   21746461.8164
     -1684.806       -1312.836
   1496116.880 9   1155209.944 9  21411230.112    21411229.901    21411234.761
     -1975.643       -1539.462
   -869585.238 9   -671082.77748  21708536.847    21708536.6884   21708541.8454
       931.611         725.931
    926003.426 9    703490.71048  21496888.073    21496887.5314   21496892.4404
     -1113.844        -867.930
   -708387.376 9   -546808.40848  21189850.529    21189850.2124   21189855.7414
       896.989         698.952
  -2430403.396 9  -1878128.01748  22046620.687    22046620.3624   22046625.5964
      2999.682        2337.415
  -1065370.009 9   -825428.30647  24146108.400    24146108.3274   24146114.0144
      1267.689         987.810
  -2331158.062 9  -1803579.82646  24249859.539    24249859.1694   24249864.7274
      2875.446        2240.607
 96 10 31 16 36 30.0000000  0  8 17 28  3 23 21  1  9 31             0.000878783
   1373952.461 9   1062854.96448  21756089.090    21756088.4964   21756094.1614
     -1690.289       -1317.108
   1555518.235 9   1201496.692 9  21422533.871    21422533.641    21422538.489
     -1984.982       -1546.739
   -897333.912 9   -692705.13248  21703256.513    21703256.3124   21703261.4754
       917.707         715.096
    959388.889 9    729505.34848  21503241.162    21503240.5834   21503245.4684
     -1112.328        -866.749
   -735283.352 9   -567766.31048  21184732.471    21184732.1204   21184737.6154
       895.455         697.757
  -2520346.694 9  -1948213.68648  22029505.033    22029504.7274   22029509.9574
      2995.983        2334.532
  -1103304.529 9   -854987.68247  24138889.931    24138889.7514   24138895.2404
      1260.869         982.495
  -2417345.615 9  -1870738.95846  24233458.673    24233458.2764   24233463.8124
      2869.846        2236.244
 96 10 31 16 37  0.0000000  0  8 17 28  3 23 21  1  9 31             0.000875586
   1424743.100 9   1102432.06048  21765754.228    21765753.6334   21765759.3184
     -1695.675       -1321.305
   1615205.735 9   1248006.411 9  21433892.043    21433891.816    21433896.666
     -1994.232       -1553.947
   -924655.622 9   -713994.79148  21698057.367    21698057.1934   21698062.3454
       903.823         704.278
    992734.819 9    755489.18148  21509586.660    21509586.1104   21509590.9754
     -1110.767        -865.533
   -762122.634 9   -588680.03948  21179625.193    21179624.7964   21179630.3064
       893.750         696.428
  -2610172.014 9  -2018207.43148  22012411.828    22012411.4994   22012416.7824
      2992.135        2331.534
  -1141035.914 9   -884388.75247  24131710.011    24131709.7104   24131715.3414
      1254.387         977.444
  -2503366.987 9  -1937768.59746  24217089.303    24217088.8254   24217094.4714
      2864.988        2232.458
 96 10 31 16 37 30.0000000  0  8 17 28  3 23 21  1  9 31             0.000872234
   1475711.046 9   1142147.33048  21775453.094    21775452.5304   21775458.2564
     -1702.163       -1326.361
   1675190.200 9   1294747.535 9  21445306.752    21445306.518    21445311.356
     -2004.744       -1562.138
   -951550.863 9   -734952.13748  21692939.432    21692939.2454   21692944.3694
       889.160         692.852
   1026057.044 9    781454.54148  21515927.686    21515927.1174   21515931.9984
     -1110.746        -865.516
   -788887.924 9   -609536.10848  21174531.958    21174531.5684   21174537.0644
       890.565         693.947
  -2699856.465 9  -2088091.40048  21995345.420    21995345.1054   21995350.4024
      2986.595        2327.217
  -1178552.618 9   -913622.55646  24124570.762    24124570.4974   24124576.0644
      1246.577         971.359
  -2589226.721 9  -2004672.24846  24200750.923    24200750.4244   24200756.0414
      2859.045        2227.827
 96 10 31 16 38  0.0000000  0  8 17 28  3 23 21  1  9 31             0.000868730
   1526845.232 9   1181992.13348  21785183.576    21785183.0434   21785188.7764
     -1707.155       -1330.251
   1735469.031 9   1341718.031 9  21456777.463    21456777.234    21456782.058
     -2014.475       -1569.721
   -978027.000 9   -755582.91148  21687901.183    21687901.0014   21687906.1434
       875.304         682.055
   1059357.509 9    807402.95148  21522264.588    21522264.0224   21522268.8954
     -1109.761        -864.749
   -815589.465 9   -630342.50348  21169450.812    21169450.4444   21169455.9484
       889.179         692.867
  -2789378.664 9  -2157848.94648  21978309.917    21978309.5774   21978314.9244
      2980.693        2322.618
  -1215843.917 9   -942680.71647  24117474.332    24117474.1364   24117479.5724
      1238.810         965.306
  -2674932.664 9  -2071456.13046  24184441.607    24184441.1054   24184446.5344
      2853.801        2223.741
 96 10 31 16 38 30.0000000  0  8 17 28  3 23 21  1  9 31             0.000865115
   1578122.461 9   1221948.39748  21794941.389    21794940.8094   21794946.5194
     -1711.449       -1333.597
   1796049.603 9   1388923.651 9  21468305.562    21468305.315    21468310.160
     -2024.475       -1577.513
  -1004077.073 9   -775881.68248  21682944.019    21682943.8524   21682948.9764
       861.249         671.103
   1092635.356 9    833333.73148  21528597.098    21528596.5734   21528601.4854
     -1108.966        -864.129
   -842250.451 9   -651117.30248  21164377.361    21164377.0184   21164382.5584
       887.912         691.879
  -2878694.353 9  -2227445.56148  21961313.699    21961313.3674   21961318.7424
      2973.410        2316.943
  -1252884.880 9   -971543.78247  24110425.851    24110425.6044   24110430.9934
      1230.251         958.637
  -2760448.498 9  -2138091.81346  24168168.566    24168168.0454   24168173.4754
      2846.973        2218.421
 96 10 31 16 39  0.0000000  0  8 17 28  3 23 21  1  9 31             0.000861395
   1629514.874 9   1261994.41648  21804721.110    21804720.5214   21804726.1874
     -1715.121       -1336.458
   1856927.170 9   1436360.694 9  21479890.162    21479889.918    21479894.788
     -2034.409       -1585.254
  -1029719.880 9   -795863.09948  21678064.399    21678064.2104   21678069.3644
       847.826         660.644
   1125887.408 9    859244.41248  21534924.798    21534924.2694   21534929.1294
     -1108.154        -863.497
   -868873.667 9   -671862.66948  21159311.179    21159310.8124   21159316.3554
       886.610         690.865
  -2967792.287 9  -2296872.50048  21944358.955    21944358.5884   21944363.9984
      2966.095        2311.243
  -1289659.041 9  -1000198.96946  24103428.004    24103427.7424   24103432.8944
      1220.905         951.355
  -2845765.763 9  -2204572.78846  24151933.129    24151932.6654   24151938.2164
      2840.315        2213.232
 96 10 31 16 39 30.0000000  0  8 17 28  3 23 21  1  9 31             0.000857584
   1681021.638 9   1302129.53648  21814522.548    21814521.9844   21814527.6404
     -1719.124       -1339.577
   1918105.474 9   1484032.081 9  21491532.022    21491531.789    21491536.652
     -2044.437       -1593.068
  -1054948.110 9   -815521.47848  21673263.611    21673263.4544   21673268.6384
       833.595         649.555
   1159119.563 9    885139.58448  21541248.708    21541248.1684   21541253.0064
     -1107.508        -862.993
   -895461.450 9   -692580.41548  21154251.677    21154251.3294   21154256.8784
       885.669         690.132
  -3056667.027 9  -2366125.52948  21927446.604    21927446.2714   21927451.7184
      2958.691        2305.474
  -1326142.616 9  -1028627.70446  24096485.136    24096484.9774   24096490.0724
      1211.173         943.771
  -2930866.487 9  -2270885.05246  24135738.896    24135738.5254   24135744.0424
      2832.641        2207.253
 96 10 31 16 40  0.0000000  0  8 17 28  3 23 21  1  9 31             0.000853700
   1732657.688 9   1342365.39648  21824348.643    21824348.0214   21824353.6884
     -1723.578       -1343.048
   1979589.189 9   1531941.452 9  21503232.027    21503231.794    21503236.634
     -2054.588       -1600.978
  -1079744.234 9   -834843.14948  21668545.105    21668544.9264   21668550.1484
       819.487         638.561
   1192329.617 9    911017.53448  21547568.392    21547567.8674   21547572.6924
     -1106.531        -862.232
   -922020.561 9   -713275.83348  21149197.669    21149197.3144   21149202.8794
       884.621         689.315
  -3145323.785 9  -2435208.69748  21910575.812    21910575.4484   21910580.9294
      2951.604        2299.951
  -1362329.829 9  -1056825.49647  24089598.954    24089598.7714   24089604.2364
      1201.298         936.076
  -3015730.021 9  -2337012.42546  24119589.906    24119589.4794   24119595.2424
      2824.629        2201.010
 96 10 31 16 40 30.0000000  0  8 17 28  3 23 21  1  9 31             0.000849725
   1784428.033 9   1382705.90748  21834200.226    21834199.5984   21834205.2764
     -1728.193       -1346.644
   2041371.684 9   1580083.636 9  21514988.850    21514988.609    21514993.504
     -2064.614       -1608.790
  -1104132.542 9   -853847.03748  21663904.189    21663904.0194   21663909.2334
       805.936         628.002
   1225506.999 9    936870.03048  21553881.868    21553881.3204   21553886.1384
     -1105.829        -861.685
   -948537.232 9   -733938.17148  21144151.708    21144151.3344   21144156.9144
       882.654         687.782
  -3233780.919 9  -2504136.31048  21893743.001    21893742.6504   21893748.1194
      2945.206        2294.966
  -1398230.056 9  -1084799.67546  24082767.471    24082767.2524   24082772.4934
      1191.687         928.587
  -3100359.165 9  -2402957.23446  24103485.556    24103485.1204   24103490.7944
      2817.027        2195.086
 96 10 31 16 41  0.0000000  0  8 17 28  3 23 21  1  9 31             0.000845629
   1836336.111 9   1423153.74348  21844078.047    21844077.4204   21844083.0504
     -1732.508       -1350.006
   2103447.768 9   1628454.589 9  21526801.548    21526801.300    21526806.235
     -2073.845       -1615.983
  -1128118.725 9   -872537.58448  21659339.814    21659339.6494   21659344.8014
       792.899         617.843
   1258665.502 9    962707.81348  21560191.764    21560191.2214   21560195.9974
     -1104.809        -860.890
   -974997.302 9   -754556.40948  21139116.503    21139116.1284   21139121.7414
       881.352         686.768
  -3322055.175 9  -2572921.42848  21876944.992    21876944.6194   21876950.0744
      2939.667        2290.650
  -1433854.053 9  -1112558.60347  24075988.428    24075988.1274   24075993.4834
      1183.245         922.009
  -3184774.803 9  -2468735.62646  24087421.937    24087421.4254   24087427.1544
      2810.553        2190.041
 96 10 31 16 41 30.0000000  0  8 17 28  3 23 21  1  9 31             0.000841406
   1888393.600 9   1463717.99948  21853984.295    21853983.7034   21853989.3004
     -1737.761       -1354.099
   2165812.777 9   1677050.679 9  21538669.206    21538668.981    21538673.926
     -2083.496       -1623.503
  -1151699.508 9   -890912.22848  21654852.585    21654852.4074   21654857.5204
       779.513         607.413
   1291808.660 9    988533.63948  21566498.707    21566498.1694   21566502.9554
     -1104.346        -860.529
  -1001410.943 9   -775138.46548  21134090.168    21134089.7974   21134095.3904
       879.934         685.663
  -3410145.400 9  -2641563.14248  21860181.965    21860181.6344   21860187.0854
      2933.330        2285.712
  -1469214.212 9  -1140111.91447  24069259.419    24069259.1934   24069264.9044
      1174.448         915.154
  -3268981.783 9  -2534351.45046  24071397.919    24071397.3884   24071403.0504
      2803.414        2184.478
 96 10 31 16 42  0.0000000  0  8 17 28  3 23 21  1  9 31             0.000837056
   1940608.972 9   1504405.27948  21863920.583    21863919.9584   21863925.5804
     -1743.090       -1358.252
   2228457.503 9   1725864.730 9  21550590.137    21550589.883    21550594.846
     -2092.625       -1630.617
  -1174896.858 9   -908988.10048  21650438.318    21650438.1444   21650443.2074
       767.175         597.799
   1324926.178 9   1014339.48548  21572800.791    21572800.2434   21572805.0364
     -1103.342        -859.747
  -1027789.996 9   -795693.57448  21129070.484    21129070.0624   21129075.6544
       878.699         684.701
  -3498049.043 9  -2710059.46848  21843454.481    21843454.1184   21843459.5524
      2926.959        2280.747
  -1504318.551 9  -1167465.94746  24062579.391    24062579.1454   24062584.5734
      1165.928         908.515
  -3352983.619 9  -2599807.42146  24055412.964    24055412.4824   24055417.9624
      2796.691        2179.240
 96 10 31 16 42 30.0000000  0  8 17 28  3 23 21  1  9 31             0.000832572
   1992974.230 9   1545209.34648  21873885.413    21873884.7484   21873890.3984
     -1748.238       -1362.263
   2291370.476 9   1774887.805 9  21562562.082    21562561.851    21562566.812
     -2101.888       -1637.835
  -1197720.271 9   -926772.59048  21646095.176    21646095.0104   21646100.0534
       753.696         587.296
   1358012.427 9   1040120.96848  21579096.916    21579096.3624   21579101.1254
     -1102.770        -859.301
  -1054133.431 9   -816220.92948  21124057.498    21124057.0924   21124062.7064
       877.327         683.631
  -3585758.819 9  -2778404.73048  21826763.895    21826763.5284   21826768.9164
      2919.921        2275.263
  -1539176.380 9  -1194627.88746  24055946.077    24055945.7254   24055951.2284
      1157.573         902.005
  -3436778.121 9  -2665101.82846  24039467.257    24039466.7294   24039472.2264
      2789.268        2173.456
 96 10 31 16 43  0.0000000  0  8 17 28  3 23 21  1  9 31             0.000827960
   2045480.859 9   1586123.58348  21883877.120    21883876.4754   21883882.1094
     -1752.586       -1365.651
   2354540.999 9   1824111.570 9  21574583.110    21574582.844    21574587.788
     -2109.774       -1643.980
  -1220140.530 9   -944242.93148  21641828.764    21641828.6204   21641833.6374
       740.479         576.997
   1391058.332 9   1065871.01248  21585385.312    21585384.7904   21585389.5304
     -1100.498        -857.531
  -1080467.743 9   -836741.16948  21119046.262    21119045.8734   21119051.4904
       877.923         684.096
  -3673267.825 9  -2846593.54248  21810111.510    21810111.1194   21810116.4734
      2913.756        2270.459
  -1573808.417 9  -1221613.86347  24049355.677    24049355.6144   24049361.3164
      1150.770         896.704
  -3520368.939 9  -2730237.54546  24023560.656    24023560.1294   24023565.4394
      2783.048        2168.609
 96 10 31 16 43 30.0000000  0  8 17 28  3 23 21  1  9 31             0.000823232
   2098133.461 9   1627151.56548  21893896.600    21893895.9724   21893901.5694
     -1757.445       -1369.438
   2417960.303 9   1873529.186 9  21586651.445    21586651.178    21586656.106
     -2118.061       -1650.437
  -1242142.258 9   -961387.14948  21637642.010    21637641.8544   21637646.8484
       726.434         566.052
   1424041.046 9   1091571.81848  21591661.718    21591661.1774   21591665.9414
     -1098.119        -855.677
  -1106808.228 9   -857266.23048  21114033.865    21114033.4304   21114039.0684
       878.175         684.292
  -3760579.443 9  -2914628.54748  21793496.620    21793496.2664   21793501.5924
      2907.106        2265.277
  -1608216.373 9  -1248425.27646  24042808.552    24042808.2354   24042813.3774
      1143.157         890.772
  -3603757.419 9  -2795215.57046  24007692.118    24007691.6524   24007696.8744
      2776.240        2163.304
 96 10 31 16 44  0.0000000  0  8 17 28  3 23 21  1  9 31             0.000818378
   2150919.363 9   1668283.41448  21903941.439    21903940.8174   21903946.4214
     -1761.478       -1372.580
   2481615.925 9   1923130.947 9  21598764.737    21598764.465    21598769.416
     -2125.646       -1656.348
  -1263730.614 9   -978209.25548  21633533.854    21633533.7074   21633538.7624
       712.783         555.415
   1456938.800 9   1117206.42348  21597922.026    21597921.4704   21597926.1884
     -1095.304        -853.484
  -1133154.829 9   -877796.04748  21109020.288    21109019.8724   21109025.4494
       878.064         684.206
  -3847697.609 9  -2982512.81748  21776918.545    21776918.1784   21776923.5274
      2900.737        2260.314
  -1642408.202 9  -1275068.25647  24036301.503    24036301.4504   24036306.7284
      1136.148         885.310
  -3686954.169 9  -2860044.19746  23991860.480    23991859.9384   23991865.0794
      2770.194        2158.593
 96 10 31 16 44 30.0000000  0  8 17 28  3 23 21  1  9 31             0.000813374
   2203814.624 9   1709500.48248  21914007.153    21914006.4964   21914012.0874
     -1764.684       -1375.078
   2545498.624 9   1972909.651 9  21610921.210    21610920.963    21610925.940
     -2133.020       -1662.094
  -1284905.630 9   -994709.27748  21629504.424    21629504.2604   21629509.3004
       699.033         544.701
   1489762.126 9   1142783.03548  21604168.193    21604167.6174   21604172.2794
     -1092.802        -851.534
  -1159493.515 9   -898319.69448  21104008.274    21104007.8244   21104013.3714
       878.107         684.239
  -3934625.345 9  -3050248.69248  21760376.733    21760376.3584   21760381.7074
      2894.766        2255.662
  -1676390.113 9  -1301547.69447  24029835.478    24029835.0624   24029840.6524
      1129.334         880.000
  -3769973.845 9  -2924734.87246  23976062.275    23976061.8204   23976066.8614
      2764.656        2154.277
 96 10 31 16 45  0.0000000  0  8 17 28  3 23 21  1  9 31             0.000808208
   2256805.708 9   1750792.21548  21924091.052    21924090.3934   21924095.9914
     -1767.386       -1377.184
   2609597.237 9   2022856.599 9  21623118.840    21623118.578    21623123.539
     -2139.511       -1667.151
  -1305677.274 9  -1010894.98748  21625551.738    21625551.5694   21625556.6184
       686.622         535.030
   1522505.694 9   1168297.49648  21610399.173    21610398.5384   21610403.1904
     -1089.444        -848.917
  -1185836.437 9   -918846.64548  21098995.397    21098994.9664   21099000.4784
       878.755         684.744
  -4021382.558 9  -3117851.69948  21743867.360    21743867.0064   21743872.3684
      2889.816        2251.805
  -1710156.772 9  -1327859.41247  24023409.872    24023409.5114   24023415.2464
      1122.155         874.406
  -3852841.335 9  -2989306.90346  23960293.024    23960292.5864   23960297.9164
      2760.334        2150.910
 96 10 31 16 45 30.0000000  0  8 17 28  3 23 21  1  9 31             0.000802876
   2309890.999 9   1792157.35048  21934192.827    21934192.1934   21934197.8484
     -1771.066       -1380.051
   2673905.908 9   2072967.228 9  21635356.382    21635356.155    21635361.104
     -2147.143       -1673.098
  -1326075.299 9  -1026789.56148  21621670.180    21621669.9994   21621675.0274
       674.012         525.204
   1555169.554 9   1193749.84348  21616614.929    21616614.2534   21616618.9314
     -1087.583        -847.467
  -1212169.637 9   -939366.02248  21093984.372    21093983.9674   21093989.4534
       877.389         683.680
  -4107977.695 9  -3185328.40848  21727388.868    21727388.5014   21727393.8464
      2883.682        2247.025
  -1743673.789 9  -1353976.60046  24017031.534    24017031.2824   24017036.9234
      1113.021         867.289
  -3935554.193 9  -3053758.50146  23944553.209    23944552.8204   23944558.1764
      2754.290        2146.200
 96 10 31 16 46  0.0000000  0  8 17 28  3 23 21  1  9 31             0.000797373
   2363059.701 9   1833587.48148  21944310.522    21944309.8974   21944315.5444
     -1773.365       -1381.843
   2738418.126 9   2123236.458 9  21647632.710    21647632.453    21647637.396
     -2153.525       -1678.071
  -1346124.496 9  -1042412.32448  21617854.987    21617854.8184   21617859.8084
       662.570         516.288
   1587759.143 9   1219144.31648  21622816.529    21622815.8664   21622820.5624
     -1084.954        -845.419
  -1238486.721 9   -959872.84348  21088976.409    21088976.0184   21088981.4784
       877.283         683.597
  -4194415.259 9  -3252682.33948  21710940.339    21710939.9434   21710945.3114
      2878.963        2243.348
  -1776940.361 9  -1379898.63446  24010700.700    24010700.6304   24010706.6434
      1104.916         860.974
  -4018105.047 9  -3118083.81446  23928844.467    23928844.0154   23928849.4924
      2749.149        2142.194
 96 10 31 16 46 30.0000000  0  8 17 28  3 23 21  1  9 31             0.000791707
   2416313.131 9   1875083.64048  21954444.397    21954443.7234   21954449.3824
     -1777.159       -1384.799
   2803131.307 9   2173662.292 9  21659947.238    21659946.991    21659951.957
     -2160.861       -1683.788
  -1365812.715 9  -1057753.80048  21614108.508    21614108.3214   21614113.3004
       649.732         506.285
   1620275.658 9   1244481.85348  21629004.251    21629003.6004   21629008.3004
     -1082.833        -843.766
  -1264803.614 9   -980379.51448  21083968.471    21083968.1074   21083973.5604
       877.047         683.413
  -4280710.287 9  -3319925.20048  21694518.931    21694518.5414   21694523.9234
      2873.792        2239.318
  -1809947.834 9  -1405618.74846  24004419.402    24004419.3644   24004425.4874
      1095.363         853.530
  -4100487.842 9  -3182278.21246  23913167.449    23913167.0624   23913172.5134
      2742.662        2137.139
 96 10 31 16 47  0.0000000  0  8 17 28  3 23 21  1  9 31             0.000785906
   2469666.764 9   1916657.87848  21964597.279    21964596.6164   21964602.3014
     -1780.469       -1387.378
   2868039.694 9   2224240.232 9  21672298.923    21672298.681    21672303.647
     -2167.029       -1688.594
  -1385140.606 9  -1072814.50548  21610430.587    21610430.3944   21610435.3704
       638.111         497.229
   1652688.630 9   1269738.70448  21635172.178    21635171.5774   21635176.3274
     -1078.811        -840.632
  -1291135.719 9  -1000898.03448  21078957.633    21078957.2744   21078962.7434
       877.641         683.876
  -4366867.900 9  -3387060.98248  21678123.679    21678123.3004   21678128.6754
      2869.319        2235.833
  -1842683.343 9  -1431126.93846  23998190.135    23998190.1104   23998196.0864
      1086.360         846.514
  -4182689.660 9  -3246331.57246  23897525.018    23897524.5444   23897529.8954
      2736.555        2132.381
 96 10 31 16 47 30.0000000  0  8 17 28  3 23 21  1  9 31             0.000779974
   2523131.829 9   1958318.94148  21974771.378    21974770.6724   21974776.4084
     -1783.863       -1390.023
   2933144.641 9   2274971.337 9  21684688.055    21684687.769    21684692.738
     -2173.262       -1693.451
  -1404101.792 9  -1087589.46648  21606822.423    21606822.2364   21606827.2114
       625.969         487.768
   1684997.094 9   1294914.12048  21641320.308    21641319.7124   21641324.4724
     -1075.059        -837.708
  -1317469.525 9  -1021417.88348  21073946.557    21073946.1544   21073951.5804
       878.125         684.253
  -4452872.787 9  -3454077.76348  21661757.540    21661757.1174   21661762.4884
      2864.413        2232.010
  -1875149.442 9  -1456425.19146  23992012.031    23992012.0204   23992017.9554
      1078.328         840.255
  -4264687.927 9  -3310226.30046  23881921.403    23881921.0004   23881926.2634
      2730.123        2127.369
 96 10 31 16 48  0.0000000  0  8 17 28  3 23 21  1  9 31             0.000773907
   2576705.090 9   2000064.30548  21984965.962    21984965.3554   21984971.1084
     -1787.574       -1392.915
   2998441.589 9   2325852.047 9  21697113.695    21697113.390    21697118.367
     -2179.738       -1698.497
  -1422683.684 9  -1102068.87348  21603286.423    21603286.2484   21603291.2144
       612.872         477.562
   1717196.409 9   1320004.48548  21647447.687    21647447.0554   21647451.8394
     -1071.389        -834.849
  -1343825.484 9  -1041954.99548  21068931.171    21068930.7644   21068936.2104
       879.070         684.990
  -4538729.560 9  -3520979.12948  21645419.482    21645419.1194   21645424.4714
      2859.334        2228.052
  -1907374.130 9  -1481535.30946  23985880.347    23985879.8994   23985885.8524
      1070.110         833.852
  -4346491.066 9  -3373969.02446  23866354.846    23866354.3454   23866359.4454
      2723.505        2122.212
 96 10 31 16 48 30.0000000  0  8 17 28  3 23 21  1  9 31             0.000767713
   2630397.837 9   2041902.78948  21995183.456    21995182.8234   21995188.5424
     -1791.644       -1396.086
   3063934.292 9   2376885.296 9  21709576.511    21709576.265    21709581.241
     -2186.227       -1703.553
  -1440873.318 9  -1116242.62648  21599825.104    21599824.9124   21599829.8564
       600.073         467.589
   1749283.807 9   1345007.64048  21653553.640    21653553.0804   21653557.9014
     -1067.658        -831.941
  -1370205.402 9  -1062510.77648  21063911.232    21063910.8034   21063916.2624
       879.678         685.463
  -4624419.063 9  -3587750.15448  21629113.344    21629112.9714   21629118.2924
      2853.384        2223.416
  -1939351.893 9  -1506453.00846  23979794.984    23979794.8984   23979800.5344
      1062.001         827.533
  -4428096.503 9  -3437557.67646  23850825.888    23850825.4634   23850830.4754
      2716.957        2117.109
 96 10 31 16 49  0.0000000  0  8 17 28  3 23 21  1  9 31             0.000761375
   2684202.059 9   2083828.13348  22005422.086    22005421.4924   22005427.1794
     -1794.938       -1398.653
   3129625.056 9   2428072.876 9  21722077.038    21722076.818    21722081.810
     -2192.907       -1708.759
  -1458681.035 9  -1130118.78348  21596436.433    21596436.2474   21596441.1994
       587.292         457.630
   1781269.137 9   1369931.26948  21659640.287    21659639.7274   21659644.5294
     -1064.588        -829.549
  -1396593.522 9  -1083072.95048  21058889.739    21058889.3424   21058894.7884
       879.787         685.548
  -4709916.303 9  -3654371.36848  21612843.839    21612843.4274   21612848.7234
      2846.578        2218.113
  -1971091.961 9  -1531185.51546  23973755.448    23973755.1294   23973760.3764
      1054.327         821.553
  -4509505.844 9  -3500993.48246  23835334.283    23835333.7734   23835338.9064
      2710.504        2112.081
 96 10 31 16 49 30.0000000  0  8 17 28  3 23 21  1  9 31             0.000754879
   2738094.743 9   2125822.39748  22015677.525    22015676.9184   22015682.6464
     -1797.933       -1400.987
   3195514.619 9   2479415.366 9  21734615.462    21734615.221    21734620.218
     -2199.768       -1714.105
  -1476104.700 9  -1143695.68148  21593120.864    21593120.6644   21593125.6054
       574.262         447.477
   1813170.965 9   1394789.83248  21665711.039    21665710.4854   21665715.2604
     -1062.196        -827.685
  -1422993.910 9  -1103644.67848  21053865.963    21053865.5244   21053870.9794
       880.263         685.919
  -4795210.326 9  -3720834.23248  21596612.899    21596612.5344   21596617.7904
      2839.697        2212.751
  -2002608.448 9  -1555743.79446  23967758.278    23967757.9404   23967762.8884
      1046.690         815.603
  -4590725.704 9  -3564281.75146  23819878.734    23819878.3224   23819883.1174
      2704.115        2107.102
 96 10 31 16 50  0.0000000  0  8 17 28  3 23 21  1  9 31             0.000748229
   2792070.994 9   2167881.78348  22025948.855    22025948.2804   22025954.0214
     -1800.681       -1403.128
   3261607.024 9   2530915.915 9  21747192.461    21747192.193    21747197.237
     -2206.590       -1719.421
  -1493145.127 9  -1156973.94748  21589878.173    21589877.9974   21589882.9294
       561.505         437.536
   1844990.857 9   1419584.54948  21671766.156    21671765.5954   21671770.3814
     -1059.307        -825.434
  -1449412.407 9  -1124230.52048  21048838.644    21048838.2514   21048843.7264
       880.700         686.260
  -4880301.011 9  -3787138.64748  21580420.647    21580420.2844   21580425.5674
      2832.703        2207.301
  -2033892.357 9  -1580120.80247  23961804.736    23961804.6354   23961809.8504
      1038.624         809.317
  -4671748.691 9  -3627416.48946  23804460.516    23804460.1834   23804465.1734
      2697.164        2101.686
 96 10 31 16 50 30.0000000  0  8 17 28  3 23 21  1  9 31             0.000741433
   2846127.840 9   2210003.96848  22036235.641    22036235.0054   22036240.7424
     -1803.321       -1405.185
   3327902.470 9   2582574.678 9  21759808.084    21759807.809    21759812.889
     -2213.402       -1724.729
  -1509804.594 9  -1169955.36648  21586708.008    21586707.8234   21586712.7664
       548.840         427.668
   1876724.488 9   1444312.04748  21677804.924    21677804.3204   21677809.1214
     -1056.605        -823.329
  -1475840.981 9  -1144824.20948  21043809.501    21043809.0754   21043814.5744
       880.849         686.376
  -4965170.953 9  -3853271.05648  21564270.460    21564270.0644   21564275.3864
      2825.158        2201.422
  -2064933.007 9  -1604308.29047  23955897.800    23955897.7034   23955903.1704
      1030.411         802.918
  -4752562.718 9  -3690388.47646  23789082.132    23789081.7484   23789086.5454
      2689.899        2096.025
 96 10 31 16 51  0.0000000  0  8 17 28  3 23 21  1  9 31             0.000734495
   2900258.953 9   2252184.03348  22046536.539    22046535.8764   22046541.5834
     -1805.593       -1406.956
   3394402.093 9   2634392.538 9  21772462.541    21772462.290    21772467.389
     -2219.832       -1729.739
  -1526081.493 9  -1182638.67348  21583610.650    21583610.4744   21583615.4154
       536.262         417.866
   1908375.998 9   1468975.55548  21683828.026    21683827.4324   21683832.2564
     -1053.415        -820.843
  -1502272.367 9  -1165420.09348  21038779.814    21038779.3794   21038784.8454
       881.357         686.772
  -5049823.456 9  -3919234.03748  21548161.618    21548161.2194   21548166.5574
      2818.427        2196.177
  -2095723.615 9  -1628300.90646  23950038.182    23950038.1844   23950044.1504
      1022.205         796.523
  -4833149.992 9  -3753183.72346  23773746.830    23773746.3564   23773751.3224
      2682.420        2090.197
 96 10 31 16 51 30.0000000  0  8 17 28  3 23 21  1  9 31             0.000727438
   2954492.038 9   2294443.54748  22056856.754    22056856.1134   22056861.8154
     -1809.461       -1409.970
   3461107.956 9   2686371.105 9  21785156.247    21785155.989    21785161.115
     -2226.570       -1734.990
  -1541962.278 9  -1195013.32448  21580588.651    21580588.4744   21580593.4374
       523.095         407.606
   1939944.748 9   1493574.57148  21689835.345    21689834.7674   21689839.6134
     -1050.536        -818.599
  -1528704.913 9  -1186016.87948  21033749.878    21033749.4194   21033754.8934
       881.385         686.793
  -5134263.143 9  -3985031.18648  21532093.219    21532092.8394   21532098.2114
      2811.557        2190.824
  -2126243.535 9  -1652082.65147  23944230.313    23944230.5244   23944236.1294
      1013.105         789.432
  -4913486.531 9  -3815783.64746  23758459.395    23758458.9734   23758463.8524
      2673.921        2083.575
 96 10 31 16 52  0.0000000  0  8 17 28  3 23 21  1  9 31             0.000720271
   3008856.675 9   2336805.56748  22067202.042    22067201.3734   22067207.0964
     -1814.414       -1413.829
   3528021.365 9   2738511.397 9  21797889.451    21797889.208    21797894.324
     -2233.805       -1740.627
  -1557439.691 9  -1207073.66148  21577643.405    21577643.2244   21577648.2024
       509.195         396.775
   1971432.201 9   1518110.24548  21695827.296    21695826.6934   21695831.4944
     -1048.202        -816.781
  -1555125.280 9  -1206604.17748  21028722.167    21028721.7694   21028727.2444
       880.567         686.156
  -5218483.309 9  -4050657.27948  21516066.622    21516066.2494   21516071.6774
      2803.604        2184.626
  -2156480.011 9  -1675643.51747  23938476.551    23938476.6254   23938482.3174
      1003.180         781.699
  -4993557.213 9  -3878176.37646  23743222.321    23743221.9674   23743226.8364
      2664.735        2076.417
 96 10 31 16 52 30.0000000  0  8 17 28  3 23 21  1  9 31             0.000712986
   3063359.645 9   2379275.38348  22077573.628    22077572.9804   22077578.7314
     -1818.644       -1417.125
   3595139.987 9   2790811.595 9  21810661.767    21810661.507    21810666.574
     -2240.238       -1745.640
  -1572505.584 9  -1218813.32748  21574776.460    21574776.2674   21574781.2504
       495.723         386.278
   2002848.252 9   1542590.27148  21701805.568    21701804.9424   21701809.7824
     -1045.700        -814.831
  -1581530.805 9  -1227179.90648  21023697.441    21023696.9914   21023702.4274
       880.203         685.872
  -5302472.324 9  -4116103.25548  21500084.062    21500083.6634   21500089.1274
      2796.359        2178.981
  -2186431.376 9  -1698982.22847  23932776.963    23932777.1254   23932782.7544
       994.067         774.598
  -5073370.509 9  -3940368.44146  23728034.334    23728033.7764   23728039.1174
      2656.596        2070.075
 96 10 31 16 53  0.0000000  0  8 17 28  3 23 21  1  9 31             0.000705579
   3118011.663 9   2421861.34748  22087973.661    22087972.9644   22087978.6924
     -1824.399       -1421.610
   3662465.931 9   2843273.339 9  21823473.530    21823473.242    21823478.273
     -2247.617       -1751.390
  -1587148.888 9  -1230223.70948  21571989.914    21571989.7314   21571994.7184
       481.005         374.809
   2034204.406 9   1567023.62948  21707772.390    21707771.7904   21707776.6524
     -1044.196        -813.659
  -1607906.473 9  -1247732.37148  21018678.376    21018677.8884   21018683.3034
       878.692         684.695
  -5386239.064 9  -4181376.02748  21484143.758    21484143.3604   21484148.8414
      2788.518        2172.871
  -2216089.419 9  -1722092.36047  23927133.317    23927133.3734   23927138.7884
       983.630         766.465
  -5152930.440 9  -4002363.31246  23712894.811    23712894.2394   23712899.1964
      2647.977        2063.359
 96 10 31 16 53 30.0000000  0  8 17 28  3 23 21  1  9 31             0.000698045
   3172823.275 9   2464571.66348  22098403.980    22098403.3224   22098409.0304
     -1829.122       -1425.290
   3729996.136 9   2895894.245 9  21836324.118    21836323.828    21836328.853
     -2254.043       -1756.397
  -1601369.631 9  -1241304.82148  21569283.789    21569283.6144   21569288.6014
       467.485         364.274
   2065497.703 9   1591408.00948  21713727.305    21713726.7364   21713731.5774
     -1041.695        -811.710
  -1634256.977 9  -1268265.22548  21013664.020    21013663.5814   21013668.9434
       878.356         684.433
  -5469787.207 9  -4246478.46548  21468245.037    21468244.6714   21468250.1684
      2781.743        2167.592
  -2245446.648 9  -1744968.10747  23921547.330    23921547.2444   23921552.1524
       973.976         758.942
  -5232251.291 9  -4064171.76246  23697800.387    23697800.0154   23697804.9014
      2640.447        2057.491
 96 10 31 16 54  0.0000000  0  8 17 28  3 23 21  1  9 31             0.000690381
   3227776.265 9   2507392.14948  22108861.193    22108860.5864   22108866.2864
     -1834.055       -1429.134
   3797731.636 9   2948675.124 9  21849213.743    21849213.496    21849218.517
     -2261.503       -1762.210
  -1615171.873 9  -1252059.82648  21566657.310    21566657.1264   21566662.1274
       452.842         352.864
   2096728.127 9   1615743.39748  21719670.229    21719669.7024   21719674.5434
     -1040.155        -810.510
  -1660583.615 9  -1288779.48148  21008654.282    21008653.8104   21008659.1444
       876.987         683.366
  -5553114.673 9  -4311408.94848  21452388.338    21452387.9494   21452393.4924
      2773.662        2161.295
  -2274498.765 9  -1767606.12947  23916019.787    23916019.1084   23916023.8674
       963.077         750.450
  -5311341.604 9  -4125800.52547  23682750.144    23682749.6924   23682754.7634
      2632.296        2051.140
 96 10 31 16 54 30.0000000  0  8 17 28  3 23 21  1  9 31             0.000682587
   3282853.370 9   2550309.34748  22119342.118    22119341.4604   22119347.1364
     -1838.052       -1432.248
   3865672.163 9   3001615.764 9  21862142.485    21862142.205    21862147.191
     -2268.135       -1767.378
  -1628553.758 9  -1262487.28248  21564110.844    21564110.6754   21564115.6774
       439.093         342.150
   2127892.496 9   1640027.30948  21725600.657    21725600.1164   21725604.9524
     -1037.774        -808.655
  -1686887.685 9  -1309276.15748  21003648.754    21003648.3044   21003653.6474
       876.251         682.793
  -5636223.316 9  -4376168.91648  21436573.284    21436572.9014   21436578.4694
      2766.623        2155.810
  -2303237.970 9  -1790000.29247  23910550.726    23910550.1954   23910555.1924
       952.625         742.305
  -5390195.919 9  -4187245.49047  23667744.566    23667744.1814   23667748.9734
      2624.151        2044.793
 96 10 31 16 55  0.0000000  0  8 17 28  3 23 21  1  9 31             0.000674678
   3338056.505 9   2593324.75148  22129846.974    22129846.2994   22129852.0134
     -1842.415       -1435.648
   3933815.541 9   3054714.476 9  21875109.796    21875109.519    21875114.459
     -2275.048       -1772.765
  -1641521.301 9  -1272591.88048  21561643.181    21561643.0014   21561648.0244
       425.257         331.369
   2158991.703 9   1664260.45148  21731518.668    21731518.0974   21731522.9314
     -1035.867        -807.169
  -1713169.773 9  -1329755.70348  20998647.417    20998646.9744   20998652.3194
       875.690         682.356
  -5719113.707 9  -4440758.82048  21420799.798    21420799.4004   21420804.9644
      2759.024        2149.889
  -2331654.749 9  -1812143.23547  23905143.150    23905142.6474   23905147.6004
       941.713         733.802
  -5468792.488 9  -4248489.46346  23652788.067    23652787.6564   23652792.9194
      2615.154        2037.782
 96 10 31 16 55 30.0000000  0  8 17 28  3 23 21  1  9 31             0.000666669
   3393382.044 9   2636435.53048  22140375.023    22140374.3884   22140380.1514
     -1846.136       -1438.548
   4002166.065 9   3107974.591 9  21888116.517    21888116.215    21888121.155
     -2281.878       -1778.087
  -1654080.325 9  -1282378.14048  21559253.272    21559253.1094   21559258.1594
       411.753         320.846
   2190042.515 9   1688455.88348  21737427.435    21737426.8554   21737431.6764
     -1034.532        -806.129
  -1739439.326 9  -1350225.48048  20993648.488    20993648.0654   20993653.3924
       875.366         682.103
  -5801773.344 9  -4505168.91648  21405070.194    21405069.7964   21405075.3474
      2751.333        2143.896
  -2359748.779 9  -1834034.68847  23899797.246    23899796.6594   23899801.4354
       931.122         725.550
  -5547105.247 9  -4309512.41846  23637885.861    23637885.2504   23637890.3664
      2605.351        2030.144
 96 10 31 16 56  0.0000000  0  8 17 28  3 23 21  1  9 31             0.000658553
   3448822.034 9   2679635.48748  22150924.950    22150924.2874   22150930.0754
     -1850.213       -1441.724
   4070720.391 9   3161393.518 9  21901161.992    21901161.688    21901166.634
     -2288.669       -1783.378
  -1666226.442 9  -1291842.66048  21556941.984    21556941.8084   21556946.8624
       397.699         309.895
   2221063.907 9   1712628.39448  21743330.605    21743330.0524   21743334.8994
     -1033.856        -805.602
  -1765694.920 9  -1370684.38048  20988652.227    20988651.7694   20988657.1244
       874.712         681.594
  -5884191.055 9  -4569390.49248  21389386.633    21389386.2284   21389391.8004
      2742.955        2137.368
  -2387526.934 9  -1855680.00847  23894511.032    23894510.4694   23894515.6194
       920.560         717.319
  -5625123.235 9  -4370305.81346  23623039.608    23623039.3114   23623043.7764
      2595.364        2022.362
 96 10 31 16 56 30.0000000  0  8 17 28  3 23 21  1  9 31             0.000650332
   3504393.553 9   2722937.94148  22161499.884    22161499.2494   22161505.0164
     -1854.825       -1445.318
   4139481.149 9   3214973.300 9  21914246.704    21914246.415    21914251.395
     -2295.610       -1788.787
  -1677948.843 9  -1300977.01248  21554711.296    21554711.1024   21554716.1664
       383.544         298.865
   2252072.128 9   1736790.63748  21749231.259    21749230.6924   21749235.5824
     -1033.517        -805.338
  -1791924.955 9  -1391123.36748  20983660.799    20983660.3484   20983665.7134
       873.701         680.806
  -5966357.378 9  -4633416.18848  21373750.896    21373750.4954   21373756.0334
      2734.405        2130.705
  -2414988.383 9  -1877078.53547  23889285.031    23889284.7444   23889290.0064
       909.965         709.064
  -5702832.996 9  -4430858.71347  23608251.785    23608251.6724   23608256.7494
      2585.016        2014.298
 96 10 31 16 57  0.0000000  0  8 17 28  3 23 21  1  9 31             0.000642001
   3560105.732 9   2766350.00148  22172101.657    22172100.9784   22172106.6784
     -1859.191       -1448.720
   4208448.534 9   3268714.089 9  21927370.751    21927370.493    21927375.492
     -2302.136       -1793.872
  -1689247.427 9  -1309781.11248  21552561.270    21552561.0934   21552566.1574
       369.688         288.069
   2283064.675 9   1760940.66848  21755128.947    21755128.3864   21755133.2964
     -1032.456        -804.511
  -1818120.689 9  -1411535.62048  20978675.913    20978675.4664   20978680.8544
       872.790         680.096
  -6048262.217 9  -4697238.12848  21358164.958    21358164.5574   21358170.0344
      2725.918        2124.092
  -2442134.797 9  -1898231.59747  23884119.729    23884119.2424   23884124.2054
       899.880         701.205
  -5780243.484 9  -4491178.64947  23593521.044    23593520.7164   23593525.5234
      2575.795        2007.113
 96 10 31 16 57 30.0000000  0  8 17 28  3 23 21  1  9 31             0.000633544
   3615960.044 9   2809872.81648  22182730.439    22182729.7154   22182735.4234
     -1864.464       -1452.829
   4277619.581 9   3322613.581 9  21940533.604    21940533.342    21940538.333
     -2309.154       -1799.341
  -1700116.390 9  -1318250.45048  21550493.069    21550492.8494   21550497.9074
       354.866         276.519
   2314025.769 9   1785066.19148  21761020.662    21761020.0764   21761024.9784
     -1031.338        -803.640
  -1844278.677 9  -1431918.46748  20973698.262    20973697.7974   20973703.1584
       871.087         678.769
  -6129898.059 9  -4760850.45948  21342630.178    21342629.7684   21342635.2234
      2716.411        2116.684
  -2468970.496 9  -1919142.52947  23879013.162    23879012.5264   23879017.5944
       889.146         692.841
  -5857374.270 9  -4551280.47946  23578843.661    23578843.1104   23578848.4764
      2566.249        1999.675
 96 10 31 16 58  0.0000000  0  8 17 28  3 23 21  1  9 31             0.000624960
   3671975.772 9   2853521.41048  22193389.876    22193389.1964   22193394.9264
     -1869.781       -1456.972
   4346993.702 9   3376671.304 9  21953735.126    21953734.827    21953739.821
     -2315.707       -1804.447
  -1710537.201 9  -1326370.57348  21548510.066    21548509.8454   21548514.8964
       339.927         264.878
   2344930.120 9   1809147.49948  21766901.627    21766901.0174   21766905.8934
     -1028.790        -801.654
  -1870384.680 9  -1452260.80648  20968730.514    20968729.9974   20968735.3554
       869.457         677.499
  -6211245.662 9  -4824238.19448  21327150.265    21327149.8384   21327155.2754
      2706.880        2109.257
  -2495490.566 9  -1939807.52647  23873966.081    23873965.6024   23873971.1244
       878.907         684.863
  -5934229.373 9  -4611167.56947  23564218.521    23564218.0514   23564223.2734
      2557.355        1992.744
 96 10 31 16 58 30.0000000  0  8 17 28  3 23 21  1  9 31             0.000616249
   3728149.502 9   2897293.11248  22204079.413    22204078.7294   22204084.5044
     -1875.245       -1461.230
   4416569.826 9   3430886.435 9  21966975.044    21966974.728    21966979.738
     -2322.752       -1809.937
  -1720509.503 9  -1334141.21148  21546612.375    21546612.1864   21546617.2514
       324.799         253.090
   2375754.666 9   1833166.61848  21772767.403    21772766.7634   21772771.6604
     -1026.276        -799.696
  -1896438.154 9  -1472562.21348  20963772.700    20963772.1724   20963777.5304
       867.446         675.932
  -6292303.220 9  -4887399.91748  21311725.534    21311725.1214   21311730.5274
      2696.872        2101.459
  -2521698.138 9  -1960228.99147  23868978.676    23868978.1844   23868983.9524
       868.163         676.491
  -6010810.380 9  -4670841.11646  23549645.612    23549645.1654   23549650.2184
      2548.017        1985.468
 96 10 31 16 59  0.0000000  0  8 17 28  3 23 21  1  9 31             0.000607417
   3784486.182 9   2941191.79748  22214799.908    22214799.2534   22214805.0854
     -1880.651       -1465.442
   4486349.406 9   3485260.104 9  21980253.583    21980253.331    21980258.372
     -2329.359       -1815.085
  -1730034.485 9  -1341563.28548  21544799.905    21544799.6994   21544804.7164
       309.988         241.549
   2406501.175 9   1857124.93448  21778618.240    21778617.6294   21778622.5524
     -1023.766        -797.740
  -1922440.342 9  -1492823.65448  20958824.612    20958824.1304   20958829.4724
       866.012         674.815
  -6373069.180 9  -4950334.42148  21296356.285    21296355.8684   21296361.2834
      2687.471        2094.133
  -2547585.755 9  -1980401.18447  23864052.416    23864051.7414   23864057.5964
       857.513         668.192
  -6087115.396 9  -4730299.61446  23535125.335    23535124.8894   23535129.8334
      2538.746        1978.244
 96 10 31 16 59 30.0000000  0  8 17 28  3 23 21  1  9 31             0.000598477
   3840987.317 9   2985218.62148  22225551.791    22225551.0964   22225556.9444
     -1886.007       -1469.616
   4556329.332 9   3539789.884 9  21993570.367    21993570.108    21993575.130
     -2335.851       -1820.144
  -1739104.163 9  -1348630.58048  21543074.029    21543073.8204   21543078.7834
       294.764         229.686
   2437185.620 9   1881034.88648  21784457.268    21784456.6964   21784461.6364
     -1021.803        -796.210
  -1948405.708 9  -1513056.40348  20953883.632    20953883.1224   20953888.4064
       865.012         674.035
  -6453554.516 9  -5013050.25848  21281040.416    21281040.0194   21281045.4524
      2678.422        2087.082
  -2573147.974 9  -2000319.77047  23859187.707    23859187.3324   23859193.4724
       846.668         659.741
  -6163126.563 9  -4789529.04047  23520660.744    23520660.4884   23520665.5984
      2528.579        1970.321
 96 10 31 17  0  0.0000000  0  8 17 28  3 23 21  1  9 31             0.000589444
   3897645.391 9   3029367.73748  22236333.437    22236332.8034   22236338.6634
     -1890.799       -1473.350
   4626505.960 9   3594472.942 9  22006924.627    22006924.338    22006929.346
     -2342.354       -1825.211
  -1747720.948 9  -1355344.96848  21541434.274    21541434.0764   21541439.0584
       280.072         218.238
   2467817.306 9   1904903.72548  21790286.310    21790285.7024   21790290.6804
     -1020.203        -794.963
  -1974337.819 9  -1533263.23548  20948948.950    20948948.4084   20948953.6504
       864.080         673.309
  -6533778.355 9  -5075562.32848  21265774.300    21265773.8984   21265779.3664
      2670.119        2080.612
  -2598379.152 9  -2019980.42747  23854386.692    23854386.0874   23854392.3614
       835.540         651.070
  -6238828.709 9  -4848517.71347  23506255.096    23506254.7544   23506259.8964
      2518.443        1962.423
 96 10 31 17  0 30.0000000  0  8 17 28  3 23 21  1  9 31             0.000580320
   3954445.703 9   3073627.68747  22247142.170    22247141.4964   22247147.4344
     -1896.192       -1477.552
   4696879.092 9   3649309.117 9  22020316.232    22020315.967    22020320.965
     -2349.365       -1830.674
  -1755906.077 9  -1361723.00048  21539876.746    21539876.5224   21539881.5244
       265.238         206.679
   2498412.991 9   1928744.51248  21796108.536    21796107.9104   21796112.8574
     -1019.730        -794.595
  -2000243.471 9  -1553449.45448  20944019.203    20944018.7124   20944023.9784
       862.706         672.238
  -6613748.981 9  -5137877.08948  21250556.428    21250556.0154   21250561.4764
      2661.082        2073.570
  -2623257.245 9  -2039365.96147  23849652.445    23849651.9034   23849658.2264
       822.872         641.199
  -6314217.556 9  -4907262.30947  23491909.181    23491908.8634   23491913.7524
      2507.345        1953.775
 96 10 31 17  1  0.0000000  0  8 17 28  3 23 21  1  9 31             0.000571108
   4011398.427 9   3118006.40147  22257979.897    22257979.2564   22257985.2234
     -1901.003       -1481.301
   4767447.526 9   3704297.478 9  22033745.014    22033744.752    22033749.729
     -2355.615       -1835.544
  -1763658.298 9  -1367763.70148  21538401.559    21538401.3394   21538406.3404
       251.122         195.679
   2528980.740 9   1952563.52648  21801925.399    21801924.7704   21801929.6904
     -1018.464        -793.608
  -2026115.002 9  -1573609.08648  20939096.025    20939095.5214   20939100.8164
       861.600         671.377
  -6693459.259 9  -5199988.98548  21235388.089    21235387.6824   21235393.1384
      2652.391        2066.798
  -2647765.266 9  -2058463.10347  23844988.390    23844987.9834   23844994.6044
       810.575         631.617
  -6389291.776 9  -4965761.65747  23477622.866    23477622.6334   23477627.6364
      2497.044        1945.749
 96 10 31 17  1 30.0000000  0  8 17 28  3 23 21  1  9 31             0.000561806
   4068494.340 9   3162496.69547  22268844.903    22268844.2864   22268850.2064
     -1905.888       -1485.108
   4838207.497 9   3759435.087 9  22047210.162    22047209.962    22047214.943
     -2362.151       -1840.637
  -1770979.796 9  -1373468.78048  21537008.337    21537008.1554   21537013.1484
       236.672         184.420
   2559507.864 9   1976350.88848  21807734.569    21807733.9344   21807738.8364
     -1017.187        -792.613
  -2051945.010 9  -1593736.36048  20934180.770    20934180.2744   20934185.5494
       859.781         669.959
  -6772897.877 9  -5261889.19648  21220271.424    21220271.0024   21220276.4674
      2642.982        2059.466
  -2671899.055 9  -2077268.64947  23840396.040    23840395.2864   23840402.1714
       797.883         621.727
  -6464049.736 9  -5024014.57547  23463396.930    23463396.6034   23463401.8324
      2486.292        1937.370
 96 10 31 17  2  0.0000000  0  8 17 28  3 23 21  1  9 31             0.000552395
   4125733.104 9   3207098.30247  22279737.032    22279736.4784   22279742.4634
     -1910.248       -1488.505
   4909160.822 9   3814723.365 9  22060712.174    22060711.974    22060716.949
     -2368.164       -1845.322
  -1777880.909 9  -1378846.28248  21535695.118    21535694.9314   21535699.9204
       223.244         173.956
   2589989.097 9   2000102.49148  21813534.992    21813534.3624   21813539.2324
     -1015.037        -790.938
  -2077717.629 9  -1613818.91448  20929276.416    20929275.9304   20929281.1884
       858.303         668.808
  -6852048.036 9  -5323564.63448  21205209.608    21205209.2184   21205214.6974
      2633.463        2052.049
  -2695658.995 9  -2095782.84147  23835874.242    23835873.7534   23835880.9844
       785.987         612.457
  -6538496.736 9  -5082025.23047  23449230.157    23449229.8424   23449234.9694
      2476.630        1929.841
 96 10 31 17  2 30.0000000  0  8 17 28  3 23 21  1  9 31             0.000542874
   4183133.168 9   3251825.60147  22290659.921    22290659.3424   22290665.4074
     -1916.752       -1493.573
   4980310.650 9   3870164.757 9  22074251.587    22074251.390    22074256.367
     -2375.453       -1851.002
  -1784353.188 9  -1383889.62948  21534463.529    21534463.3124   21534468.3334
       207.786         161.911
   2620430.851 9   2023823.32648  21819327.879    21819327.2464   21819332.1284
     -1014.660        -790.644
  -2103420.805 9  -1633847.35948  20924385.261    20924384.7794   20924390.0374
       854.963         666.205
  -6930880.107 9  -5384992.21448  21190208.350    21190207.9634   21190213.4354
      2621.889        2043.030
  -2719043.328 9  -2114004.38547  23831424.302    23831423.6554   23831431.2744
       772.922         602.277
  -6612626.609 9  -5139788.75447  23435123.691    23435123.2664   23435128.3934
      2465.033        1920.805
 96 10 31 17  3  0.0000000  0  8 17 28  3 23 21  1  9 31             0.000533236
   4240708.571 9   3296689.51647  22301616.179    22301615.5664   22301621.6654
     -1921.946       -1497.620
   5051658.296 9   3925760.294 9  22087828.657    22087828.445    22087833.443
     -2381.416       -1855.649
  -1790377.162 9  -1388583.64848  21533317.216    21533317.0284   21533322.0514
       193.611         150.866
   2650843.445 9   2047521.44448  21825115.206    21825114.6084   21825119.4784
     -1013.134        -789.455
  -2129036.558 9  -1653807.68048  20919510.800    20919510.3084   20919515.5214
       852.601         664.364
  -7009384.016 9  -5446164.07848  21175269.597    21175269.1984   21175274.6294
      2611.406        2034.862
  -2742064.628 9  -2131942.99347  23827042.948    23827042.5074   23827050.4384
       761.443         593.332
  -6686428.105 9  -5197296.40346  23421079.918    23421079.4434   23421084.4924
      2454.405        1912.523
 96 10 31 17  3 30.0000000  0  8 17 28  3 23 21  1  9 31             0.000523494
   4298456.714 9   3341688.04447  22312605.319    22312604.6944   22312610.7894
     -1927.941       -1502.292
   5123195.961 9   3981503.894 9  22101441.923    22101441.661    22101446.684
     -2387.717       -1860.559
  -1795959.349 9  -1392933.41648  21532255.011    21532254.8084   21532259.8664
       178.593         139.163
   2681225.575 9   2071195.82148  21830896.741    21830896.1774   21830901.0234
     -1012.405        -788.887
  -2154580.719 9  -1673712.21848  20914649.937    20914649.4474   20914654.6634
       850.318         662.585
  -7087566.146 9  -5507085.20748  21160392.077    21160391.6614   21160397.0504
      2600.686        2026.509
  -2764728.061 9  -2149602.77047  23822730.224    23822729.8964   23822737.5524
       749.526         584.046
  -6759883.981 9  -5254534.77647  23407101.712    23407101.3474   23407106.2074
      2442.642        1903.357
 96 10 31 17  4  0.0000000  0  8 17 28  3 23 21  1  9 31             0.000513660
   4356397.062 9   3386836.33847  22323631.036    22323630.4224   22323636.5414
     -1934.582       -1507.466
   5194928.799 9   4037399.583 9  22115092.286    22115091.994    22115097.038
     -2394.304       -1865.691
  -1801082.918 9  -1396925.82148  21531280.086    21531279.8574   21531284.9174
       163.059         127.059
   2711592.518 9   2094858.36348  21836675.419    21836674.8224   21836679.6534
     -1011.843        -788.449
  -2180047.724 9  -1693556.63248  20909803.752    20909803.2604   20909808.4624
       847.611         660.476
  -7165411.704 9  -5567744.07148  21145578.601    21145578.1754   21145583.5364
      2589.144        2017.515
  -2787023.442 9  -2166975.74247  23818487.906    23818487.4444   23818494.5164
       737.031         574.310
  -6832975.208 9  -5311488.98246  23393192.867    23393192.5134   23393197.3334
      2430.069        1893.560
 96 10 31 17  4 30.0000000  0  8 17 28  3 23 21  1  9 31             0.000503743
   4414534.266 9   3432138.02547  22334694.209    22334693.5644   22334699.7494
     -1940.941       -1512.422
   5266857.468 9   4093447.863 9  22128779.861    22128779.570    22128784.661
     -2400.870       -1870.808
  -1805738.345 9  -1400553.44048  21530394.175    21530393.9724   21530399.0574
       147.473         114.914
   2741947.428 9   2118511.53348  21842451.783    21842451.1924   21842455.9844
     -1011.602        -788.261
  -2205429.156 9  -1713334.36648  20904973.870    20904973.3294   20904978.5274
       844.556         658.096
  -7242913.090 9  -5628134.75148  21130830.587    21130830.1804   21130835.5364
      2577.837        2008.704
  -2808940.087 9  -2184053.61847  23814317.491    23814317.0854   23814323.6844
       724.317         564.403
  -6905681.243 9  -5368142.99747  23379357.377    23379357.0964   23379362.0304
      2417.109        1883.462
 96 10 31 17  5  0.0000000  0  8 17 28  3 23 21  1  9 31             0.000493735
   4472850.934 9   3477579.55547  22345791.405    22345790.8494   22345797.0834
     -1946.794       -1516.982
   5338980.001 9   4149647.203 9  22142504.362    22142504.064    22142509.174
     -2407.289       -1875.810
  -1809936.375 9  -1403824.64748  21529595.348    21529595.1344   21529600.2214
       132.405         103.173
   2772283.453 9   2142149.98848  21848224.549    21848223.9604   21848228.7614
     -1010.703        -787.561
  -2230720.459 9  -1733041.87348  20900161.040    20900160.5394   20900165.7194
       841.766         655.922
  -7320083.251 9  -5688267.33348  21116145.608    21116145.1834   21116150.5554
      2566.914        2000.193
  -2830479.843 9  -2200837.79947  23810218.685    23810218.3964   23810224.7514
       711.662         554.542
  -6978007.993 9  -5424501.48347  23365593.937    23365593.6814   23365598.6424
      2404.682        1873.778
 96 10 31 17  5 30.0000000  0  8 17 28  3 23 21  1  9 31             0.000483645
   4531350.088 9   3523163.27747  22356923.484    22356922.9114   22356929.1294
     -1952.792       -1521.656
   5411299.106 9   4205999.721 9  22156266.249    22156265.993    22156271.102
     -2413.589       -1880.719
  -1813674.995 9  -1406737.87448  21528883.875    21528883.6754   21528888.7894
       117.121          91.263
   2802592.749 9   2165767.61148  21853992.251    21853991.6644   21853996.4714
     -1009.521        -786.640
  -2255933.490 9  -1752688.38448  20895363.133    20895362.6634   20895367.8274
       839.391         654.071
  -7396927.196 9  -5748145.72348  21101522.668    21101522.2614   21101527.6524
      2556.276        1991.903
  -2851637.849 9  -2217324.52447  23806192.550    23806192.3624   23806198.5334
       699.304         544.912
  -7049962.577 9  -5480569.97147  23351901.421    23351901.0704   23351906.0724
      2392.767        1864.494
 96 10 31 17  6  0.0000000  0  8 17 28  3 23 21  1  9 31             0.000473465
   4590035.836 9   3568892.39847  22368091.097    22368090.5064   22368096.6784
     -1958.921       -1526.432
   5483817.746 9   4262507.720 9  22170066.124    22170065.879    22170071.004
     -2420.296       -1885.945
  -1816945.394 9  -1409286.25348  21528261.544    21528261.3584   21528266.4684
       101.514          79.102
   2832870.809 9   2189360.89648  21859754.011    21859753.3884   21859758.2154
     -1008.388        -785.757
  -2281059.945 9  -1772267.43448  20890581.766    20890581.2674   20890586.4304
       836.376         651.721
  -7473441.001 9  -5807766.86148  21086962.535    21086962.1384   21086967.5494
      2545.337        1983.379
  -2872419.948 9  -2233518.33947  23802237.994    23802237.8364   23802243.8334
       686.792         535.163
  -7121553.079 9  -5536354.77747  23338278.336    23338277.8554   23338282.9754
      2380.514        1854.946
 96 10 31 17  6 30.0000000  0  8 17 28  3 23 21  1  9 31             0.000463191
   4648899.238 9   3614759.95647  22379292.488    22379291.8784   22379298.0864
     -1965.068       -1531.222
   5556532.425 9   4319168.475 9  22183903.276    22183903.055    22183908.207
     -2427.074       -1891.226
  -1819751.768 9  -1411473.05548  21527727.533    21527727.3544   21527732.4364
        85.780          66.841
   2863118.352 9   2212930.40448  21865509.906    21865509.3004   21865514.1174
     -1007.895        -785.373
  -2306102.966 9  -1791781.47848  20885816.296    20885815.7584   20885820.9184
       833.554         649.523
  -7549639.747 9  -5867142.49648  21072462.401    21072461.9894   21072467.4014
      2534.826        1975.189
  -2892831.628 9  -2249423.51547  23798354.072    23798353.7704   23798359.7584
       674.320         525.444
  -7192788.271 9  -5591862.72147  23324722.641    23324722.3414   23324727.4264
      2368.636        1845.690
 96 10 31 17  7  0.0000000  0  8 17 28  3 23 21  1  9 31             0.000452835
   4707955.682 9   3660777.93147  22390530.549    22390529.9624   22390536.1784
     -1971.779       -1536.451
   5629450.759 9   4375987.917 9  22197779.143    22197778.953    22197784.172
     -2433.890       -1896.538
  -1822078.535 9  -1413286.13948  21527284.838    21527284.6374   21527289.7104
        69.499          54.155
   2893355.359 9   2236491.70048  21871263.770    21871263.1854   21871268.0174
     -1007.646        -785.179
  -2331072.570 9  -1811238.31148  20881064.720    20881064.1874   20881069.3574
       831.426         647.864
  -7625521.230 9  -5926270.91148  21058022.682    21058022.2664   21058027.6514
      2524.120        1966.847
  -2912864.266 9  -2265033.34347  23794542.160    23794541.6234   23794547.7054
       661.325         515.318
  -7263670.661 9  -5647095.76447  23311234.237    23311233.8774   23311238.8774
      2356.792        1836.461
 96 10 31 17  7 30.0000000  0  8 17 28  3 23 21  1  9 31             0.000442427
   4767223.362 9   3706960.49347  22401808.784    22401808.2524   22401814.5264
     -1979.173       -1542.213
   5702580.586 9   4432972.161 9  22211695.319    22211695.124    22211700.367
     -2441.244       -1902.268
  -1823903.853 9  -1414708.48248  21526937.526    21526937.3044   21526942.3624
        52.368          40.806
   2923591.583 9   2260052.38248  21877017.500    21877016.9494   21877021.8054
     -1007.966        -785.428
  -2355970.276 9  -1830639.12148  20876326.846    20876326.3374   20876331.4884
       828.491         645.577
  -7701068.372 9  -5985138.80148  21043646.570    21043646.1464   21043651.5004
      2512.414        1957.725
  -2932487.010 9  -2280323.79747  23790807.626    23790807.3774   23790813.5154
       646.936         504.106
  -7334172.073 9  -5702031.93547  23297818.495    23297818.1094   23297823.1584
      2343.306        1825.953
 96 10 31 17  8  0.0000000  0  8 17 28  3 23 21  1  9 31             0.000431973
   4826694.062 9   3753301.25247  22413125.798    22413125.1964   22413131.4954
     -1985.432       -1547.090
   5775922.349 9   4490121.546 9  22225651.842    22225651.630    22225656.907
     -2448.085       -1907.599
  -1825227.924 9  -1415740.23948  21526685.552    21526685.3764   21526690.3864
        36.102          28.131
   2953832.005 9   2283616.33848  21882772.067    21882771.5164   21882776.4044
     -1008.002        -785.456
  -2380783.629 9  -1849974.19748  20871604.996    20871604.5134   20871609.6744
       825.738         643.432
  -7776267.269 9  -6043735.33148  21029336.684    21029336.2634   21029341.6154
      2500.926        1948.774
  -2951676.797 9  -2295276.89347  23787155.522    23787155.5834   23787161.7784
       632.421         492.796
  -7404271.782 9  -5756655.07947  23284478.871    23284478.5664   23284483.4594
      2330.102        1815.664
 96 10 31 17  8 30.0000000  0  8 17 28  3 23 21  1  9 31             0.000421466
   4886351.452 9   3799787.50647  22424478.303    22424477.7184   22424483.9474
     -1991.558       -1551.863
   5849468.430 9   4547430.143 9  22239647.225    22239647.022    22239652.295
     -2454.758       -1912.798
  -1826072.525 9  -1416398.38948  21526524.828    21526524.6514   21526529.6614
        20.404          15.899
   2984075.916 9   2307183.00748  21888527.341    21888526.7404   21888531.6704
     -1007.904        -785.380
  -2405516.089 9  -1869246.24548  20866898.506    20866898.0574   20866903.2444
       823.277         641.514
  -7851116.508 9  -6102059.39848  21015093.322    21015092.9224   21015098.2414
      2489.212        1939.646
  -2970422.504 9  -2309883.96147  23783588.809    23783588.6604   23783594.6334
       617.597         481.244
  -7473979.004 9  -5810972.40147  23271213.964    23271213.6244   23271218.5364
      2317.146        1805.568
 96 10 31 17  9  0.0000000  0  8 17 28  3 23 21  1  9 31             0.000410903
   4946188.578 9   3846413.80347  22435865.032    22435864.4114   22435870.5894
     -1997.722       -1556.666
   5923205.786 9   4604887.781 9  22253679.005    22253678.793    22253684.085
     -2461.333       -1917.922
  -1826454.609 9  -1416696.13248  21526452.162    21526451.9684   21526456.9754
         4.738           3.692
   3014298.302 9   2330732.90448  21894278.516    21894277.9134   21894282.8644
     -1007.167        -784.805
  -2430177.013 9  -1888462.55348  20862205.703    20862205.2524   20862210.4224
       820.464         639.322
  -7925617.474 9  -6160112.08748  21000916.256    21000915.8674   21000921.1894
      2477.192        1930.279
  -2988726.069 9  -2324146.48647  23780106.110    23780105.8374   23780111.6294
       602.392         469.396
  -7543291.592 9  -5864982.23147  23258024.224    23258023.8974   23258028.6864
      2303.419        1794.872
 96 10 31 17  9 30.0000000  0  8 17 28  3 23 21  1  9 31             0.000400278
   5006208.753 9   3893182.73747  22447286.515    22447285.9064   22447292.0674
     -2003.981       -1561.544
   5997140.117 9   4662498.908 9  22267748.272    22267748.042    22267753.332
     -2467.951       -1923.079
  -1826367.928 9  -1416628.61248  21526468.691    21526468.5004   21526473.4954
       -10.957          -8.538
   3044497.973 9   2354265.09848  21900025.359    21900024.7594   21900029.7514
     -1006.634        -784.390
  -2454742.459 9  -1907604.45348  20857531.073    20857530.6294   20857535.7694
       816.972         636.601
  -7999751.183 9  -6217878.59848  20986809.064    20986808.6704   20986814.0084
      2464.713        1920.556
  -3006584.170 9  -2338061.89147  23776707.733    23776707.5664   23776713.3114
       587.978         458.165
  -7612193.345 9  -5918671.86547  23244912.591    23244912.2304   23244917.3144
      2289.802        1784.261
 96 10 31 17 10  0.0000000  0  8 17 28  3 23 21  1  9 31             0.000389580
   5066429.814 9   3940108.19747  22458746.189    22458745.6084   22458751.8244
     -2011.230       -1567.192
   6071278.774 9   4720269.244 9  22281856.437    22281856.183    22281861.476
     -2474.999       -1928.571
  -1825802.620 9  -1416188.12948  21526576.288    21526576.0994   21526581.0994
       -27.120         -21.132
   3074701.735 9   2377800.47948  21905772.977    21905772.3384   21905777.3374
     -1007.384        -784.975
  -2479198.871 9  -1926661.39848  20852877.232    20852876.7644   20852881.8854
       813.006         633.511
  -8073504.338 9  -6275348.57548  20972774.304    20972773.9084   20972779.2464
      2451.764        1910.465
  -3024014.199 9  -2351643.76147  23773390.710    23773390.4684   23773396.3564
       573.718         447.053
  -7680686.981 9  -5972043.52647  23231878.639    23231878.2654   23231883.2794
      2276.053        1773.548
 96 10 31 17 10 30.0000000  0  8 17 28  3 23 21  1  9 31             0.000378809
   5126869.017 9   3987203.63847  22470247.478    22470246.8394   22470253.1014
     -2018.150       -1572.584
   6145614.702 9   4778193.299 9  22296002.158    22296001.887    22296007.180
     -2480.915       -1933.181
  -1824758.015 9  -1415374.16648  21526775.132    21526774.9304   21526779.9074
       -42.817         -33.364
   3104919.435 9   2401346.71948  21911523.242    21911522.6184   21911527.6114
     -1007.301        -784.910
  -2503550.228 9  -1945636.48148  20848243.269    20848242.8274   20848247.9764
       810.190         631.317
  -8146882.246 9  -6332526.14948  20958810.916    20958810.5264   20958815.8864
      2439.947        1901.257
  -3041040.126 9  -2364910.73347  23770150.665    23770150.4344   23770156.2854
       561.140         437.252
  -7748775.285 9  -6025099.34847  23218922.119    23218921.6224   23218926.5634
      2262.910        1763.306
 96 10 31 17 11  0.0000000  0  8 17 28  3 23 21  1  9 31             0.000367966
   5187532.083 9   4034473.52247  22481791.307    22481790.7104   22481796.9504
     -2025.657       -1578.434
   6220144.312 9   4836268.280 9  22310184.759    22310184.461    22310189.757
     -2487.529       -1938.334
  -1823218.570 9  -1414174.61648  21527068.108    21527067.8974   21527072.8624
       -59.737         -46.548
   3135155.129 9   2424906.98248  21917276.975    21917276.3564   21917281.3124
     -1008.342        -785.721
  -2527800.240 9  -1964532.59048  20843628.629    20843628.1914   20843633.3564
       806.617         628.533
  -8219887.001 9  -6389412.95748  20944918.603    20944918.2104   20944923.5474
      2427.130        1891.270
  -3057674.462 9  -2377872.54447  23766985.541    23766985.1864   23766990.4074
       547.941         426.967
  -7816452.612 9  -6077834.92447  23206043.561    23206043.0794   23206047.9774
      2249.231        1752.648
 96 10 31 17 11 30.0000000  0  8 17 28  3 23 21  1  9 31             0.000357040
   5248411.980 9   4081912.37347  22493376.454    22493375.8134   22493382.0724
     -2033.292       -1584.383
   6294866.041 9   4894492.960 9  22324403.937    22324403.600    22324408.890
     -2494.171       -1943.510
  -1821171.339 9  -1412579.38648  21527457.711    21527457.5064   21527462.4414
       -76.979         -59.984
   3165421.008 9   2448490.76648  21923036.451    21923035.7934   21923040.7464
     -1009.571        -786.679
  -2551946.632 9  -1983347.96048  20839033.724    20839033.2934   20839038.4464
       802.886         625.625
  -8292504.344 9  -6445997.88348  20931100.018    20931099.6104   20931104.9614
      2413.859        1880.929
  -3073918.363 9  -2390530.11447  23763894.513    23763894.1944   23763899.1444
       534.526         416.514
  -7883733.605 9  -6130261.68347  23193240.484    23193239.9574   23193244.7484
      2235.788        1742.172
 96 10 31 17 12  0.0000000  0  8 17 28  3 23 21  1  9 31             0.000346034
   5309505.592 9   4129517.74147  22505002.155    22505001.5444   22505007.7694
     -2040.073       -1589.667
   6369771.793 9   4952861.036 9  22338658.053    22338657.743    22338663.058
     -2500.042       -1948.085
  -1818624.129 9  -1410594.56348  21527942.442    21527942.2174   21527947.2054
       -93.275         -72.682
   3195705.776 9   2472089.27648  21928799.453    21928798.8184   21928803.7524
     -1009.835        -786.884
  -2575996.840 9  -2002088.38048  20834457.123    20834456.7014   20834461.8154
       799.745         623.178
  -8364741.702 9  -6502286.71648  20917353.726    20917353.3224   20917358.6664
      2401.401        1871.222
  -3089759.058 9  -2402873.56147  23760879.830    23760879.6544   23760884.7934
       520.931         405.920
  -7950621.457 9  -6182382.08947  23180512.030    23180511.6064   23180516.3704
      2222.788        1732.043
 96 10 31 17 12 30.0000000  0  8 17 28  3 23 21  1  9 31             0.000334948
   5370801.634 9   4177280.85147  22516666.364    22516665.7694   22516672.0184
     -2045.711       -1594.061
   6444860.331 9   5011371.539 9  22352946.948    22352946.627    22352952.007
     -2505.310       -1952.190
  -1815578.421 9  -1408221.30648  21528521.999    21528521.7954   21528526.7864
      -109.242         -85.124
   3226000.886 9   2495695.84548  21934564.402    21934563.7934   21934568.7314
     -1009.242        -786.422
  -2599945.011 9  -2020749.28948  20829899.955    20829899.5084   20829904.5974
       797.318         621.287
  -8436591.062 9  -6558273.21348  20903681.250    20903680.8394   20903686.1814
      2389.019        1861.573
  -3105180.704 9  -2414890.43247  23757945.105    23757945.0054   23757950.0694
       507.639         395.563
  -8017119.404 9  -6234198.65647  23167857.854    23167857.4584   23167862.2724
      2210.822        1722.718
 96 10 31 17 13  0.0000000  0  8 17 28  3 23 21  1  9 31             0.000323769
   5432272.276 9   4225180.00247  22528363.886    22528363.2744   22528369.5404
     -2052.451       -1599.312
   6520120.819 9   5070016.027 9  22367268.531    22367268.240    22367273.675
     -2512.122       -1957.498
  -1812045.684 9  -1405468.54048  21529194.264    21529194.0624   21529199.0664
      -126.341         -98.448
   3256289.087 9   2519297.03248  21940328.068    21940327.4494   21940332.3804
     -1009.982        -786.999
  -2623807.559 9  -2039343.48148  20825359.068    20825358.6444   20825363.6684
       793.447         618.270
  -8508049.705 9  -6613955.25848  20890083.103    20890082.6964   20890088.0424
      2374.864        1850.543
  -3120182.637 9  -2426580.25447  23755090.786    23755090.4494   23755095.1964
       492.389         383.680
  -8083245.644 9  -6285725.62147  23155274.509    23155274.0884   23155278.8234
      2197.362        1712.230
 96 10 31 17 13 30.0000000  0  8 17 28  3 23 21  1  9 31             0.000312507
   5493921.899 9   4273218.62647  22540095.447    22540094.8174   22540101.0874
     -2058.569       -1604.080
   6595559.317 9   5128799.228 9  22381624.008    22381623.746    22381629.219
     -2518.033       -1962.104
  -1808027.318 9  -1402337.36248  21529958.960    21529958.7444   21529963.7744
      -142.293        -110.878
   3286571.930 9   2542894.04248  21946090.639    21946090.0764   21946095.0204
     -1009.828        -786.879
  -2647579.604 9  -2057867.14948  20820835.394    20820834.9674   20820840.0064
       790.459         615.942
  -8579117.308 9  -6669332.58948  20876559.369    20876558.9634   20876564.3184
      2362.273        1840.732
  -3134752.501 9  -2437933.39747  23752318.130    23752317.8414   23752322.4144
       478.003         372.470
  -8148985.588 9  -6336951.53847  23142764.523    23142764.1334   23142768.9324
      2184.077        1701.878
 96 10 31 17 14  0.0000000  0  8 17 28  3 23 21  1  9 31             0.000301172
   5555742.160 9   4321390.22247  22551859.501    22551858.8644   22551865.1644
     -2063.369       -1607.820
   6671158.560 9   5187707.681 9  22396010.148    22396009.830    22396015.326
     -2522.659       -1965.708
  -1803556.160 9  -1398853.35648  21530809.832    21530809.6104   21530814.6184
      -156.427        -121.891
   3316839.658 9   2566479.27648  21951850.464    21951849.8654   21951854.8304
     -1008.883        -786.143
  -2671281.774 9  -2076336.36548  20816325.068    20816324.6084   20816329.6384
       789.000         614.805
  -8649830.464 9  -6724433.72948  20863103.076    20863102.6644   20863108.0324
      2351.119        1832.041
  -3148902.476 9  -2448959.38147  23749625.383    23749625.1994   23749629.8464
       464.768         362.157
  -8214330.293 9  -6387869.46147  23130329.801    23130329.3414   23130334.3794
      2171.340        1691.953
 96 10 31 17 14 30.0000000  0  8 17 28  3 23 21  1  9 31             0.000289765
   5617714.378 9   4369680.22047  22563652.423    22563651.7774   22563658.1374
     -2068.281       -1611.648
   6746910.522 9   5246735.137 9  22410425.328    22410425.005    22410430.493
     -2527.536       -1969.509
  -1798652.385 9  -1395032.25148  21531743.033    21531742.7794   21531747.8394
      -170.517        -132.870
   3347091.626 9   2590052.23348  21957607.329    21957606.6824   21957611.6294
     -1007.980        -785.439
  -2694930.209 9  -2094763.71248  20811824.932    20811824.4854   20811829.4894
       787.473         613.615
  -8720192.525 9  -6779261.28748  20849713.605    20849713.2044   20849718.5544
      2339.675        1823.123
  -3162645.715 9  -2459668.42247  23747010.297    23747009.9604   23747014.7774
       451.248         351.622
  -8279271.024 9  -6438472.63747  23117972.011    23117971.5744   23117976.5264
      2157.659        1681.293
 96 10 31 17 15  0.0000000  0  8 17 28  3 23 21  1  9 31             0.000278301
   5679842.423 9   4418091.64347  22575475.035    22575474.3754   22575480.7754
     -2073.731       -1615.894
   6822811.003 9   5305878.319 9  22424868.728    22424868.422    22424873.903
     -2532.525       -1973.396
  -1793330.340 9  -1390885.21548  21532755.779    21532755.5624   21532760.6534
      -184.418        -143.702
   3377316.801 9   2613604.30548  21963358.964    21963358.3254   21963363.2794
     -1007.129        -784.776
  -2718527.845 9  -2113151.47948  20807334.464    20807334.0254   20807339.0024
       785.602         612.157
  -8790214.364 9  -6833823.73748  20836388.922    20836388.4754   20836393.8334
      2328.466        1814.389
  -3175971.179 9  -2470051.92247  23744474.580    23744474.0584   23744479.1684
       437.020         340.535
  -8343781.001 9  -6488740.15947  23105696.216    23105695.8034   23105700.7084
      2142.893        1669.787
 96 10 31 17 15 30.0000000  0  8 17 28  3 23 21  1  9 31             0.000266790
   5742139.766 9   4466634.98647  22587329.856    22587329.2044   22587335.6044
     -2079.393       -1620.306
   6898854.030 9   5365132.579 9  22439339.220    22439338.932    22439344.461
     -2536.867       -1976.779
  -1787591.123 9  -1386413.11448  21533847.953    21533847.7084   21533852.8144
      -197.943        -154.241
   3407517.804 9   2637137.54448  21969105.984    21969105.3954   21969110.3874
     -1006.207        -784.057
  -2742066.229 9  -2131493.07948  20802855.262    20802854.8014   20802859.8094
       783.784         610.741
  -8859905.270 9  -6888128.31948  20823127.157    20823126.7334   20823132.0784
      2317.612        1805.931
  -3188874.592 9  -2480106.55747  23742018.884    23742018.4374   23742023.9524
       423.270         329.821
  -8407844.943 9  -6538660.12147  23093505.301    23093504.8874   23093509.7814
      2128.130        1658.283
 96 10 31 17 16  0.0000000  0  8 17 28  3 23 21  1  9 31             0.000255228
   5804612.287 9   4515314.83747  22599218.018    22599217.3734   22599223.7154
     -2086.036       -1625.483
   6975033.995 9   5424493.545 9  22453835.873    22453835.506    22453841.063
     -2542.403       -1981.093
  -1781440.876 9  -1381620.72448  21535018.331    21535018.1034   21535023.2174
      -212.824        -165.837
   3437697.940 9   2660654.52148  21974849.093    21974848.4874   21974853.4984
     -1006.369        -784.184
  -2765540.966 9  -2149785.08148  20798388.210    20798387.7184   20798392.7594
       780.549         608.220
  -8929254.357 9  -6942166.54648  20809930.488    20809930.0434   20809935.3954
      2304.882        1796.012
  -3201354.130 9  -2489830.89447  23739644.175    23739643.7204   23739649.5424
       408.242         318.111
  -8471460.406 9  -6588230.61647  23081399.742    23081399.3224   23081404.2054
      2112.425        1646.045
 96 10 31 17 16 30.0000000  0  8 17 28  3 23 21  1  9 31             0.000243598
   5867254.907 9   4564127.23047  22611138.581    22611137.9574   22611144.2104
     -2091.776       -1629.955
   7051348.672 9   5483959.477 9  22468358.112    22468357.741    22468363.292
     -2546.607       -1984.369
  -1774860.896 9  -1376493.48548  21536270.478    21536270.2354   21536275.3284
      -227.427        -177.216
   3467850.345 9   2684149.88548  21980586.935    21980586.3264   21980591.3774
     -1005.147        -783.231
  -2788943.442 9  -2168020.77948  20793934.894    20793934.3934   20793939.4054
       778.167         606.364
  -8998251.007 9  -6995930.14748  20796800.875    20796800.4264   20796805.7334
      2293.524        1787.162
  -3213415.138 9  -2499229.10147  23737349.135    23737348.6204   23737354.5084
       394.540         307.434
  -8534646.109 9  -6637466.21147  23069375.930    23069375.4614   23069380.4414
      2098.643        1635.306
 96 10 31 17 17  0.0000000  0  8 17 28  3 23 21  1  9 31             0.000231890
   5930078.027 9   4613080.27947  22623093.466    22623092.8784   22623099.1474
     -2097.101       -1634.105
   7127791.804 9   5543525.505 9  22482904.804    22482904.447    22482909.989
     -2550.316       -1987.259
  -1767827.844 9  -1371013.19948  21537608.842    21537608.6144   21537613.7024
      -242.360        -188.852
   3497977.051 9   2707625.22648  21986319.919    21986319.2784   21986324.3304
     -1004.054        -782.380
  -2812262.218 9  -2186191.25448  20789497.494    20789497.0154   20789502.0064
       775.775         604.500
  -9066904.080 9  -7049426.02948  20783736.625    20783736.1744   20783741.4674
      2282.573        1778.628
  -3225068.440 9  -2508309.59547  23735131.613    23735131.1294   23735136.7954
       381.705         297.432
  -8597427.558 9  -6686386.81547  23057429.065    23057428.6244   23057433.5514
      2086.095        1625.529
 96 10 31 17 17 30.0000000  0  8 17 28  3 23 21  1  9 31             0.000220091
   5993074.515 9   4662168.40847  22635081.318    22635080.7284   22635087.0344
     -2102.582       -1638.376
   7204358.690 9   5603187.970 9  22497475.090    22497474.696    22497480.237
     -2554.171       -1990.263
  -1760328.699 9  -1365169.72548  21539035.927    21539035.6544   21539040.7284
      -257.534        -200.676
   3528081.407 9   2731083.14948  21992048.544    21992047.9424   21992053.0444
     -1002.771        -781.380
  -2835498.619 9  -2204297.54148  20785075.724    20785075.2704   20785080.2784
       773.354         602.614
  -9135211.652 9  -7102652.69048  20770738.137    20770737.6804   20770742.9624
      2271.151        1769.728
  -3236330.712 9  -2517085.36947  23732988.612    23732988.1854   23732993.6524
       368.988         287.523
  -8659827.526 9  -6735010.16247  23045554.736    23045554.3434   23045559.1914
      2073.861        1615.995
 96 10 31 17 18  0.0000000  0  8 17 28  3 23 21  1  9 31             0.000208189
   6056225.777 9   4711377.13847  22647098.681    22647098.0304   22647104.3144
     -2107.840       -1642.473
   7281042.516 9   5662941.552 9  22512067.574    22512067.205    22512072.741
     -2558.386       -1993.548
  -1752368.444 9  -1358966.94248  21540550.686    21540550.4284   21540555.5114
      -273.432        -213.064
   3558140.945 9   2754506.14448  21997768.727    21997768.0934   21997773.2214
     -1001.537        -780.418
  -2858659.160 9  -2222344.72248  20780668.435    20780667.9544   20780672.9654
       770.356         600.277
  -9203173.489 9  -7155609.94648  20757805.388    20757804.9484   20757810.2394
      2259.231        1760.440
  -3247207.228 9  -2525560.58747  23730918.939    23730918.5004   23730924.0964
       355.847         277.283
  -8721862.979 9  -6783349.49747  23033749.839    23033749.4744   23033754.1994
      2061.404        1606.289
 96 10 31 17 18 30.0000000  0  8 17 28  3 23 21  1  9 31             0.000196176
   6119524.166 9   4760700.51347  22659144.009    22659143.3424   22659149.6424
     -2112.898       -1646.414
   7357838.565 9   5722782.583 9  22526681.354    22526681.074    22526686.601
     -2562.087       -1996.431
  -1743945.477 9  -1352403.60848  21542153.531    21542153.2644   21542158.3894
      -288.788        -225.030
   3588153.981 9   2777892.91348  22003480.030    22003479.4114   22003484.5374
     -1000.148        -779.336
  -2881741.777 9  -2240331.17748  20776275.988    20776275.4884   20776280.5054
       767.676         598.189
  -9270785.782 9  -7208294.82948  20744939.163    20744938.7174   20744944.0414
      2247.380        1751.205
  -3257700.693 9  -2533737.30247  23728922.199    23728921.7944   23728927.2974
       342.905         267.199
  -8783539.353 9  -6831409.00147  23022013.228    23022012.8624   23022017.6084
      2049.365        1596.908
 96 10 31 17 19  0.0000000  0  8 17 28  3 23 21  1  9 31             0.000184060
   6182975.936 9   4810143.41447  22671218.524    22671217.9044   22671224.0894
     -2117.601       -1650.079
   7434743.185 9   5782708.213 9  22541315.865    22541315.599    22541321.114
     -2565.333       -1998.961
  -1735075.975 9  -1345492.32248  21543841.354    21543841.1254   21543846.2104
      -302.841        -235.980
   3618125.649 9   2801247.43348  22009183.483    22009182.8074   22009187.9714
      -998.416        -777.986
  -2904745.172 9  -2258255.90848  20771898.605    20771898.0864   20771903.1014
       765.616         596.584
  -9338031.463 9  -7260694.04248  20732142.714    20732142.2854   20732147.5984
      2235.191        1741.707
  -3267805.612 9  -2541611.26647  23726999.390    23726998.9704   23727004.2514
       330.143         257.254
  -8844843.863 9  -6879178.74347  23010347.314    23010346.9364   23010351.7274
      2036.978        1587.255
 96 10 31 17 19 30.0000000  0  8 17 28  3 23 21  1  9 31             0.000171830
   6246581.366 9   4859706.04947  22683322.355    22683321.6824   22683327.8344
     -2122.471       -1653.874
   7511750.429 9   5842713.816 9  22555969.941    22555969.672    22555975.143
     -2568.239       -2001.225
  -1725787.467 9  -1338254.53948  21545608.946    21545608.6984   21545613.7564
      -316.126        -246.332
   3648046.842 9   2824562.63548  22014877.247    22014876.6344   22014881.7204
      -996.140        -776.213
  -2927686.930 9  -2276132.60748  20767532.997    20767532.4274   20767537.4434
       764.014         595.336
  -9404899.010 9  -7312798.60548  20719418.259    20719417.8294   20719423.1474
      2222.937        1732.159
  -3277509.036 9  -2549172.37747  23725152.973    23725152.5964   23725157.8934
       317.022         247.030
  -8905762.796 9  -6926648.03847  22998754.839    22998754.4014   22998759.2504
      2024.360        1577.423
 96 10 31 17 20  0.0000000  0  8 17 28  3 23 21  1  9 31             0.000159499
   6310337.105 9   4909385.79947  22695454.713    22695454.0594   22695460.1624
     -2127.504       -1657.795
   7588854.686 9   5902795.005 9  22570642.396    22570642.190    22570647.616
     -2571.674       -2003.902
  -1716091.467 9  -1330699.23048  21547454.027    21547453.7924   21547458.8304
      -329.961        -257.112
   3677920.732 9   2847840.97548  22020562.032    22020561.4414   22020566.5634
      -995.196        -775.477
  -2950572.567 9  -2293965.57048  20763177.984    20763177.4364   20763182.4434
       762.004         593.769
  -9471392.137 9  -7364611.41548  20706765.062    20706764.6374   20706769.9324
      2210.284        1722.299
  -3286812.233 9  -2556421.61947  23723382.458    23723382.1794   23723387.6684
       303.655         236.614
  -8966284.052 9  -6973807.45447  22987237.992    22987237.5534   22987242.4494
      2010.675        1566.760
 96 10 31 17 20 30.0000000  0  8 17 28  3 23 21  1  9 31             0.000147075
   6374246.408 9   4959185.21847  22707616.328    22707615.6814   22707621.7594
     -2132.826       -1661.942
   7666058.721 9   5962953.945 9  22585333.954    22585333.672    22585339.082
     -2575.120       -2006.587
  -1705982.888 9  -1322822.43448  21549377.613    21549377.3674   21549382.4184
      -343.880        -267.958
   3707771.700 9   2871101.44748  22026242.528    22026241.9074   22026247.0254
      -994.670        -775.067
  -2973406.390 9  -2311758.17148  20758832.794    20758832.2704   20758837.3054
       760.334         592.468
  -9537509.308 9  -7416131.27148  20694183.373    20694182.9314   20694188.2374
      2197.709        1712.501
  -3295718.132 9  -2563361.27947  23721687.620    23721687.3154   23721692.9604
       290.145         226.087
  -9026400.403 9  -7020651.37847  22975798.221    22975797.8134   22975802.7794
      1997.115        1556.194
 96 10 31 17 21  0.0000000  0  8 17 28  3 23 21  1  9 31             0.000134565
   6438302.122 9   5009098.71247  22719805.822    22719805.1674   22719811.1994
     -2137.489       -1665.576
   7743357.463 9   6023186.685 9  22600043.497    22600043.173    22600048.573
     -2578.092       -2008.903
  -1695468.248 9  -1314629.22548  21551378.429    21551378.2264   21551383.3204
      -357.136        -278.288
   3737597.104 9   2894342.00348  22031918.109    22031917.5164   22031922.6504
      -993.527        -774.177
  -2996203.871 9  -2329522.44748  20754494.543    20754494.0414   20754499.1134
       759.496         591.815
  -9603264.068 9  -7467368.72648  20681670.636    20681670.1994   20681675.5034
      2186.127        1703.476
  -3304226.823 9  -2569991.43047  23720068.317    23720068.0744   23720073.6374
       276.985         215.832
  -9086110.334 9  -7067178.59647  22964435.833    22964435.4694   22964440.3604
      1983.539        1545.615
 96 10 31 17 21 30.0000000  0  8 17 28  3 23 21  1  9 31             0.000121983
   6502498.456 9   5059121.78147  22732022.047    22732021.3334   22732027.3954
     -2142.213       -1669.257
   7820751.209 9   6083493.452 9  22614771.129    22614770.773    22614776.145
     -2581.468       -2011.534
  -1684540.026 9  -1306113.74948  21553458.035    21553457.8104   21553462.9024
      -371.410        -289.410
   3767392.581 9   2917559.23948  22037588.079    22037587.4574   22037592.5884
      -992.785        -773.599
  -3018961.453 9  -2347255.63148  20750163.896    20750163.4214   20750168.4884
       757.516         590.272
  -9668676.138 9  -7518339.15648  20669223.127    20669222.6924   20669227.9844
      2174.713        1694.582
  -3312331.795 9  -2576306.99047  23718526.060    23718525.8624   23718531.3194
       263.485         205.313
  -9145405.859 9  -7113382.91647  22953152.322    22953151.9574   22953156.7804
      1969.580        1534.738
 96 10 31 17 22  0.0000000  0  8 17 28  3 23 21  1  9 31             0.000109322
   6566825.256 9   5109246.50847  22744262.986    22744262.3034   22744268.3944
     -2146.598       -1672.674
   7898240.849 9   6143874.941 9  22629516.990    22629516.617    22629521.984
     -2584.703       -2014.054
  -1673187.575 9  -1297267.70448  21555618.330    21555618.1094   21555623.2594
      -385.628        -300.489
   3797165.930 9   2940759.23248  22043253.809    22043253.1694   22043258.2864
      -992.323        -773.239
  -3041661.627 9  -2364944.08648  20745844.217    20745843.7174   20745848.7884
       755.585         588.768
  -9733750.120 9  -7569046.14148  20656839.964    20656839.5544   20656844.8244
      2163.189        1685.602
  -3320037.742 9  -2582311.63747  23717059.695    23717059.5224   23717064.8234
       249.957         194.772
  -9204291.714 9  -7159268.00547  22941946.704    22941946.3414   22941951.2044
      1955.952        1524.118
 96 10 31 17 22 30.0000000  0  8 17 28  3 23 21  1  9 31             0.000096586
   6631303.511 9   5159489.26747  22756532.746    22756532.1834   22756538.2344
     -2152.368       -1677.170
   7975832.943 9   6204336.265 9  22644282.356    22644281.940    22644287.324
     -2588.412       -2016.944
  -1661405.970 9  -1288087.25148  21557860.358    21557860.1294   21557865.2604
      -400.105        -311.770
   3826929.025 9   2963951.23548  22048917.556    22048916.9374   22048922.0254
      -992.075        -773.045
  -3064292.292 9  -2382578.37448  20741537.760    20741537.2854   20741542.3044
       752.705         586.523
  -9798465.134 9  -7619473.40648  20644525.164    20644524.7214   20644529.9524
      2150.818        1675.962
  -3327322.374 9  -2587987.95347  23715673.737    23715673.3814   23715678.6244
       235.263         183.322
  -9262765.317 9  -7204831.84347  22930819.619    22930819.1724   22930824.1864
      1941.658        1512.980
 96 10 31 17 23  0.0000000  0  8 17 28  3 23 21  1  9 31             0.000083775
   6695941.612 9   5209856.58147  22768833.035    22768832.3944   22768838.4754
     -2157.212       -1680.944
   8053519.872 9   6264871.486 9  22659065.690    22659065.297    22659070.736
     -2590.925       -2018.903
  -1649206.944 9  -1278581.53948  21560181.759    21560181.5404   21560186.6834
      -413.486        -322.197
   3856657.851 9   2987116.53348  22054574.880    22054574.2404   22054579.3194
      -990.039        -771.459
  -3086845.161 9  -2400152.04448  20737246.106    20737245.6144   20737250.6224
       750.575         584.864
  -9862824.450 9  -7669623.50848  20632277.968    20632277.5234   20632282.7504
      2139.483        1667.130
  -3334179.089 9  -2593330.85747  23714368.666    23714368.4244   23714373.8204
       221.636         172.703
  -9320817.150 9  -7250067.04347  22919772.729    22919772.2684   22919777.3064
      1928.209        1502.501
 96 10 31 17 23 30.0000000  0  8 17 28  3 23 21  1  9 31             0.000070880
   6760747.834 9   5260354.89847  22781165.352    22781164.6834   22781170.7114
     -2163.326       -1685.709
   8131293.436 9   6325474.211 9  22673865.498    22673865.139    22673870.637
     -2594.117       -2021.390
  -1636586.928 9  -1268747.78248  21562583.317    21562583.0874   21562588.2254
      -427.943        -333.462
   3886341.629 9   3010246.72948  22060223.573    22060222.8994   22060227.9404
      -989.080        -770.712
  -3109314.393 9  -2417660.54148  20732970.358    20732969.8774   20732974.8784
       747.291         582.305
  -9926821.118 9  -7719491.02648  20620099.788    20620099.3544   20620104.5754
      2126.642        1657.124
  -3340617.314 9  -2598347.62947  23713143.641    23713143.3864   23713148.5434
       207.517         161.702
  -9378457.614 9  -7294981.68647  22908804.057    22908803.6294   22908808.6954
      1914.290        1491.655
 96 10 31 17 24  0.0000000  0  8 17 28  3 23 21  1  9 31             0.000057890
   6825731.410 9   5310991.40847  22793531.408    22793530.6624   22793536.7504
     -2168.948       -1690.089
   8209148.407 9   6386140.382 9  22688680.832    22688680.511    22688686.019
     -2596.152       -2022.976
  -1623553.038 9  -1258591.52748  21565063.651    21565063.4274   21565068.5194
      -440.991        -343.629
   3915987.186 9   3033347.14248  22065864.899    22065864.2614   22065869.3464
      -987.187        -769.237
  -3131703.976 9  -2435106.97548  20728709.837    20728709.3334   20728714.2704
       745.408         580.837
  -9990433.527 9  -7769059.12248  20607994.750    20607994.3004   20607999.5114
      2114.264        1647.478
  -3346647.900 9  -2603046.80047  23711995.854    23711995.6494   23712001.1004
       194.617         151.650
  -9435684.964 9  -7339574.42447  22897914.004    22897913.6304   22897918.6664
      1900.795        1481.139
 96 10 31 17 24 30.0000000  0  8 17 28  3 23 21  1  9 31             0.000044813
   6890908.911 9   5361779.01847  22805934.241    22805933.5614   22805939.7064
     -2175.611       -1695.281
   8287084.699 9   6446869.908 9  22703511.680    22703511.343    22703516.853
     -2599.152       -2025.313
  -1610099.789 9  -1248108.49648  21567623.774    21567623.5354   21567628.5984
      -455.522        -354.952
   3945589.875 9   3056414.15948  22071498.157    22071497.5174   22071502.5554
      -985.857        -768.200
  -3154009.303 9  -2452487.75348  20724465.284    20724464.7984   20724469.7174
       742.069         578.236
 -10053656.810 9  -7818324.00848  20595963.749    20595963.3224   20595968.5074
      2101.173        1637.278
  -3352278.510 9  -2607434.28547  23710924.516    23710924.1974   23710929.7644
       181.228         141.217
  -9492480.805 9  -7383830.92647  22887106.139    22887105.7114   22887110.7134
      1886.004        1469.614
 96 10 31 17 25  0.0000000  0  8 17 28  3 23 21  1  9 31             0.000031647
   6956267.922 9   5412708.07447  22818371.669    22818371.0134   22818377.2024
     -2181.468       -1699.845
   8365102.637 9   6507663.061 9  22718358.046    22718357.712    22718363.221
     -2601.910       -2027.462
  -1596210.482 9  -1237285.68048  21570266.842    21570266.6034   21570271.6644
      -470.300        -366.468
   3975145.234 9   3079444.28648  22077122.314    22077121.7334   22077126.8124
      -984.591        -767.214
  -3176222.129 9  -2469796.44948  20720238.348    20720237.8394   20720242.7514
       738.925         575.786
 -10116493.468 9  -7867287.62148  20584006.347    20584005.9144   20584011.0674
      2088.076        1627.072
  -3357517.825 9  -2611516.88947  23709927.455    23709927.2144   23709932.8274
       168.172         131.043
  -9548842.783 9  -7427749.35947  22876380.847    22876380.3604   22876385.3244
      1871.735        1458.495
 96 10 31 17 25 30.0000000  0  8 17 28  3 23 21  1  9 31             0.000018391
   7021795.481 9   5463768.45947  22830841.245    22830840.5864   22830846.7954
     -2186.768       -1703.975
   8443201.746 9   6568519.462 9  22733219.851    22733219.553    22733225.037
     -2604.570       -2029.535
  -1581884.668 9  -1226122.72348  21572992.980    21572992.7544   21572997.8114
      -484.568        -377.585
   4004672.542 9   3102452.55648  22082741.258    22082740.6124   22082745.7064
      -983.881        -766.661
  -3198342.257 9  -2487032.91648  20716029.021    20716028.5494   20716033.4494
       735.917         573.442
 -10178943.994 9  -7915950.35348  20572122.396    20572121.9764   20572127.1214
      2075.546        1617.309
  -3362364.206 9  -2615293.26847  23709005.633    23709005.2304   23709010.4304
       154.940         120.732
  -9604779.997 9  -7471336.80747  22865736.415    22865735.9444   22865740.8814
      1857.458        1447.370
 96 10 31 17 26  0.0000000  0  8 17 28  3 23 21  1  9 31             0.000005052
   7087472.029 9   5514944.94047  22843339.207    22843338.4914   22843344.6474
     -2191.569       -1707.716
   8521375.993 9   6629434.411 9  22748096.084    22748095.673    22748101.145
     -2606.938       -2031.380
  -1567133.112 9  -1214628.02448  21575800.120    21575799.9054   21575804.9774
      -498.797        -388.673
   4034174.770 9   3125441.28748  22088355.349    22088354.7154   22088359.8394
      -982.800        -765.818
  -3220384.685 9  -2504208.84048  20711834.506    20711834.0374   20711838.9214
       733.731         571.738
 -10241034.125 9  -7964332.26248  20560307.040    20560306.6234   20560311.7344
      2063.973        1608.291
  -3366811.601 9  -2618758.79447  23708158.954    23708158.5514   23708163.8764
       141.569         110.314
  -9660296.622 9  -7514596.51947  22855172.000    22855171.5564   22855176.4114
      1843.794        1436.723
 96 10 31 17 26 30.0000000  0  8 17 28  3 23 21  1  9 31            -0.000008363
   7153282.449 9   5566225.74147  22855862.585    22855861.9194   22855868.0484
     -2195.656       -1710.901
   8599621.791 9   6690405.109 9  22762985.697    22762985.342    22762990.873
     -2609.363       -2033.270
  -1551954.400 9  -1202800.48148  21578688.564    21578688.3434   21578693.4284
      -513.042        -399.773
   4063641.604 9   3148402.43648  22093962.742    22093962.1254   22093967.2464
      -981.656        -764.927
  -3242360.664 9  -2521332.98748  20707652.641    20707652.1364   20707657.0214
       731.468         569.975
 -10302783.414 9  -8012448.57648  20548556.555    20548556.1354   20548561.2184
      2052.680        1599.491
  -3370845.934 9  -2621902.41947  23707391.027    23707390.8504   23707396.0584
       127.357          99.239
  -9715410.427 9  -7557542.35147  22844684.230    22844683.8104   22844688.6774
      1830.510        1426.371
 96 10 31 17 26 59.9990000  0  8 17 28  3 23 21  1  9 31            -0.000021850
   7219212.663 9   5617599.88947  22868408.804    22868408.1194   22868414.1674
     -2200.342       -1714.552
   8677933.461 9   6751427.139 9  22777887.850    22777887.561    22777893.122
     -2612.120       -2035.418
  -1536356.830 9  -1190646.54348  21581656.701    21581656.5164   21581661.5924
      -527.262        -410.853
   4093073.784 9   3171336.58148  22099563.532    22099562.9164   22099568.0284
      -981.143        -764.527
  -3264280.905 9  -2538413.69548  20703481.367    20703480.8584   20703485.7704
       729.437         568.392
 -10364192.660 9  -8060299.92248  20536870.767    20536870.3584   20536875.4024
      2040.826        1590.254
  -3374449.854 9  -2624710.67847  23706705.606    23706705.2374   23706710.1054
       112.437          87.613
  -9770129.098 9  -7600180.28747  22834271.580    22834271.1404   22834276.2044
      1816.821        1415.705
 96 10 31 17 27 29.9990000  0  8 17 28  3 23 21  1  9 31            -0.000035404
   7285272.490 9   5669075.03547  22880979.690    22880978.9424   22880985.0024
     -2204.457       -1717.759
   8756315.561 9   6812504.044 9  22792803.473    22792803.189    22792808.783
     -2614.024       -2036.902
  -1520357.204 9  -1178179.32048  21584701.364    21584701.1444   21584706.2414
      -540.160        -420.904
   4122476.762 9   3194247.96748  22105158.762    22105158.0904   22105163.2584
      -979.658        -763.370
  -3286165.817 9  -2555466.87948  20699316.794    20699316.3064   20699321.2354
       728.809         567.903
 -10425261.366 9  -8107885.91048  20525249.790    20525249.3934   20525254.3924
      2029.529        1581.451
  -3377626.978 9  -2627186.36847  23706101.175    23706100.7214   23706105.4544
        98.774          76.967
  -9824444.215 9  -7642503.75247  22823935.708    22823935.2454   22823940.3724
      1803.386        1405.236
 96 10 31 17 27 59.9990000  0  8 17 28  3 23 21  1  9 31            -0.000049033
   7351472.433 9   5720659.36147  22893577.104    22893576.4344   22893582.4514
     -2208.958       -1721.266
   8834767.504 9   6873635.374 9  22807732.443    22807732.119    22807737.753
     -2616.182       -2038.583
  -1503952.396 9  -1165396.37248  21587823.164    21587822.9204   21587828.0234
      -553.428        -431.243
   4151844.950 9   3217132.24948  22110747.327    22110746.6854   22110751.8634
      -978.193        -762.228
  -3308013.879 9  -2572491.34548  20695159.282    20695158.7924   20695163.7124
       727.483         566.870
 -10485960.327 9  -8155183.79148  20513699.168    20513698.7784   20513703.7464
      2016.752        1571.495
  -3380386.354 9  -2629336.53547  23705576.044    23705575.7384   23705580.3394
        85.216          66.402
  -9878343.349 9  -7684503.08347  22813679.067    22813678.5924   22813683.7034
      1789.581        1394.479
 96 10 31 17 28 29.9990000  0  8 17 28  3 23 21  1  9 31            -0.000062753
   7417807.913 9   5772349.29147  22906200.323    22906199.6784   22906205.6824
     -2213.519       -1724.820
   8913284.506 9   6934817.400 9  22822673.818    22822673.452    22822679.084
     -2618.276       -2040.215
  -1487154.863 9  -1152307.40748  21591019.606    21591019.3884   21591024.5144
      -566.385        -441.339
   4181169.355 9   3239982.41648  22116327.649    22116326.9864   22116332.1554
      -976.942        -761.254
  -3329807.177 9  -2589473.14148  20691012.192    20691011.6824   20691016.5654
       725.303         565.171
 -10546262.412 9  -8202172.41448  20502224.097    20502223.6764   20502228.6164
      2003.383        1561.078
  -3382741.054 9  -2631171.39347  23705127.973    23705127.6344   23705132.4174
        71.884          56.014
  -9931810.854 9  -7726166.08747  22803504.574    22803504.0914   22803509.1114
      1774.697        1382.881
 96 10 31 17 28 59.9990000  0  8 17 28  3 23 21  1  9 31            -0.000076572
   7484286.872 9   5824151.03247  22918850.847    22918850.2294   22918856.2454
     -2218.188       -1728.458
   8991859.402 9   6996044.539 9  22837626.142    22837625.839    22837631.433
     -2619.842       -2041.435
  -1469974.550 9  -1138920.16948  21594288.961    21594288.7234   21594293.8124
      -578.646        -450.893
   4210459.231 9   3262805.67548  22121901.367    22121900.7164   22121905.8904
      -975.499        -760.129
  -3351535.201 9  -2606404.07548  20686877.492    20686876.9874   20686881.8584
       723.371         563.666
 -10606156.280 9  -8248842.94748  20490826.681    20490826.2464   20490831.1884
      1989.776        1550.475
  -3384715.072 9  -2632709.62247  23704751.914    23704751.6984   23704756.8794
        59.902          46.677
  -9984826.683 9  -7767477.11747  22793416.020    22793415.4824   22793420.5484
      1759.827        1371.294
 96 10 31 17 29 29.9990000  0  8 17 28  3 23 21  1  9 31            -0.000090496
   7550917.422 9   5876070.88947  22931530.196    22931529.5934   22931535.6184
     -2223.432       -1732.544
   9070489.289 9   7057314.532 9  22852588.996    22852588.673    22852594.223
     -2621.690       -2042.875
  -1452417.977 9  -1125239.74248  21597629.859    21597629.6224   21597634.6984
      -591.515        -460.921
   4239721.123 9   3285607.12948  22127469.727    22127469.0744   22127474.2534
      -974.752        -759.547
  -3373184.881 9  -2623273.96648  20682757.688    20682757.2014   20682762.0734
       720.229         561.217
 -10665624.915 9  -8295182.13348  20479510.170    20479509.7104   20479514.6784
      1975.332        1539.220
  -3386313.385 9  -2633955.03347  23704447.950    23704447.7084   23704452.5374
        47.006          36.628
 -10037378.189 9  -7808426.34847  22783415.812    22783415.2454   22783420.3144
      1744.169        1359.093
 96 10 31 17 29 59.9990000  0  8 17 28  3 23 21  1  9 31            -0.000104522
   7617701.536 9   5928110.40447  22944238.914    22944238.2224   22944244.2384
     -2228.371       -1736.393
   9149173.663 9   7118626.970 9  22867562.172    22867561.872    22867567.402
     -2623.441       -2044.240
  -1434463.981 9  -1111249.63148  21601046.427    21601046.2054   21601051.2154
      -604.922        -471.368
   4268962.217 9   3308392.37448  22133034.078    22133033.4794   22133038.6594
      -974.121        -759.055
  -3394722.257 9  -2640056.34448  20678659.255    20678658.7954   20678663.6534
       716.158         558.045
 -10724665.520 9  -8341187.78548  20468275.093    20468274.6574   20468279.6204
      1961.317        1528.299
  -3387514.037 9  -2634890.61847  23704219.475    23704219.1504   23704224.1154
        33.399          26.025
 -10089462.678 9  -7849011.67047  22773504.391    22773503.8734   22773508.9544
      1728.538        1346.913
 96 10 31 17 30 29.9990000  0  8 17 28  3 23 21  1  9 31            -0.000118632
   7684637.941 9   5980268.59347  22956976.460    22956975.8624   22956981.8354
     -2233.830       -1740.647
   9227911.946 9   7179981.421 9  22882545.624    22882545.332    22882550.866
     -2625.317       -2045.702
  -1416103.956 9  -1096943.14048  21604540.165    21604539.9564   21604544.9874
      -618.733        -482.130
   4298195.151 9   3331171.27348  22138596.976    22138596.3434   22138601.5204
      -974.218        -759.131
  -3416139.384 9  -2656745.02248  20674583.756    20674583.2794   20674588.1204
       712.194         554.956
 -10783299.996 9  -8386876.98048  20457117.354    20457116.8954   20457121.8464
      1948.199        1518.077
  -3388299.527 9  -2635502.69247  23704070.246    23704069.8324   23704074.9494
        19.381          15.102
 -10141074.567 9  -7889228.73547  22763682.933    22763682.4804   22763687.5374
      1712.797        1334.647
 96 10 31 17 30 59.9990000  0  8 17 28  3 23 21  1  9 31            -0.000132817
   7751734.575 9   6032551.62347  22969744.593    22969743.9904   22969749.9274
     -2239.070       -1744.730
   9306700.534 9   7241375.071 9  22897538.590    22897538.318    22897543.900
     -2627.074       -2047.071
  -1397330.335 9  -1082314.36248  21608112.718    21608112.4904   21608117.4894
      -632.779        -493.075
   4327424.190 9   3353947.12848  22144159.085    22144158.4354   22144163.6514
      -974.118        -759.053
  -3437451.290 9  -2673351.70948  20670528.298    20670527.7814   20670532.5804
       708.810         552.319
 -10841549.375 9  -8432266.09648  20446032.842    20446032.4104   20446037.3504
      1935.238        1507.978
  -3388668.828 9  -2635790.46147  23703999.709    23703999.3754   23704004.4894
         5.202           4.054
 -10192234.049 9  -7929093.26447  22753947.601    22753947.1364   22753952.2744
      1697.991        1323.110
 96 10 31 17 31 29.9990000  0  8 17 28  3 23 21  1  9 31            -0.000147067
   7818984.174 9   6084953.84847  22982541.888    22982541.2794   22982547.1614
     -2244.540       -1748.992
   9385543.295 9   7302810.930 9  22912541.876    22912541.625    22912547.263
     -2629.350       -2048.844
  -1378123.987 9  -1067348.40048  21611767.563    21611767.3454   21611772.3664
      -648.030        -504.958
   4356649.083 9   3376719.75148  22149720.422    22149719.7804   22149725.0034
      -974.392        -759.266
  -3458665.921 9  -2689882.59648  20666491.284    20666490.7644   20666495.5654
       705.365         549.635
 -10899410.905 9  -8477352.99648  20435022.179    20435021.7284   20435026.6564
      1922.097        1497.738
  -3388597.218 9  -2635734.65547  23704013.348    23704013.1044   23704018.0914
       -10.170          -7.925
 -10242952.323 9  -7968614.00947  22744296.243    22744295.7734   22744300.9424
      1682.995        1311.425
 96 10 31 17 31 59.9990000  0  8 17 28  3 23 21  1  9 31            -0.000161374
   7886384.525 9   6137473.53647  22995367.863    22995367.2354   22995373.1234
     -2248.934       -1752.416
   9464434.506 9   7364284.539 9  22927554.376    22927554.145    22927559.860
     -2630.311       -2049.593
  -1358477.883 9  -1052039.76548  21615506.126    21615505.8974   21615510.8684
      -661.723        -515.628
   4385858.130 9   3399480.02148  22155278.702    22155278.0844   22155283.3144
      -973.051        -758.221
  -3479806.115 9  -2706355.48148  20662468.425    20662467.9454   20662472.7394
       703.972         548.550
 -10956910.410 9  -8522157.79948  20424080.384    20424079.9414   20424084.8654
      1910.855        1488.978
  -3388087.396 9  -2635337.40547  23704110.538    23704110.1754   23704115.2804
       -24.035         -18.729
 -10293247.581 9  -8007805.11547  22734725.368    22734724.9034   22734730.0474
      1669.639        1301.017
 96 10 31 17 32 29.9990000  0  9 17 28  3 25 23 21  1  9 31         -0.000175739
   7953933.510 9   6190109.04947  23008222.017    23008221.4054   23008227.3674
     -2254.734       -1756.936
   9543368.837 9   7425791.748 9  22942575.183    22942574.886    22942580.662
     -2632.350       -2051.182
  -1338415.093 9  -1036406.44048  21619324.050    21619323.8014   21619328.7194
      -676.116        -526.844
   -419500.56718   -313490.78455  25252059.140    25252060.3785   25252068.1095
      3875.401        3019.793
   4415035.038 9   3422215.25148  22160830.950    22160830.2884   22160835.5064
      -972.432        -757.739
  -3500904.498 9  -2722795.78648  20658453.590    20658453.0844   20658457.8824
       702.199         547.168
 -11014057.893 9  -8566688.29748  20413205.583    20413205.1394   20413210.0594
      1898.442        1479.305
  -3387150.726 9  -2634607.53847  23704288.818    23704288.5124   23704293.5444
       -38.736         -30.184
 -10343131.193 9  -8046675.47347  22725232.868    22725232.3914   22725237.5194
      1655.444        1289.956
 96 10 31 17 32 59.9990000  0  9 17 28  3 25 23 21  1  9 31         -0.000190169
   8021636.890 9   6242864.86647  23021105.583    23021104.9944   23021110.9634
     -2258.816       -1760.116
   9622346.241 9   7487332.520 9  22957604.108    22957603.823    22957609.653
     -2632.890       -2051.602
  -1317937.411 9  -1020449.83148  21623220.810    21623220.5664   21623225.5224
      -689.178        -537.022
   -535926.801 8   -404212.50245  25229904.499    25229905.7814   25229912.4104
      3886.116        3028.142
   4444165.524 9   3444914.30848  22166374.334    22166373.6634   22166378.8734
      -969.785        -755.677
  -3521969.775 9  -2739210.29348  20654445.070    20654444.5294   20654449.3094
       701.970         546.990
 -11070834.964 9  -8610930.16648  20402401.238    20402400.7914   20402405.7494
      1886.566        1470.051
  -3385786.714 9  -2633544.66647  23704548.475    23704548.1694   23704552.9874
       -52.316         -40.766
 -10392604.208 9  -8085225.87647  22715818.432    22715817.9424   22715823.1064
      1642.452        1279.833
 96 10 31 17 33 29.9990000  0  9 17 28  3 25 23 21  1  9 31         -0.000204664
   8089484.829 9   6295733.31847  23034016.727    23034016.0714   23034022.0344
     -2263.895       -1764.074
   9701363.556 9   7548904.395 9  22972640.597    22972640.394    22972646.243
     -2634.362       -2052.750
  -1297047.821 9  -1004172.24748  21627195.995    21627195.7404   21627200.7184
      -702.783        -547.623
   -652639.407 8   -495157.33945  25207694.915    25207694.7924   25207702.9194
      3895.088        3035.134
   4473239.696 9   3467569.48248  22171906.960    22171906.3004   22171911.5184
      -968.039        -754.316
  -3543002.928 9  -2755599.76948  20650442.588    20650442.0664   20650446.8734
       700.590         545.914
 -11127234.568 9  -8654877.90248  20391668.745    20391668.3054   20391673.2574
      1874.052        1460.300
  -3383986.067 9  -2632141.57647  23704891.173    23704890.8044   23704895.6524
       -67.126         -52.306
 -10441656.512 9  -8123448.45447  22706484.083    22706483.5704   22706488.7864
      1628.174        1268.707
 96 10 31 17 33 59.9990000  0  9 17 28  3 25 23 21  1  9 31         -0.000219228
   8157479.211 9   6348715.89247  23046955.620    23046954.9994   23046961.0014
     -2268.401       -1767.585
   9780416.723 9   7610504.202 9  22987683.982    22987683.757    22987689.628
     -2635.349       -2053.519
  -1275769.444 9   -987591.71348  21631245.114    21631244.8584   21631249.8894
      -715.215        -557.310
   -769622.042 8   -586312.59046  25185434.086    25185434.0434   25185441.9044
      3904.118        3042.170
   4502257.486 9   3490180.72948  22177428.925    22177428.2194   22177433.4214
      -966.148        -752.843
  -3563989.157 9  -2771952.68148  20646449.087    20646448.5274   20646453.3464
       698.712         544.451
 -11183269.845 9  -8698541.75048  20381005.582    20381005.1484   20381010.0934
      1861.894        1450.826
  -3381752.408 9  -2630401.11747  23705316.126    23705315.7284   23705320.9564
       -81.195         -63.269
 -10490289.113 9  -8161343.98647  22697229.569    22697229.0884   22697234.3594
      1614.414        1257.985
 96 10 31 17 34 29.9990000  0  9 17 28  3 25 23 21  1  9 31         -0.000233873
   8225615.186 9   6401808.80447  23059921.453    23059920.9164   23059926.9314
     -2273.619       -1771.651
   9859507.691 9   7672133.463 9  23002734.601    23002734.341    23002740.242
     -2636.956       -2054.771
  -1254106.247 9   -970711.32048  21635367.532    21635367.2654   21635372.3624
      -728.640        -567.771
   -886867.392 9   -677672.59845  25163123.050    25163122.8764   25163130.8944
      3912.461        3048.671
   4531236.396 9   3512761.68348  22182943.391    22182942.7764   22182947.9224
      -965.539        -752.368
  -3584897.939 9  -2788245.24748  20642470.325    20642469.7534   20642474.5424
       695.505         541.952
 -11238920.691 9  -8741906.03648  20370415.595    20370415.1534   20370420.0594
      1848.546        1440.425
  -3379090.252 9  -2628326.72547  23705822.763    23705822.3734   23705827.5824
       -95.769         -74.625
 -10538499.042 9  -8198910.16647  22688055.595    22688055.0854   22688060.3194
      1599.851        1246.637
 96 10 31 17 34 59.9990000  0  9 17 28  3 25 23 21  1  9 31         -0.000248601
   8293893.823 9   6455012.88247  23072914.559    23072913.9514   23072920.0384
     -2278.011       -1775.074
   9938635.920 9   7733791.765 9  23017792.269    23017792.033    23017797.941
     -2637.997       -2055.582
  -1232052.696 9   -953526.75548  21639564.221    21639563.9404   21639569.0744
      -741.383        -577.701
  -1004362.454 8   -769227.21646  25140764.614    25140764.4014   25140772.3874
      3920.759        3055.137
   4560194.636 9   3535326.52748  22188454.023    22188453.3904   22188458.5404
      -964.894        -751.865
  -3605711.007 9  -2804463.22548  20638509.737    20638509.1574   20638513.9644
       692.292         539.448
 -11294173.382 9  -8784960.07248  20359901.402    20359900.9424   20359905.8144
      1835.331        1430.128
  -3376001.873 9  -2625920.17247  23706410.627    23706410.2574   23706415.1574
      -109.915         -85.648
 -10586274.573 9  -8236137.85947  22678964.258    22678963.7104   22678968.9454
      1585.389        1235.368
 96 10 31 17 35 29.9990000  0  9 17 28  3 25 23 21  1  9 31         -0.000263410
   8362314.344 9   6508327.51347  23085934.558    23085933.9754   23085940.1174
     -2283.059       -1779.007
  10017803.248 9   7795480.527 9  23032857.416    23032857.126    23032863.093
     -2639.313       -2056.608
  -1209612.298 9   -936040.75348  21643834.505    21643834.2304   21643839.4594
      -754.100        -587.610
  -1122097.279 9   -860968.66545  25118360.449    25118360.2434   25118368.0454
      3928.877        3061.463
   4589154.176 9   3557892.38248  22193964.918    22193964.2444   22193969.3864
      -965.287        -752.172
  -3626417.089 9  -2820597.83748  20634569.500    20634568.9124   20634573.7414
       688.595         536.567
 -11349024.175 9  -8827700.94548  20349463.640    20349463.1914   20349468.0344
      1821.864        1419.634
  -3372485.498 9  -2623180.16147  23707079.479    23707079.0964   23707084.1144
      -124.040         -96.654
 -10633609.259 9  -8273022.02447  22669956.855    22669956.3024   22669961.5084
      1570.617        1223.857
 96 10 31 17 35 59.9990000  0  9 17 28  3 25 23 21  1  9 31         -0.000278300
   8430891.768 9   6561764.40547  23098984.387    23098983.8004   23098990.0934
     -2288.874       -1783.538
  10097007.942 9   7857198.395 8  23047929.653    23047929.325    23047935.321
     -2641.038       -2057.952
  -1186789.174 9   -918256.51948  21648177.605    21648177.3224   21648182.5224
      -767.581        -598.115
  -1240084.122 8   -952906.54446  25095908.531    25095908.2884   25095915.7894
      3936.816        3067.649
   4618126.078 9   3580467.86848  22199478.096    22199477.4114   22199482.5254
      -966.135        -752.832
  -3647009.482 9  -2836643.86848  20630650.883    20630650.2974   20630655.1364
       684.259         533.189
 -11403467.034 9  -8870123.94548  20339103.512    20339103.0374   20339107.8944
      1807.463        1408.413
  -3368550.998 9  -2620114.33947  23707828.240    23707827.8794   23707833.0684
      -138.263        -107.737
 -10680499.421 9  -8309559.81247  22661033.949    22661033.3884   22661038.4874
      1555.071        1211.744
 96 10 31 17 36 29.9990000  0  9 17 28  3 25 23 21  1  9 31         -0.000293262
   8499635.253 9   6615330.70147  23112065.896    23112065.3354   23112071.6924
     -2294.258       -1787.734
  10176249.163 9   7918944.732 8  23063008.767    23063008.489    23063014.478
     -2641.875       -2058.604
  -1163568.104 9   -900162.20848  21652596.364    21652596.1044   21652601.3854
      -780.687        -608.327
  -1358320.245 8  -1045038.64046  25073408.833    25073408.6694   25073416.2324
      3945.355        3074.303
   4647106.955 9   3603050.34648  22204992.986    22204992.2944   22204997.4774
      -966.005        -752.731
  -3667495.732 9  -2852607.18648  20626752.425    20626751.8764   20626756.7454
       681.496         531.036
 -11457481.881 9  -8912213.42748  20328824.820    20328824.3574   20328829.2054
      1793.453        1397.496
  -3364199.964 9  -2616723.90647  23708656.336    23708656.1014   23708661.1024
      -152.113        -118.530
 -10726913.848 9  -8345726.90747  22652201.618    22652201.0684   22652206.1364
      1538.817        1199.078
 96 10 31 17 36 59.9990000  0  9 17 28  3 25 23 21  1  9 31         -0.000308281
   8568548.549 9   6669029.30547  23125179.737    23125179.1374   23125185.6204
     -2299.757       -1792.018
  10255520.468 9   7980714.523 8  23078093.588    23078093.368    23078099.378
     -2642.672       -2059.225
  -1139950.095 9   -881758.58248  21657090.742    21657090.4814   21657095.7084
      -793.745        -618.503
  -1476801.972 9  -1137362.15146  25050862.528    25050862.2844   25050870.0244
      3953.605        3080.731
   4676083.786 9   3625629.67348  22210507.142    22210506.4344   22210511.6194
      -965.534        -752.364
  -3687897.592 9  -2868504.74648  20622870.069    20622869.4924   20622874.4154
       678.843         528.969
 -11511072.997 9  -8953972.73048  20318626.758    20318626.3034   20318631.1704
      1779.544        1386.658
  -3359421.885 9  -2613000.76547  23709565.684    23709565.3644   23709570.5414
      -166.356        -129.628
 -10772825.777 9  -8381502.46647  22643464.908    22643464.3654   22643469.3774
      1522.135        1186.079
 96 10 31 17 37 29.9990000  0  9 17 28  3 25 23 21  1  9 31         -0.000323346
   8637640.852 9   6722867.40846  23138327.498    23138326.9264   23138333.5464
     -2305.940       -1796.836
  10334821.865 9   8042507.743 8  23093184.136    23093183.918    23093190.013
     -2643.605       -2059.952
  -1115927.002 9   -863039.31648  21661662.178    21661661.9234   21661667.1344
      -807.284        -629.052
  -1595526.339 8  -1229874.69446  25028270.038    25028269.8464   25028277.5184
      3961.719        3087.054
   4705053.426 9   3648203.40048  22216019.873    22216019.2084   22216024.3944
      -965.246        -752.140
  -3708214.865 9  -2884336.39348  20619003.795    20619003.2344   20619008.1754
       675.999         526.752
 -11564241.762 9  -8995402.93248  20308509.110    20308508.6514   20308513.5104
      1765.492        1375.708
  -3354201.740 9  -2608933.13147  23710558.826    23710558.6064   23710563.6404
      -181.234        -141.221
 -10818226.080 9  -8416879.32047  22634825.463    22634824.9724   22634830.0494
      1504.814        1172.582
 96 10 31 17 37 59.9990000  0  9 17 28  3 25 23 21  1  9 31         -0.000338448
   8706907.239 9   6776841.15046  23151508.389    23151507.8134   23151514.5944
     -2311.878       -1801.463
  10414148.447 9   8104320.605 8  23108279.558    23108279.272    23108285.462
     -2644.977       -2061.021
  -1091500.125 9   -844005.40748  21666310.490    21666310.1824   21666315.3524
      -821.375        -640.032
  -1714489.742 8  -1322573.45846  25005632.132    25005631.8494   25005639.5414
      3968.789        3092.563
   4734006.204 9   3670763.98448  22221529.488    22221528.7894   22221533.9744
      -965.202        -752.105
  -3728446.312 9  -2900101.16248  20615153.929    20615153.3264   20615158.2604
       672.543         524.059
 -11616996.195 9  -9036510.27248  20298470.287    20298469.8244   20298474.6864
      1751.321        1364.666
  -3348531.930 9  -2604515.11047  23711638.048    23711637.6514   23711642.4454
      -196.764        -153.323
 -10863101.856 9  -8451847.45547  22626285.970    22626285.4194   22626290.4754
      1486.734        1158.494
 96 10 31 17 38 29.9990000  0  9 17 28  3 25 23 21  1  9 31         -0.000353593
   8776326.644 9   6830934.12846  23164718.497    23164717.8804   23164724.6444
     -2316.054       -1804.717
  10493497.404 9   8166150.896 8  23123379.283    23123378.896    23123385.176
     -2645.054       -2061.081
  -1066671.692 9   -824658.59348  21671035.190    21671034.9064   21671040.0514
      -833.949        -649.830
  -1833680.381 9  -1415449.24846  24982951.010    24982950.7094   24982958.3584
      3977.148        3099.076
   4762943.810 9   3693312.75148  22227036.122    22227035.4534   22227040.6644
      -964.043        -751.202
  -3748591.193 9  -2915798.47848  20611320.500    20611319.8904   20611324.8284
       670.298         522.310
 -11669344.118 9  -9077300.85348  20288508.834    20288508.3654   20288513.1964
      1738.569        1354.729
  -3342414.981 9  -2599748.70347  23712801.778    23712801.4924   23712806.5804
      -211.061        -164.463
 -10907458.602 9  -8486411.15947  22617845.219    22617844.6904   22617849.7104
      1470.383        1145.753
 96 10 31 17 38 59.9990000  0  9 17 28  3 25 23 21  1  9 31         -0.000368786
   8845888.684 9   6885138.24646  23177955.803    23177955.2164   23177961.9104
     -2320.852       -1808.456
  10572871.410 9   8228000.688 8  23138483.686    23138483.265    23138489.633
     -2646.116       -2061.909
  -1041443.865 9   -805000.57848  21675835.874    21675835.6154   21675840.7674
      -847.468        -660.365
  -1953100.305 9  -1508503.63846  24960226.287    24960225.9914   24960233.4744
      3984.620        3104.899
   4791871.190 9   3715853.53848  22232540.815    22232540.1584   22232545.3924
      -964.072        -751.225
  -3768635.147 9  -2931417.15248  20607506.200    20607505.6394   20607510.6024
       666.349         519.233
 -11721292.071 9  -9117779.77048  20278623.492    20278623.0084   20278627.8334
      1724.967        1344.130
  -3335857.363 9  -2594638.88647  23714050.042    23714049.6634   23714054.4954
      -225.716        -175.883
 -10951320.141 9  -8520588.99547  22609498.633    22609498.1504   22609503.1424
      1454.169        1133.119
 96 10 31 17 39 29.9990000  0  9 17 28  3 25 23 21  1  9 31         -0.000384045
   8915575.449 9   6939439.55646  23191216.854    23191216.2424   23191222.9084
     -2325.350       -1811.961
  10652267.594 9   8289867.792 8  23153592.310    23153591.895    23153598.288
     -2647.396       -2062.906
  -1015818.039 9   -785032.42648  21680712.453    21680712.1334   21680717.2684
      -861.246        -671.101
  -2072748.404 9  -1601735.82046  24937458.009    24937457.6684   24937465.2424
      3991.366        3110.155
   4820794.368 9   3738391.05548  22238044.829    22238044.1064   22238049.2824
      -964.611        -751.645
  -3788571.558 9  -2946952.02148  20603712.488    20603711.9204   20603716.8404
       662.179         515.984
 -11772836.747 9  -9157944.44548  20268814.832    20268814.3674   20268819.2234
      1710.854        1333.133
  -3328871.879 9  -2589195.70447  23715379.084    23715378.7594   23715383.8564
      -240.292        -187.240
 -10994708.910 9  -8554398.42647  22601242.011    22601241.5004   22601246.4784
      1437.979        1120.503
 96 10 31 17 39 59.9990000  0  9 17 28  3 25 23 21  1  9 31         -0.000399383
   8985376.409 9   6993829.84646  23204499.655    23204498.9094   23204505.6474
     -2328.362       -1814.308
  10731684.715 9   8351751.180 8  23168704.984    23168704.517    23168710.944
     -2647.290       -2062.823
   -989802.581 9   -764760.66448  21685663.039    21685662.7504   21685667.8734
      -873.406        -680.576
  -2192613.512 8  -1695137.06046  24914648.401    24914648.0124   24914655.6034
      3999.561        3116.541
   4849718.522 9   3760929.33148  22243548.918    22243548.1994   22243553.3844
      -963.886        -751.080
  -3808394.050 9  -2962398.12648  20599940.453    20599939.8574   20599944.7524
       659.101         513.585
 -11823972.924 9  -9197790.81248  20259083.912    20259083.4514   20259088.3274
      1697.922        1323.056
  -3321477.707 9  -2583434.04747  23716786.131    23716785.8444   23716790.8384
      -252.751        -196.949
 -11037642.227 9  -8587852.95747  22593072.103    22593071.5464   22593076.5634
      1424.146        1109.724
 96 10 31 17 40 29.9990000  0  9 17 28  3 25 23 21  1  9 31         -0.000414817
   9055296.514 9   7048312.98746  23217805.045    23217804.3414   23217811.0674
     -2332.908       -1817.850
  10811117.650 9   8413646.901 8  23183820.562    23183820.164    23183826.595
     -2647.948       -2063.336
   -963401.227 9   -744188.20948  21690687.116    21690686.8044   21690691.9894
      -886.327        -690.644
  -2312713.134 9  -1788721.04446  24891793.979    24891793.6924   24891801.3914
      4007.376        3122.631
   4878635.840 9   3783462.27348  22249051.713    22249050.9794   22249056.2024
      -963.595        -750.853
  -3828104.039 9  -2977756.56448  20596189.786    20596189.1984   20596194.0784
       655.252         510.586
 -11874688.445 9  -9237309.39348  20249433.067    20249432.6044   20249437.5084
      1683.341        1311.694
  -3313691.708 9  -2577367.02847  23718267.938    23718267.6134   23718272.3614
      -266.121        -207.367
 -11080143.057 9  -8620970.49447  22584984.422    22584983.9474   22584988.9164
      1409.398        1098.232
 96 10 31 17 40 59.9990000  0  9 17 28  3 25 23 21  1  9 31         -0.000430345
   9125356.635 9   7102905.22346  23231137.033    23231136.3864   23231143.1314
     -2338.120       -1821.912
  10890567.659 9   8475555.925 8  23198939.417    23198939.076    23198945.501
     -2648.928       -2064.100
   -936616.664 9   -723317.14748  21695784.064    21695783.7644   21695788.9144
      -899.596        -700.984
  -2433048.112 8  -1882488.42346  24868894.866    24868894.6054   24868902.3024
      4014.586        3128.249
   4907542.256 9   3805986.72948  22254552.413    22254551.7154   22254556.9364
      -963.886        -751.080
  -3847705.540 9  -2993030.46648  20592459.740    20592459.1944   20592464.0214
       651.259         507.475
 -11924963.083 9  -9276484.43248  20239866.110    20239865.6464   20239870.5584
      1667.914        1299.673
  -3305501.835 9  -2570985.34847  23719826.319    23719826.0504   23719830.8714
      -280.274        -218.395
 -11122200.207 9  -8653742.30347  22576981.234    22576980.7304   22576985.7524
      1393.980        1086.218
 96 10 31 17 41 29.9990000  0  9 17 28  3 25 23 21  1  9 31         -0.000445960
   9195567.406 9   7157614.84846  23244497.808    23244497.1524   23244503.8184
     -2343.044       -1825.749
  10970030.773 9   8537475.170 8  23214060.878    23214060.493    23214066.893
     -2648.911       -2064.086
   -909452.505 9   -702150.29848  21700953.226    21700952.9724   21700958.1494
      -911.634        -710.364
  -2553607.251 8  -1976430.49046  24845953.232    24845952.8874   24845960.5774
      4022.259        3134.228
   4936440.870 9   3828505.10948  22260051.671    22260050.9824   22260056.1674
      -962.955        -750.355
  -3867208.561 9  -3008227.62948  20588748.468    20588747.9234   20588752.7184
       648.640         505.434
 -11974787.562 9  -9315308.69348  20230384.857    20230384.3984   20230389.2844
      1653.523        1288.459
  -3296889.215 9  -2564274.28447  23721465.435    23721465.0824   23721470.2384
      -294.264        -229.297
 -11163805.621 9  -8686162.10647  22569064.049    22569063.4814   22569068.4944
      1379.331        1074.803
 96 10 31 17 41 59.9990000  0  9 17 28  3 25 23 21  1  9 31         -0.000461648
   9265951.582 9   7212459.58746  23257891.618    23257890.8134   23257897.5904
     -2348.791       -1830.227
  11049508.885 9   8599406.084 8  23229185.083    23229184.700    23229191.133
     -2649.267       -2064.364
   -881912.002 9   -680690.19348  21706194.120    21706193.8164   21706198.9464
      -924.185        -720.144
  -2674384.103 8  -2070542.22246  24822969.901    24822969.8794   24822977.4254
      4029.755        3140.069
   4965324.869 9   3851012.08648  22265548.203    22265547.4644   22265552.6624
      -962.245        -749.801
  -3886615.197 9  -3023349.68948  20585055.514    20585054.9814   20585059.7684
       645.638         503.095
 -12024171.590 9  -9353789.74948  20220987.433    20220986.9484   20220991.8424
      1639.157        1277.265
  -3287836.002 9  -2557219.86847  23723188.047    23723187.7844   23723192.8154
      -308.963        -240.750
 -11204950.055 9  -8718222.70247  22561234.499    22561233.9954   22561239.0084
      1363.787        1062.691
 96 10 31 17 42 29.9990000  0  9 17 28  3 25 23 21  1  9 31         -0.000477388
   9336511.450 9   7267441.22146  23271318.669    23271317.9584   23271324.7644
     -2355.079       -1835.126
  11129000.376 9   8661347.444 8  23244311.746    23244311.467    23244317.891
     -2650.024       -2064.954
   -853985.764 9   -658929.51448  21711508.350    21711508.0564   21711513.1764
      -937.357        -730.408
  -2795365.106 8  -2164813.03946  24799947.802    24799947.9424   24799955.4374
      4035.657        3144.668
   4994188.802 9   3873503.43948  22271040.846    22271040.1244   22271045.3074
      -961.860        -749.501
  -3905928.459 9  -3038398.99648  20581380.350    20581379.8074   20581384.5854
       642.213         500.426
 -12073126.352 9  -9391936.31548  20211671.666    20211671.2004   20211676.0634
      1624.797        1266.076
  -3278328.805 9  -2549811.65847  23724997.622    23724997.1514   23725001.8174
      -324.718        -253.027
 -11245605.803 9  -8749902.51947  22553497.995    22553497.5094   22553502.4564
      1346.745        1049.412
 96 10 31 17 42 59.9990000  0  9 17 28  3 25 23 21  1  9 31         -0.000493159
   9407253.137 9   7322564.53446  23284780.406    23284779.6084   23284786.5804
     -2361.025       -1839.760
  11208509.199 9   8723302.282 8  23259441.789    23259441.519    23259447.933
     -2650.662       -2065.451
   -825661.738 9   -636858.87348  21716898.191    21716897.9344   21716903.0814
      -951.055        -741.082
  -2916516.992 8  -2259217.03646  24776893.300    24776893.2994   24776900.9234
      4041.054        3148.873
   5023047.970 9   3895991.06948  22276532.561    22276531.8524   22276537.0804
      -962.134        -749.715
  -3925142.826 9  -3053371.23148  20577723.948    20577723.4214   20577728.2234
       638.637         497.639
 -12121665.387 9  -9429758.93648  20202435.039    20202434.5474   20202439.4154
      1611.209        1255.487
  -3268349.707 9  -2542035.84147  23726896.285    23726896.0484   23726901.1974
      -340.619        -265.417
 -11285756.329 9  -8781188.64247  22545857.676    22545857.1964   22545862.1484
      1329.917        1036.299
 96 10 31 17 43 29.9990000  0  9 17 28  3 25 23 21  1  9 31         -0.000508956
   9478165.068 8   7377820.50146  23298274.432    23298273.6844   23298280.7804
     -2366.948       -1844.375
  11288027.470 9   8785264.503 8  23274573.586    23274573.374    23274579.784
     -2651.092       -2065.786
   -796937.613 9   -614476.46648  21722364.255    21722363.9894   21722369.1114
      -964.344        -751.437
  -3037838.751 8  -2353753.38346  24753806.451    24753806.4774   24753814.1204
      4046.662        3153.243
   5051900.568 9   3918473.58848  22282023.080    22282022.3544   22282027.6114
      -961.930        -749.556
  -3944254.894 9  -3068263.76348  20574087.023    20574086.5154   20574091.3314
       634.897         494.725
 -12169815.609 9  -9467278.58448  20193272.354    20193271.8754   20193276.7284
      1598.203        1245.353
  -3257903.254 9  -2533895.74846  23728884.200    23728883.9014   23728888.9064
      -356.181        -277.544
 -11325414.447 9  -8812091.08147  22538311.111    22538310.5564   22538315.4894
      1313.332        1023.376
 96 10 31 17 43 59.9990000  0  9 17 28  3 25 23 21  1  9 31         -0.000524780
   9549251.405 9   7433212.36846  23311801.732    23311801.0784   23311808.1764
     -2372.175       -1848.448
  11367563.250 9   8847240.355 8  23289708.763    23289708.595    23289714.960
     -2651.331       -2065.972
   -767806.929 9   -591777.26548  21727907.624    21727907.3844   21727912.5434
      -977.731        -761.868
  -3159329.368 8  -2448421.31246  24730687.505    24730687.4984   24730695.0784
      4052.732        3157.973
   5080762.054 9   3940963.02048  22287515.262    22287514.5424   22287519.7824
      -962.238        -749.796
  -3963236.850 9  -3083054.90548  20570474.889    20570474.3574   20570479.2114
       630.474         491.278
 -12217562.192 9  -9504483.71348  20184186.491    20184186.0204   20184190.8464
      1584.751        1234.871
  -3246994.192 9  -2525395.21147  23730960.145    23730959.9434   23730964.9474
      -371.132        -289.194
 -11364572.052 9  -8842603.50447  22530859.674    22530859.1224   22530864.0774
      1297.005        1010.653
 96 10 31 17 44 29.9990000  0  9 17 28  3 25 23 21  1  9 31         -0.000540645
   9620504.490 9   7488734.17246  23325360.919    23325360.2124   23325367.2794
     -2377.484       -1852.585
  11447112.239 9   8909226.505 8  23304846.599    23304846.397    23304852.666
     -2651.285       -2065.936
   -738273.526 9   -568764.24848  21733527.761    21733527.4564   21733532.5204
      -990.472        -771.796
  -3280996.604 8  -2543226.83046  24707535.072    24707535.0074   24707542.5514
      4059.171        3162.990
   5109641.109 9   3963466.15248  22293010.785    22293010.0624   22293015.2994
      -962.418        -749.936
  -3982070.826 9  -3097730.73948  20566890.884    20566890.3524   20566895.2164
       625.750         487.597
 -12264891.777 9  -9541363.90748  20175179.975    20175179.4834   20175184.3304
      1571.085        1224.222
  -3235630.902 9  -2516540.69646  23733122.557    23733122.2624   23733127.2054
      -385.819        -300.638
 -11403235.310 9  -8872730.72947  22523502.295    22523501.7004   22523506.6364
      1281.263         998.387
 96 10 31 17 44 59.9990000  0  9 17 28  3 25 23 21  1  9 31         -0.000556566
   9691920.288 9   7544382.75446  23338951.067    23338950.3244   23338957.2914
     -2382.983       -1856.870
  11526664.137 9   8971214.913 8  23319985.064    23319984.773    23319990.975
     -2651.648       -2066.219
   -708356.774 9   -545452.52248  21739220.655    21739220.4124   21739225.5224
     -1003.414        -781.881
  -3402870.417 8  -2638193.32946  24684343.189    24684343.1464   24684350.7064
      4066.125        3168.409
   5138538.748 9   3985983.76948  22298509.824    22298509.1474   22298514.3614
      -963.529        -750.802
  -4000755.769 9  -3112290.44548  20563335.193    20563334.6804   20563339.6184
       620.400         483.429
 -12311805.366 9  -9577919.95248  20166252.607    20166252.1384   20166256.9994
      1556.847        1213.128
  -3223825.283 9  -2507341.56947  23735368.686    23735368.5644   23735373.9104
      -400.647        -312.192
 -11441435.003 9  -8902496.73247  22516233.124    22516232.5764   22516237.5094
      1265.681         986.245
 96 10 31 17 45 29.9990000  0  9 17 28  3 25 23 21  1  9 31         -0.000572546
   9763503.116 9   7600161.50246  23352572.969    23352572.2204   23352579.1734
     -2389.218       -1861.728
  11606225.665 9   9033210.831 8  23335125.274    23335124.932    23335131.129
     -2652.451       -2066.845
   -678061.939 9   -521846.18048  21744985.524    21744985.2794   21744990.4204
     -1016.282        -791.908
  -3524949.414 8  -2733319.69546  24661112.271    24661112.1134   24661119.8114
      4072.376        3173.280
   5167464.373 9   4008523.18948  22304014.273    22304013.5634   22304018.7544
      -964.897        -751.868
  -4019275.618 9  -3126721.49748  20559810.993    20559810.4784   20559815.4504
       614.426         478.774
 -12358282.821 9  -9614136.14648  20157408.286    20157407.7864   20157412.6444
      1541.585        1201.235
  -3211576.948 9  -2497797.42747  23737699.773    23737699.5424   23737704.9394
      -415.930        -324.101
 -11479156.816 9  -8931890.35847  22509054.877    22509054.3354   22509059.2954
      1248.935         973.196
 96 10 31 17 45 59.9990000  0  9 17 28  3 25 23 21  1  9 31         -0.000588584
   9835254.846 9   7656071.87646  23366227.042    23366226.2564   23366233.1874
     -2394.276       -1865.670
  11685795.436 9   9095213.172 8  23350267.034    23350266.638    23350272.828
     -2652.322       -2066.744
   -647397.226 9   -497951.62448  21750820.880    21750820.6234   21750825.7124
     -1028.269        -801.249
  -3647223.682 8  -2828598.20846  24637844.000    24637843.9934   24637851.7114
      4078.975        3178.422
   5196423.093 9   4031088.39948  22309524.942    22309524.2604   22309529.4374
      -965.645        -752.451
  -4037634.522 9  -3141027.14648  20556317.443    20556316.9084   20556321.8714
       609.555         474.978
 -12404314.732 9  -9650005.16648  20148648.688    20148648.2084   20148653.0804
      1527.245        1190.061
  -3198887.969 9  -2487909.95646  23740114.542    23740114.2634   23740119.5554
      -430.215        -335.232
 -11516389.297 9  -8960902.69047  22501969.783    22501969.2174   22501974.2184
      1232.955         960.744
 96 10 31 17 46 29.9990000  0  9 17 28  3 25 23 21  1  9 31         -0.000604664
   9907178.874 9   7712116.47546  23379913.855    23379913.0874   23379919.9294
     -2400.945       -1870.866
  11765374.253 9   9157222.573 8  23365410.457    23365410.062    23365416.238
     -2653.178       -2067.411
   -616352.862 9   -473761.23348  21756728.418    21756728.1574   21756733.2574
     -1041.621        -811.653
  -3769672.249 8  -2924012.55146  24614542.799    24614542.6654   24614550.4594
      4083.860        3182.229
   5225408.716 9   4053674.57448  22315040.729    22315040.0504   22315045.2294
      -966.986        -753.495
  -4055849.272 9  -3155220.45848  20552851.304    20552850.7464   20552855.6994
       604.626         471.137
 -12449913.048 9  -9685536.31648  20139971.593    20139971.1304   20139976.0164
      1512.290        1178.408
  -3185751.149 9  -2477673.46747  23742614.491    23742614.1624   23742619.1224
      -445.730        -347.322
 -11553120.287 9  -8989524.24747  22494980.094    22494979.5884   22494984.5194
      1215.404         947.068
 96 10 31 17 46 59.9990000  0  9 17 28  3 25 23 21  1  9 31         -0.000620787
   9979275.509 9   7768295.60046  23393633.512    23393632.6904   23393639.5654
     -2405.866       -1874.701
  11844963.031 9   9219239.713 8  23380555.834    23380555.384    23380561.521
     -2652.985       -2067.261
   -584921.949 9   -449269.64348  21762709.605    21762709.3114   21762714.3684
     -1054.067        -821.351
  -3892269.441 8  -3019542.69246  24591213.352    24591213.1634   24591220.9184
      4088.757        3186.044
   5254422.846 9   4076282.95048  22320561.959    22320561.2574   22320566.4304
      -967.474        -753.876
  -4073946.660 9  -3169322.32248  20549407.509    20549406.9504   20549411.8794
       601.596         468.776
 -12495074.284 9  -9720726.88748  20131377.696    20131377.2264   20131382.1144
      1498.066        1167.324
  -3172165.155 9  -2467087.02546  23745200.173    23745199.6324   23745204.5984
      -460.390        -358.745
 -11589333.386 9  -9017742.27047  22488089.064    22488088.4944   22488093.4264
      1198.372         933.796
 96 10 31 17 47 29.9990000  0  9 17 28  3 25 23 21  1  9 31         -0.000636937
  10051529.057 9   7824597.00546  23407382.912    23407382.1474   23407388.9574
     -2411.116       -1878.792
  11924553.437 9   9281258.139 8  23395701.492    23395701.029    23395707.134
     -2653.132       -2067.376
   -553107.865 9   -424479.47048  21768763.611    21768763.3814   21768768.3964
     -1067.047        -831.465
  -4014995.022 8  -3115172.89046  24567859.314    24567859.1754   24567866.8144
      4092.856        3189.238
   5283452.882 9   4098903.73948  22326086.260    22326085.5434   22326090.7074
      -968.096        -754.361
  -4091948.669 9  -3183349.86248  20545981.875    20545981.3274   20545986.2174
       598.500         466.364
 -12539790.251 9  -9755570.49348  20122868.524    20122868.0714   20122872.9444
      1482.921        1155.523
  -3158124.868 9  -2456146.55147  23747871.755    23747871.3234   23747876.2764
      -475.660        -370.644
 -11625022.847 9  -9045552.24747  22481297.568    22481297.0074   22481301.9814
      1180.815         920.115
 96 10 31 17 47 59.9990000  0  9 17 28  3 25 23 21  1  9 31         -0.000653125
  10123933.943 9   7881016.31446  23421161.110    23421160.4204   23421167.2584
     -2416.573       -1883.044
  12004145.750 9   9343278.041 8  23410847.447    23410847.035    23410853.148
     -2653.763       -2067.867
   -520900.577 9   -399382.90548  21774892.515    21774892.2734   21774897.2724
     -1080.886        -842.249
  -4137847.916 8  -3210902.30046  24544481.112    24544480.9034   24544488.5544
      4096.534        3192.104
   5312509.431 9   4121545.18148  22331615.526    22331614.8474   22331620.0844
      -969.668        -755.585
  -4109861.942 9  -3197308.26648  20542573.131    20542572.5494   20542577.4684
       594.829         463.503
 -12584050.845 9  -9790059.26148  20114446.038    20114445.5754   20114450.4854
      1467.139        1143.225
  -3143635.833 9  -2444856.43047  23750628.445    23750628.3104   23750633.5654
      -491.052        -382.638
 -11660193.773 9  -9072958.17047  22474604.729    22474604.1724   22474609.2074
      1163.097         906.309
 96 10 31 17 48 29.9990000  0  9 17 28  3 25 23 21  1  9 31         -0.000669349
  10196488.556 9   7937552.29346  23434967.788    23434967.1364   23434974.0794
     -2420.869       -1886.391
  12083743.846 9   9405302.454 8  23425994.469    23425994.186    23426000.347
     -2653.258       -2067.474
   -488290.677 9   -373972.61948  21781098.024    21781097.7464   21781102.7594
     -1093.430        -852.023
  -4260823.009 8  -3306726.94546  24521079.732    24521079.4844   24521087.0984
      4101.419        3195.911
   5341596.819 9   4144210.64548  22337150.717    22337150.0404   22337155.2834
      -970.125        -755.942
  -4127677.305 9  -3211190.37248  20539183.019    20539182.4384   20539187.3344
       592.218         461.469
 -12627850.227 9  -9824188.64648  20106111.329    20106110.8514   20106115.7424
      1452.225        1131.604
  -3128696.089 9  -2433215.14546  23753471.632    23753471.2864   23753476.6984
      -505.350        -393.779
 -11694844.189 9  -9099958.51147  22468010.962    22468010.4144   22468015.4494
      1146.360         893.268
 96 10 31 17 48 59.9990000  0  9 17 28  3 25 23 21  1  9 31         -0.000685616
  10269188.178 9   7994201.26846  23448802.184    23448801.4324   23448808.4344
     -2426.157       -1890.512
  12163345.968 9   9467329.980 8  23441142.346    23441142.017    23441148.227
     -2653.916       -2067.986
   -455292.704 9   -348259.93748  21787377.417    21787377.1554   21787382.1694
     -1106.736        -862.392
  -4383930.980 8  -3402655.15445  24497652.847    24497652.7354   24497660.3444
      4105.577        3199.151
   5370728.282 9   4166910.46148  22342694.277    22342693.6254   22342698.8304
      -972.334        -757.663
  -4145381.990 9  -3224986.23748  20535813.907    20535813.3704   20535818.2544
       587.600         457.870
 -12671179.531 9  -9857951.73248  20097866.040    20097865.5674   20097870.4614
      1436.095        1119.035
  -3113306.671 9  -2421223.33746  23756400.424    23756400.0484   23756404.9414
      -520.953        -405.937
 -11728974.056 9  -9126553.22347  22461516.249    22461515.7344   22461520.7744
      1128.566         879.402
 96 10 31 17 49 29.9990000  0  9 17 28  3 25 23 21  1  9 31         -0.000701924
  10342038.898 9   8050967.97546  23462665.308    23462664.6294   23462671.4994
     -2430.820       -1894.145
  12242953.005 9   9529361.354 8  23456291.098    23456290.752    23456296.999
     -2653.418       -2067.598
   -421910.741 9   -322248.04548  21793729.803    21793729.5564   21793734.5994
     -1118.850        -871.831
  -4507182.574 8  -3498695.27545  24474198.752    24474198.6074   24474206.1664
      4111.200        3203.532
   5399914.583 9   4189653.01548  22348248.337    22348247.6794   22348252.8314
      -973.692        -758.721
  -4162950.382 9  -3238675.89648  20532470.799    20532470.2534   20532475.1094
       583.398         454.596
 -12714045.227 9  -9891353.57348  20089708.965    20089708.5064   20089713.4294
      1421.569        1107.716
  -3097467.971 9  -2408881.57547  23759414.373    23759413.9844   23759419.1684
      -535.087        -416.951
 -11762585.404 9  -9152743.89447  22455120.279    22455119.7324   22455124.7414
      1111.831         866.362
 96 10 31 17 49 59.9990000  0  9 17 28  3 25 23 21  1  9 31         -0.000718267
  10415051.994 9   8107861.21946  23476559.307    23476558.6514   23476565.4934
     -2436.165       -1898.310
  12322561.863 9   9591394.138 8  23471440.219    23471439.815    23471446.135
     -2653.202       -2067.430
   -388153.805 9   -295943.96648  21800153.614    21800153.3264   21800158.3254
     -1131.027        -881.320
  -4630587.733 8  -3594855.07546  24450715.542    24450715.1784   24450722.7584
      4116.297        3207.504
   5429155.539 9   4212438.14448  22353812.757    22353812.0524   22353817.2344
      -974.997        -759.738
  -4180372.767 9  -3252251.79448  20529155.504    20529154.9204   20529159.7554
       578.654         450.899
 -12756466.427 9  -9924409.05048  20081636.500    20081636.0374   20081640.9394
      1407.195        1096.515
  -3081190.120 9  -2396197.52946  23762512.139    23762511.7264   23762516.8134
      -549.673        -428.317
 -11795679.049 9  -9178531.17447  22448822.744    22448822.2394   22448827.2444
      1094.917         853.182
 96 10 31 17 50 29.9990000  0  9 17 28  3 25 23 21  1  9 31         -0.000734636
  10488240.860 9   8164891.41246  23490486.910    23490486.1364   23490492.9024
     -2442.914       -1903.569
  12402170.760 9   9653426.980 8  23486589.259    23486588.882    23486595.269
     -2653.828       -2067.918
   -354021.472 9   -269347.36748  21806648.823    21806648.5374   21806653.6254
     -1144.079        -891.490
  -4754131.368 8  -3691122.80046  24427205.962    24427205.6064   24427212.9924
      4120.210        3210.553
   5458441.878 9   4235258.65048  22359385.813    22359385.0704   22359390.2574
      -977.173        -761.433
  -4197645.186 9  -3265710.82848  20525868.713    20525868.1214   20525872.9164
       573.124         446.590
 -12798452.250 9  -9957125.26648  20073646.866    20073646.3964   20073651.3154
      1391.962        1084.646
  -3064457.379 9  -2383159.06246  23765695.967    23765695.5594   23765700.6124
      -565.540        -440.680
 -11828250.078 9  -9203911.20647  22442624.703    22442624.1874   22442629.2594
      1076.673         838.966
 96 10 31 17 50 59.9990000  0  9 17 28  3 25 23 21  1  9 31         -0.000751027
  10561616.946 9   8222067.50246  23504449.926    23504449.1584   23504455.9424
     -2449.190       -1908.460
  12481778.374 9   9715458.802 8  23501737.942    23501737.667    23501744.144
     -2653.715       -2067.830
   -319518.364 9   -242461.85148  21813214.510    21813214.2394   21813219.4254
     -1156.506        -901.173
  -4877808.624 8  -3787494.66346  24403670.972    24403670.5694   24403677.9464
      4124.501        3213.897
   5487772.597 9   4258113.72848  22364967.173    22364966.4894   22364971.7354
      -978.370        -762.366
  -4214769.579 9  -3279054.51648  20522610.003    20522609.4734   20522614.2494
       568.219         442.768
 -12839997.171 9  -9989497.92548  20065741.111    20065740.6364   20065745.5724
      1377.378        1073.282
  -3047266.142 9  -2369763.31447  23768967.536    23768967.3034   23768972.3064
      -580.814        -452.582
 -11860292.753 9  -9228879.54847  22436527.197    22436526.6374   22436531.7814
      1059.227         825.372
 96 10 31 17 51 29.9990000  0  9 17 28  3 25 23 21  1  9 31         -0.000767443
  10635188.144 9   8279395.62046  23518450.128    23518449.4294   23518456.1734
     -2455.749       -1913.571
  12561387.013 9   9777491.414 8  23516886.958    23516886.686    23516893.240
     -2653.776       -2067.877
   -284633.002 9   -215278.46548  21819853.009    21819852.7544   21819857.8804
     -1169.459        -911.267
  -5001597.635 8  -3883953.61646  24380114.512    24380114.5154   24380121.6674
      4127.886        3216.535
   5517136.959 9   4280995.02648  22370555.050    22370554.3634   22370559.6194
      -979.443        -763.202
  -4231742.079 9  -3292279.84848  20519380.221    20519379.6994   20519384.4964
       563.081         438.764
 -12881090.373 9 -10021518.59348  20057921.329    20057920.8434   20057925.7774
      1361.947        1061.257
  -3029610.038 9  -2356005.37746  23772327.585    23772327.0754   23772332.1884
      -596.517        -464.818
 -11891810.321 9  -9253438.70647  22430529.581    22430529.0494   22430534.1924
      1041.614         811.647
 96 10 31 17 51 59.9990000  0  9 17 28  3 25 23 21  1  9 31         -0.000783885
  10708951.194 9   8336873.24146  23532486.808    23532486.1634   23532492.8954
     -2462.405       -1918.757
  12640997.874 9   9839525.766 8  23532036.379    23532036.117    23532042.802
     -2654.100       -2068.130
   -249358.609 9   -187791.95948  21826565.476    21826565.2304   21826570.4284
     -1182.779        -921.646
  -5125483.211 8  -3980487.81946  24356539.839    24356539.9554   24356546.9204
      4130.656        3218.693
   5546529.564 9   4303898.33148  22376148.259    22376147.5984   22376152.8444
      -980.687        -764.172
  -4248557.968 9  -3305383.15048  20516180.252    20516179.7104   20516184.5604
       557.422         434.355
 -12921716.182 9 -10053175.05948  20050190.454    20050189.9774   20050194.9304
      1345.772        1048.654
  -3011474.882 9  -2341874.10447  23775778.272    23775777.9844   23775783.1694
      -612.852        -477.547
 -11922800.696 9  -9277587.06347  22424632.276    22424631.7384   22424636.9244
      1023.883         797.831
 96 10 31 17 52 29.9990000  0  9 17 28  3 25 23 21  1  9 31         -0.000800360
  10782896.545 9   8394492.91246  23546558.238    23546557.6134   23546564.3484
     -2467.872       -1923.017
  12720603.215 9   9901555.817 8  23547184.814    23547184.542    23547191.293
     -2653.503       -2067.665
   -213698.568 9   -160004.94248  21833351.422    21833351.1564   21833356.3684
     -1195.006        -931.173
  -5249464.512 8  -4077096.61846  24332946.996    24332946.9754   24332953.9334
      4134.266        3221.506
   5575948.122 9   4326821.85448  22381746.460    22381745.7914   22381751.0354
      -981.102        -764.495
  -4265215.956 9  -3318363.41148  20513010.317    20513009.8274   20513014.6324
       552.566         430.571
 -12961865.999 9 -10084460.62948  20042550.189    20042549.7074   20042554.6564
      1330.257        1036.564
  -2992867.876 9  -2327375.14746  23779319.397    23779318.9554   23779323.8974
      -628.102        -489.430
 -11953265.579 9  -9301325.95647  22418835.026    22418834.4544   22418839.6114
      1006.558         784.331
 96 10 31 17 52 59.9990000  0  9 17 28  3 25 23 21  1  9 31         -0.000816872
  10857011.286 9   8452244.56646  23560661.861    23560661.2034   23560668.0824
     -2473.886       -1927.703
  12800204.955 9   9963583.060 8  23562332.611    23562332.327    23562339.084
     -2653.982       -2068.038
   -177661.234 9   -131923.93048  21840209.079    21840208.7764   21840214.0284
     -1208.289        -941.524
  -5373540.272 8  -4173779.01646  24309336.031    24309336.1254   24309343.0904
      4136.680        3223.387
   5605393.162 9   4349766.00948  22387349.667    22387348.9834   22387354.2614
      -982.668        -765.715
  -4281707.504 9  -3331213.97348  20509872.083    20509871.6034   20509876.4074
       546.146         425.568
 -13001534.841 9 -10115371.40748  20035001.449    20035000.9664   20035005.9164
      1313.664        1023.634
  -2973790.937 9  -2312510.03047  23782949.687    23782949.2764   23782954.3974
      -644.428        -502.152
 -11983199.819 9  -9324651.34447  22413138.714    22413138.1914   22413143.3454
       988.333         770.130
 96 10 31 17 53 29.9990000  0  9 17 28  3 25 23 21  1  9 31         -0.000833418
  10931286.336 9   8510121.14246  23574795.997    23574795.2764   23574802.2604
     -2478.087       -1930.977
  12879801.513 9  10025606.286 8  23577479.375    23577479.123    23577485.907
     -2652.648       -2066.998
   -141242.226 9   -103545.50448  21847139.359    21847139.1244   21847144.4054
     -1219.870        -950.548
  -5497705.554 8  -4270531.15546  24285708.262    24285708.0454   24285715.1664
      4140.814        3226.608
   5634874.634 9   4372738.55548  22392959.729    22392959.0734   22392964.4474
      -983.133        -766.078
  -4298026.705 9  -3343930.24448  20506766.669    20506766.1804   20506770.9994
       541.543         421.982
 -13040727.897 9 -10145911.44748  20027543.235    20027542.7894   20027547.7054
      1299.094        1012.281
  -2954244.734 9  -2297279.27047  23786668.976    23786668.6724   23786673.9684
      -658.885        -513.417
 -12012609.924 9  -9347568.32347  22407542.222    22407541.7374   22407546.8094
       971.921         757.341
 96 10 31 17 53 59.9990000  0  9 17 28  3 25 23 21  1  9 31         -0.000849986
  11005726.771 9   8568126.58846  23588961.577    23588960.9254   23588967.8904
     -2484.168       -1935.715
  12959396.978 9  10087628.622 8  23592626.068    23592625.687    23592632.508
     -2653.210       -2067.436
   -104441.370 9    -74869.54148  21854142.364    21854142.1104   21854147.3934
     -1233.075        -960.838
  -5621961.576 8  -4367353.99146  24262063.095    24262062.8874   24262070.0294
      4143.346        3228.581
   5664417.648 9   4395759.05448  22398581.645    22398580.9724   22398586.3384
      -986.024        -768.330
  -4314171.755 9  -3356510.80948  20503694.391    20503693.9044   20503698.7094
       535.189         417.030
 -13079452.718 9 -10176086.62348  20020174.178    20020173.7154   20020178.6084
      1282.956         999.706
  -2934226.961 9  -2281681.03346  23790478.357    23790478.0454   23790483.2114
      -675.091        -526.045
 -12041486.838 9  -9370069.83047  22402047.155    22402046.6454   22402051.7464
       953.533         743.013
 96 10 31 17 54 29.9990000  0  9 17 28  3 25 23 21  1  9 31         -0.000866571
  11080324.193 9   8626254.36246  23603157.085    23603156.3934   23603163.3654
     -2488.929       -1939.425
  13038988.317 9  10149647.758 8  23607771.842    23607771.503    23607778.274
     -2652.811       -2067.125
    -67263.178 9    -45899.54548  21861217.227    21861216.9234   21861222.1994
     -1245.340        -970.395
  -5746317.595 8  -4464254.72946  24238398.897    24238398.6384   24238405.7934
      4147.050        3231.468
   5694027.202 9   4418831.39948  22404216.261    22404215.5474   22404220.8974
      -987.812        -769.724
  -4330150.646 9  -3368961.90548  20500653.777    20500653.2744   20500658.0574
       530.115         413.077
 -13117720.894 9 -10205905.98048  20012891.968    20012891.5304   20012896.4184
      1268.299         988.285
  -2913744.570 9  -2265720.77546  23794376.040    23794375.5784   23794380.7844
      -690.410        -537.982
 -12069829.391 9  -9392154.95947  22396653.760    22396653.2524   22396658.3644
       935.925         729.292
 96 10 31 17 54 59.9990000  0  9 17 28  3 25 23 21  1  9 31         -0.000883171
  11155068.113 9   8684496.28646  23617380.441    23617379.7544   23617386.7924
     -2494.458       -1943.734
  13118572.138 9  10211661.043 8  23622916.122    23622915.906    23622922.616
     -2653.057       -2067.317
    -29710.522 9    -16637.76648  21868363.303    21868362.9874   21868368.3694
     -1258.487        -980.639
  -5870776.038 8  -4561235.26746  24214714.959    24214714.9254   24214722.2404
      4149.892        3233.682
   5723699.877 9   4441952.92348  22409862.804    22409862.1184   22409867.5304
      -990.692        -771.968
  -4345967.672 9  -3381286.87048  20497643.953    20497643.4564   20497648.2154
       524.030         408.335
 -13155539.771 9 -10235375.23148  20005695.253    20005694.8244   20005699.7154
      1252.593         976.046
  -2892790.671 9  -2249393.08447  23798363.258    23798363.0034   23798368.3284
      -706.789        -550.745
 -12097638.257 9  -9413824.22947  22391361.939    22391361.4184   22391366.5444
       917.789         715.160
 96 10 31 17 55 29.9990000  0  9 17 28  3 25 23 21  1  9 31         -0.000899791
  11229967.750 9   8742859.55746  23631633.448    23631632.7374   23631639.8014
     -2499.104       -1947.354
  13198143.417 9  10273664.546 8  23638058.193    23638057.929    23638064.621
     -2651.884       -2066.403
      8214.842 9     12914.44448  21875580.325    21875579.9574   21875585.3914
     -1270.003        -989.613
  -5995345.675 8  -4658302.42346  24191010.040    24191009.8654   24191017.4114
      4154.527        3237.294
   5753440.021 9   4465127.03347  22415522.291    22415521.5494   22415526.8944
      -992.085        -773.053
  -4361620.335 9  -3393483.75848  20494665.346    20494664.8724   20494669.5974
       519.336         404.677
 -13192900.443 9 -10264487.44248  19998585.785    19998585.3334   19998590.2254
      1237.880         964.582
  -2871361.675 9  -2232695.20647  23802441.280    23802440.9614   23802446.3254
      -722.041        -562.629
 -12124924.721 9  -9435086.41647  22386169.486    22386168.9384   22386174.0754
       901.013         702.088
 96 10 31 17 55 59.9990000  0  9 17 28  3 25 23 21  1  9 31         -0.000916437
  11305033.745 9   8801352.43946  23645918.121    23645917.4364   23645924.4904
     -2504.801       -1951.793
  13277699.039 9  10335655.863 8  23653197.178    23653196.999    23653203.627
     -2651.308       -2065.954
     46503.539 9     42749.76648  21882866.346    21882866.0534   21882871.5314
     -1282.214        -999.128
  -6120033.955 8  -4755462.00846  24167282.794    24167282.4994   24167290.0014
      4158.420        3240.327
   5783235.352 9   4488344.14548  22421192.163    22421191.4064   22421196.7554
      -993.691        -774.305
  -4377114.680 9  -3405557.28148  20491716.953    20491716.4394   20491721.1234
       513.902         400.443
 -13229794.550 9 -10293236.09548  19991565.052    19991564.5794   19991569.5084
      1222.119         952.301
  -2849451.591 9  -2215622.42646  23806610.563    23806610.2624   23806615.5284
      -738.201        -575.221
 -12151684.489 9  -9455938.19247  22381077.214    22381076.7514   22381081.9344
       883.406         688.368
 96 10 31 17 56 29.9990000  0  9 17 28  3 25 23 21  1  9 31         -0.000933111
  11380273.433 9   8859980.69446  23660235.811    23660235.1984   23660242.2284
     -2510.222       -1956.017
  13357234.085 9  10397631.134 8  23668332.337    23668332.083    23668338.773
     -2649.998       -2064.934
     85157.919 9     72870.03848  21890222.053    21890221.7624   21890227.2004
     -1293.707       -1008.083
  -6244833.671 8  -4852708.41746  24143534.064    24143533.9684   24143541.3644
      4162.365        3243.401
   5813072.633 9   4511593.94548  22426869.933    22426869.2434   22426874.6914
      -994.542        -774.968
  -4392440.941 9  -3417499.83648  20488800.449    20488799.9334   20488804.6174
       508.857         396.512
 -13266217.420 9 -10321617.55148  19984633.993    19984633.5274   19984638.4614
      1206.955         940.484
  -2827064.771 9  -2198178.21747  23810870.604    23810870.3424   23810875.7384
      -753.303        -586.989
 -12177921.278 9  -9476382.46247  22376084.562    22376084.0474   22376089.2014
       866.681         675.336
 96 10 31 17 56 59.9990000  0  9 17 28  3 25 23 21  1  9 31         -0.000949816
  11455707.504 9   8918760.39546  23674590.584    23674589.8934   23674596.9384
     -2517.333       -1961.558
  13436747.920 9  10459589.886 8  23683463.327    23683463.134    23683469.871
     -2649.697       -2064.699
    124176.168 9    103273.84548  21897646.965    21897646.7034   21897652.1344
     -1306.264       -1017.868
  -6369720.348 8  -4950022.58246  24119768.908    24119768.7464   24119776.1824
      4164.611        3245.151
   5842965.140 9   4534886.79148  22432558.311    22432557.6674   22432563.0874
      -997.119        -776.976
  -4407590.660 9  -3429304.81748  20485917.573    20485917.0574   20485921.7254
       502.444         391.515
 -13302155.406 9 -10349621.17048  19977795.170    19977794.7314   19977799.6794
      1190.227         927.450
  -2804208.283 9  -2180368.00546  23815220.282    23815219.7924   23815225.1734
      -769.108        -599.305
 -12203637.938 9  -9496421.42347  22371190.850    22371190.3574   22371195.4604
       849.000         661.558
 96 10 31 17 57 29.9990000  0  9 17 28  3 25 23 21  1  9 31         -0.000966558
  11531338.670 9   8977693.68246  23688982.803    23688982.0904   23688989.1924
     -2524.906       -1967.459
  13516232.969 9  10521526.193 8  23698588.956    23698588.688    23698595.506
     -2649.644       -2064.658
    163550.451 9    133955.07748  21905139.656    21905139.3864   21905144.8314
     -1319.100       -1027.870
  -6494688.969 8  -5047400.58446  24095988.109    24095987.8784   24095995.4074
      4166.200        3246.390
   5872914.265 9   4558223.72747  22438257.454    22438256.7934   22438262.2764
      -999.798        -779.063
  -4422574.079 9  -3440980.21848  20483066.365    20483065.8294   20483070.4834
       496.112         386.581
 -13337615.728 9 -10377252.58748  19971047.296    19971046.8434   19971051.7964
      1173.634         914.520
  -2780903.295 9  -2162208.31846  23819654.791    23819654.4294   23819659.8894
      -784.830        -611.556
 -12228845.896 9  -9516063.99747  22366393.956    22366393.4184   22366398.5794
       831.030         647.556
 96 10 31 17 57 59.9990000  0  9 17 28  3 25 23 21  1  9 31         -0.000983323
  11607165.510 9   9036779.43946  23703412.288    23703411.4934   23703418.6364
     -2530.256       -1971.628
  13595692.297 9  10583442.459 8  23713709.637    23713709.336    23713716.227
     -2647.865       -2063.271
    203288.727 9    164919.94548  21912701.557    21912701.3054   21912706.7854
     -1330.337       -1036.626
  -6619717.350 8  -5144825.15146  24072195.865    24072195.7994   24072203.2504
      4168.849        3248.454
   5902923.224 9   4581607.28947  22443967.909    22443967.2614   22443972.8434
     -1001.162        -780.126
  -4437381.846 9  -3452518.74648  20480248.556    20480248.0314   20480252.6844
       490.848         382.479
 -13372608.041 9 -10404519.31848  19964388.452    19964388.0094   19964392.9644
      1159.033         903.143
  -2757158.548 9  -2143705.99347  23824173.218    23824172.8944   23824178.7634
      -798.471        -622.185
 -12253528.041 9  -9535296.84947  22361697.153    22361696.5844   22361701.6984
       814.304         634.523
 96 10 31 17 58 29.9990000  0  9 17 28  3 25 23 21  1  9 31         -0.001000109
  11683168.127 9   9096002.16746  23717875.209    23717874.3974   23717881.4744
     -2535.371       -1975.614
  13675122.306 9  10645335.887 8  23728824.748    23728824.435    23728831.347
     -2646.378       -2062.113
    243383.122 9    196162.30448  21920331.234    21920330.9984   21920336.5344
     -1341.488       -1045.315
  -6744791.158 8  -5242285.12846  24048395.134    24048394.9964   24048402.3944
      4170.508        3249.746
   5933007.852 9   4605049.83747  22449692.931    22449692.2834   22449697.7784
     -1003.313        -781.802
  -4452008.761 9  -3463916.34848  20477465.124    20477464.6494   20477469.2874
       485.515         378.323
 -13407137.180 9 -10431425.13748  19957817.807    19957817.3464   19957822.2764
      1143.978         891.411
  -2732977.589 9  -2124863.66646  23828775.021    23828774.7264   23828780.0844
      -812.597        -633.192
 -12277684.462 9  -9554120.03647  22357100.256    22357099.7764   22357104.9444
       797.129         621.139
 96 10 31 17 58 59.9980000  0  9 17 28  3 25 23 21  1  9 31         -0.001016912
  11759325.679 9   9155345.62146  23732367.523    23732366.8044   23732373.8014
     -2541.175       -1980.136
  13754520.274 9  10707204.344 8  23743933.768    23743933.460    23743940.408
     -2646.251       -2062.014
    283823.972 9    227674.62848  21928026.938    21928026.6744   21928032.2344
     -1353.969       -1055.041
  -6869903.798 8  -5339775.35446  24024586.848    24024586.7114   24024594.1764
      4171.367        3250.416
   5963161.999 9   4628546.54647  22455431.133    22455430.5024   22455435.9464
     -1006.205        -784.056
  -4466464.422 9  -3475180.51148  20474714.307    20474713.8144   20474718.4574
       478.995         373.243
 -13441201.991 9 -10457969.14048  19951335.517    19951335.0424   19951339.9784
      1127.933         878.909
  -2708352.992 9  -2105675.72046  23833460.942    23833460.6374   23833465.9764
      -828.387        -645.496
 -12301305.469 9  -9572526.02747  22352605.386    22352604.8864   22352610.0514
       778.258         606.435
 96 10 31 17 59 29.9980000  0  9 17 28  3 25 23 21  1  9 31         -0.001033730
  11835633.028 9   9214805.79646  23746888.338    23746887.6904   23746894.6504
     -2546.103       -1983.976
  13833889.376 9  10769050.315 8  23759037.374    23759036.988    23759043.917
     -2645.244       -2061.229
    324620.850 9    259464.37448  21935790.330    21935790.0574   21935795.6484
     -1365.979       -1064.399
  -6995073.178 9  -5437309.80946  24000767.766    24000767.6384   24000775.1324
      4172.964        3251.660
   5993366.287 9   4652082.31447  22461178.839    22461178.1464   22461183.6584
     -1007.740        -785.252
  -4480756.965 9  -3486317.57348  20471994.537    20471994.0224   20471998.6924
       473.593         369.034
 -13474816.081 9 -10484161.93348  19944938.980    19944938.5014   19944943.4164
      1112.741         867.071
  -2683271.993 9  -2086132.14146  23838233.554    23838233.3014   23838238.8494
      -843.857        -657.551
 -12324386.638 9  -9590511.35147  22348213.098    22348212.6784   22348217.8264
       760.124         592.304
 96 10 31 17 59 59.9980000  0  9 17 28  3 25 23 21  1  9 31         -0.001050552
  11912095.776 9   9274387.07646  23761438.744    23761438.0684   23761445.1144
     -2551.348       -1988.063
  13913234.281 9  10830877.433 8  23774136.133    23774135.974    23774142.878
     -2644.350       -2060.532
    365784.143 9    291539.64648  21943623.402    21943623.1714   21943628.7594
     -1378.154       -1073.886
  -7120287.162 9  -5534879.02046  23976940.482    23976940.2424   23976947.5094
      4174.640        3252.966
   6023631.214 9   4675665.33947  22466938.075    22466937.4174   22466942.9034
     -1009.959        -786.981
  -4494881.876 9  -3497324.00548  20469306.649    20469306.1624   20469310.8414
       468.265         364.882
 -13507960.728 9 -10509988.92148  19938631.757    19938631.2794   19938636.2114
      1096.973         854.784
  -2657716.713 9  -2066218.96346  23843096.585    23843096.2914   23843101.6674
      -859.783        -669.961
 -12346910.312 9  -9608062.27947  22343927.029    22343926.5924   22343931.7134
       741.639         577.901
 96 10 31 18  0 29.9980000  0  9 17 28  3 25 23 21  1  9 31         -0.001067380
  11988720.078 9   9334094.23546  23776019.908    23776019.2164   23776026.3914
     -2557.347       -1992.738
  13992555.136 9  10892685.789 8  23789230.552    23789230.267    23789237.256
     -2644.027       -2060.281
    407319.000 9    323904.44148  21951527.188    21951526.9444   21951532.6664
     -1391.138       -1084.004
  -7245542.686 8  -5632480.62246  23953105.182    23953104.8714   23953112.0374
      4175.492        3253.630
   6053962.360 9   4699299.96947  22472709.911    22472709.2194   22472714.7844
     -1012.286        -788.794
  -4508853.381 9  -3508210.90448  20466647.996    20466647.4994   20466652.1584
       462.705         360.549
 -13540626.192 9 -10535442.53048  19932415.754    19932415.2874   19932420.1874
      1080.439         841.901
  -2631677.999 9  -2045929.07346  23848051.671    23848051.4394   23848056.9014
      -876.338        -682.861
 -12368880.936 9  -9625182.26047  22339746.328    22339745.7784   22339750.8624
       722.637         563.094
 96 10 31 18  0 59.9980000  0  9 17 28  3 25 23 21  1  9 31         -0.001084226
  12065503.966 9   9393925.72646  23790631.400    23790630.6944   23790638.0104
     -2562.359       -1996.643
  14071837.444 9  10954464.124 8  23804317.635    23804317.180    23804324.224
     -2642.195       -2058.853
    449222.416 9    356556.43648  21959501.154    21959500.9574   21959506.6514
     -1403.057       -1093.291
  -7370856.084 9  -5730127.33246  23929258.818    23929258.5114   23929265.5234
      4178.025        3255.604
   6084333.425 9   4722965.69647  22478489.371    22478488.6804   22478494.2434
     -1013.225        -789.526
  -4522680.616 9  -3518985.38548  20464016.736    20464016.2614   20464020.9434
       458.342         357.150
 -13572823.075 9 -10560531.00648  19926288.929    19926288.4534   19926293.3344
      1065.291         830.097
  -2605176.734 9  -2025278.78346  23853094.858    23853094.5274   23853099.9594
      -891.114        -694.375
 -12390311.052 9  -9641881.06047  22335668.311    22335667.7884   22335672.8514
       705.184         549.494
 96 10 31 18  1 29.9980000  0  9 17 28  3 25 23 21  1  9 31         -0.001101095
  12142450.521 9   9453883.99046  23805273.855    23805273.1014   23805280.5504
     -2567.350       -2000.532
  14151071.631 9  11016204.951 8  23819395.320    23819394.871    23819402.081
     -2640.149       -2057.259
    491489.475 9    389491.78448  21967544.333    21967544.1384   21967549.8394
     -1414.607       -1102.291
  -7496232.567 9  -5827823.21346  23905400.283    23905400.1234   23905406.9764
      4180.333        3257.402
   6114749.039 9   4746666.14647  22484277.259    22484276.5974   22484282.1294
     -1014.530        -790.543
  -4536366.465 9  -3529649.69048  20461412.468    20461411.9554   20461416.6154
       454.006         353.771
 -13604547.186 9 -10585251.09148  19920252.079    19920251.5744   19920256.4254
      1049.607         817.875
  -2578222.687 9  -2004275.66246  23858223.955    23858223.7214   23858229.0504
      -905.822        -705.835
 -12411209.624 9  -9658165.66647  22331691.503    22331690.9564   22331696.0104
       687.976         536.085
 96 10 31 18  1 59.9980000  0  9 17 28  3 25 23 21  1  9 31         -0.001117989
  12219565.155 9   9513973.20746  23819948.370    23819947.6034   23819954.9674
     -2573.767       -2005.533
  14230265.212 9  11077914.150 8  23834465.195    23834464.823    23834472.135
     -2639.573       -2056.810
    534115.236 9    422706.63848  21975655.850    21975655.5944   21975661.2844
     -1427.278       -1112.165
  -7621655.203 9  -5925555.06746  23881533.048    23881532.9084   23881539.7114
      4180.871        3257.822
   6145225.016 9   4770413.62647  22490076.828    22490076.0534   22490081.5114
     -1017.287        -792.691
  -4549893.101 9  -3540189.93148  20458838.462    20458837.9654   20458842.5764
       447.652         348.820
 -13635778.908 9 -10609587.49148  19914308.895    19914308.4294   19914313.2464
      1032.471         804.523
  -2550810.464 9  -1982915.50646  23863440.354    23863440.1044   23863445.5054
      -921.835        -718.313
 -12431568.566 9  -9674029.79247  22327817.393    22327816.7834   22327821.7944
       669.248         521.492
 96 10 31 18  2 29.9980000  0  9 17 28  3 25 23 21  1  9 31         -0.001134894
  12296865.281 8   9574206.96746  23834658.077    23834657.3464   23834664.8064
     -2579.774       -2010.214
  14309437.311 9  11139606.594 8  23849531.074    23849530.767    23849538.218
     -2638.781       -2056.193
    577113.905 9    456212.06648  21983838.223    21983837.9534   21983843.7084
     -1439.448       -1121.648
  -7747087.317 9  -6023294.31746  23857664.123    23857663.9424   23857670.6884
      4181.219        3258.093
   6175773.918 9   4794217.92947  22495890.049    22495889.3144   22495894.7874
     -1019.483        -794.402
  -4563224.884 9  -3550578.34448  20456301.547    20456301.0574   20456305.6424
       440.773         343.459
 -13666500.993 9 -10633526.77748  19908462.708    19908462.2484   19908467.0224
      1015.477         791.281
  -2522921.112 9  -1961183.59946  23868747.639    23868747.3754   23868752.9024
      -937.550        -730.558
 -12451372.078 9  -9689461.11047  22324048.840    22324048.3224   22324053.3334
       650.669         507.015
 96 10 31 18  2 59.9980000  0  9 17 28  3 25 23 21  1  9 31         -0.001151792
  12374384.217 8   9634611.22446  23849409.491    23849408.8864   23849416.3984
     -2587.440       -2016.187
  14388620.696 8  11201307.845 8  23864599.146    23864598.853    23864606.333
     -2639.451       -2056.715
    620508.866 9    490026.30648  21992096.110    21992095.8664   21992101.5794
     -1452.764       -1132.024
  -7872497.343 9  -6121016.37146  23833799.451    23833799.1704   23833805.7594
      4179.980        3257.127
   6206429.784 9   4818105.58347  22501723.731    22501722.9654   22501728.3954
     -1023.616        -797.623
  -4576310.534 9  -3560774.96048  20453811.405    20453810.9454   20453815.5374
       432.250         336.818
 -13696676.493 9 -10657040.14948  19902720.499    19902720.0594   19902724.8124
       996.937         776.834
  -2494527.897 9  -1939059.03246  23874150.785    23874150.4794   23874155.9014
      -954.701        -743.923
 -12470583.134 9  -9704430.77147  22320393.105    22320392.5764   22320397.6044
       630.638         491.406
 96 10 31 18  3 29.9980000  0 10 17 28  3 25 23 21  1  9 31 15      -0.001168681
  12452115.478 8   9695180.93245  23864201.366    23864200.7414   23864208.3144
     -2595.032       -2022.103
  14467810.310 8  11263013.938 8  23879668.577    23879668.231    23879675.659
     -2640.110       -2057.229
    664283.819 9    524136.62748  22000426.193    22000425.9794   22000431.7094
     -1465.807       -1142.187
  -7997878.021 9  -6218715.56446  23809940.259    23809940.0644   23809946.5374
      4178.414        3255.907
   6237199.725 9   4842082.12147  22507579.031    22507578.3554   22507583.7674
     -1027.945        -800.996
  -4589154.664 9  -3570783.38748  20451367.199    20451366.7654   20451371.4044
       423.699         330.155
 -13726316.925 9 -10680136.59048  19897080.115    19897079.6804   19897084.4014
       978.965         762.830
  -2465631.899 9  -1916542.71746  23879649.491    23879649.2594   23879654.8844
      -971.885        -757.313
 -12489209.632 9  -9718944.95047  22316848.649    22316848.0904   22316853.1344
       610.853         475.989
   -332277.09319   -237478.81256  24339560.264           0.0005   24339566.8765
      4463.092        3477.734
 96 10 31 18  3 59.9980000  0 10 17 28  3 25 23 21  1  9 31 15      -0.001185551
  12530068.795 8   9755923.66445  23879035.450    23879034.7384   23879042.3894
     -2601.467       -2027.117
  14547012.228 8  11324729.646 8  23894740.338    23894740.017    23894747.267
     -2639.515       -2056.765
    708440.446 9    558544.36648  22008828.919    22008828.6964   22008834.4104
     -1477.434       -1151.247
  -8123211.607 9  -6316378.06546  23786090.028    23786089.8184   23786096.2014
      4177.777        3255.411
   6268097.904 9   4866158.59847  22513458.917    22513458.1414   22513463.4824
     -1031.533        -803.792
  -4601741.653 9  -3580591.43948  20448972.005    20448971.5654   20448976.2264
       415.883         324.065
 -13755431.410 9 -10702823.19748  19891539.784    19891539.3644   19891544.0864
       962.625         750.097
  -2436234.141 9  -1893635.40946  23885243.819    23885243.5264   23885248.9364
      -987.467        -769.455
 -12507251.781 9  -9733003.76747  22313415.303    22313414.8104   22313419.8144
       592.378         461.593
   -466152.404 9   -341797.21646  24314084.919    24314084.4495   24314090.6504
      4462.473        3477.252
 96 10 31 18  4 29.9980000  0 10 17 28  3 25 23 21  1  9 31 15      -0.001202398
  12608244.295 9   9816839.56045  23893911.748    23893911.1104   23893918.9774
     -2610.552       -2034.196
  14626220.331 8  11386450.166 8  23909813.360    23909813.085    23909820.144
     -2641.273       -2058.135
    752961.767 9    593236.27548  22017301.055    22017300.8024   22017306.5804
     -1491.039       -1161.849
  -8248510.843 9  -6414013.79846  23762246.428    23762246.2004   23762252.4914
      4175.377        3253.541
   6299136.592 9   4890344.53747  22519365.278    22519364.6034   22519370.0134
     -1038.060        -808.878
  -4614064.946 9  -3590194.02448  20446627.031    20446626.5634   20446631.2224
       405.263         315.789
 -13784032.635 9 -10725109.86148  19886097.142    19886096.7344   19886101.4464
       943.831         735.453
  -2406340.191 9  -1870341.47646  23890932.455    23890932.1554   23890937.5554
     -1005.759        -783.708
 -12524711.954 9  -9746609.11647  22310092.753    22310092.3284   22310097.3194
       571.102         445.014
   -599982.801 9   -446080.62246  24288617.976    24288617.2814   24288624.0834
      4459.275        3474.760
 96 10 31 18  4 59.9980000  0 10 17 28  3 25 23 21  1  9 31 15      -0.001219213
  12686640.281 8   9877927.24645  23908830.109    23908829.4864   23908837.2864
     -2617.191       -2039.370
  14705438.558 8  11448178.550 8  23924888.379    23924888.010    23924894.981
     -2641.125       -2058.019
    797849.623 9    628213.79948  22025842.847    22025842.6484   22025848.4374
     -1502.898       -1171.089
  -8373786.092 9  -6511630.84546  23738407.215    23738407.1074   23738413.3024
      4174.853        3253.132
   6330333.964 9   4914654.14747  22525302.083    22525301.3644   22525306.7214
     -1043.158        -812.850
  -4626117.820 9  -3599585.89048  20444333.444    20444332.9784   20444337.6684
       397.016         309.363
 -13812121.912 9 -10746997.61048  19880751.945    19880751.5214   19880756.2254
       927.517         722.740
  -2375943.609 9  -1846655.86746  23896716.977    23896716.6784   23896721.8194
     -1022.102        -796.443
 -12541579.056 9  -9759752.32847  22306883.054    22306882.6564   22306887.6704
       551.947         430.089
   -733759.802 9   -550322.40946  24263160.894    24263160.3704   24263167.1364
      4457.863        3473.659
 96 10 31 18  5 29.9980000  0 10 17 28  3 25 23 21  1  9 31 15      -0.001235983
  12765259.617 9   9939188.97345  23923791.009    23923790.3354   23923798.1204
     -2623.371       -2044.185
  14784672.514 9  11509919.221 8  23939966.093    23939965.874    23939972.765
     -2640.541       -2057.564
    843120.306 9    663489.62548  22034457.591    22034457.4084   22034463.1944
     -1514.693       -1180.280
  -8499021.417 9  -6609216.78646  23714575.684    23714575.5854   23714581.7794
      4174.733        3253.039
   6361705.808 9   4939099.70247  22531271.870    22531271.2394   22531276.6404
     -1047.672        -816.368
  -4637896.030 9  -3608763.73048  20442092.117    20442091.6484   20442096.3664
       388.914         303.050
 -13839705.752 9 -10768491.51048  19875502.910    19875502.5064   19875507.1844
       911.761         710.463
  -2345035.515 9  -1822571.66946  23902598.610    23902598.2114   23902603.4184
     -1037.758        -808.643
 -12557847.399 9  -9772428.97547  22303787.359    22303786.9274   22303791.9504
       533.029         415.347
   -867472.660 8   -654514.19845  24237716.259    24237715.6294   24237722.4204
      4456.806        3472.836
 96 10 31 18  5 59.9980000  0 10 17 28  3 25 23 21  1  9 31 15      -0.001252713
  12844092.314 8  10000616.92045  23938792.523    23938791.8624   23938799.6734
     -2631.390       -2050.434
  14863918.919 9  11571669.547 8  23955046.412    23955046.018    23955053.020
     -2642.026       -2058.722
    888779.505 9    699068.19448  22043146.353    22043146.1514   22043151.9014
     -1528.789       -1191.264
  -8624221.797 9  -6706775.49546  23690750.934    23690750.7634   23690756.8914
      4172.542        3251.331
   6393241.896 9   4963673.23547  22537273.096    22537272.4464   22537277.8354
     -1054.095        -821.373
  -4649404.944 9  -3617731.73248  20439902.045    20439901.5844   20439906.2984
       378.959         295.293
 -13866770.521 9 -10789580.93648  19870352.683    19870352.2654   19870356.9244
       893.104         695.925
  -2313627.384 9  -1798097.85746  23908575.190    23908574.8674   23908580.3054
     -1055.686        -822.612
 -12573506.952 9  -9784631.23547  22300807.347    22300806.9334   22300812.0394
       511.464         398.543
  -1001119.939 8   -758654.84845  24212284.070    24212283.5714   24212290.0504
      4453.459        3470.228
 96 10 31 18  6 29.9980000  0 10 17 28  3 25 23 21  1  9 31 15      -0.001269411
  12923114.205 9  10062192.33545  23953829.875    23953829.3134   23953836.9444
     -2636.958       -2054.772
  14943165.932 8  11633420.385 8  23970126.572    23970126.233    23970133.314
     -2641.329       -2058.178
    934828.917 9    734950.82448  22051909.298    22051909.1004   22051914.7974
     -1541.520       -1201.184
  -8749398.806 9  -6804315.98746  23666930.505    23666930.4174   23666936.4364
      4172.221        3251.081
   6424917.489 9   4988355.47347  22543300.734    22543300.0914   22543305.5564
     -1057.715        -824.194
  -4660668.938 9  -3626508.88948  20437758.619    20437758.1484   20437762.8424
       371.781         289.699
 -13893317.391 9 -10810266.81448  19865300.964    19865300.5574   19865305.2294
       876.438         682.939
  -2281715.919 9  -1773231.84246  23914647.790    23914647.5284   23914653.0624
     -1071.873        -835.226
 -12588563.112 9  -9796363.32547  22297942.164    22297941.7434   22297946.8754
       492.062         383.425
  -1134708.442 9   -862749.82445  24186863.090    24186862.3494   24186869.1374
      4452.135        3469.196
 96 10 31 18  6 59.9980000  0 10 17 28  3 25 23 21  1  9 31 15      -0.001286078
  13002320.391 9  10123911.33746  23968902.409    23968901.8804   23968909.3864
     -2644.290       -2060.486
  15022413.166 8  11695171.385 8  23985206.924    23985206.556    23985213.727
     -2642.272       -2058.913
    981294.489 9    771157.73848  22060751.305    22060751.1494   22060756.8404
     -1556.595       -1212.931
  -8874529.523 9  -6901820.41546  23643118.850    23643118.8054   23643124.9574
      4169.227        3248.748
   6456717.770 9   5013134.88047  22549352.189    22549351.5204   22549356.9584
     -1062.866        -828.207
  -4671703.713 9  -3635107.42748  20435658.781    20435658.2844   20435663.0004
       363.363         283.140
 -13919346.227 9 -10830549.02348  19860347.824    19860347.4304   19860352.1124
       858.138         668.679
  -2249305.678 9  -1747977.15146  23920815.220    23920814.8734   23920820.5164
     -1089.409        -848.890
 -12603022.748 9  -9807630.59047  22295190.561    22295190.1594   22295195.3234
       471.381         367.310
  -1268234.036 9   -966795.78846  24161453.974    24161453.2764   24161459.9624
      4448.912        3466.685
 96 10 31 18  7 29.9980000  0 10 17 28  3 25 23 21  1  9 31 15      -0.001302707
  13081746.167 9  10185801.45346  23984016.708    23984016.1744   23984023.8074
     -2650.970       -2065.691
  15101678.381 9  11756936.356 8  24000290.686    24000290.228    24000297.524
     -2642.291       -2058.928
   1028193.061 9    807702.03848  22069675.814    22069675.6644   22069681.4684
     -1570.171       -1223.510
  -8999576.597 9  -6999259.65646  23619323.084    23619323.1624   23619329.3814
      4166.916        3246.948
   6488654.543 9   5038020.62947  22555429.496    22555428.8294   22555434.4174
     -1066.464        -831.011
  -4682495.662 9  -3643516.75148  20433605.150    20433604.6234   20433609.3664
       355.851         277.286
 -13944830.635 9 -10850407.00548  19855498.266    19855497.8924   19855502.5914
       840.403         654.859
  -2216372.662 9  -1722315.12046  23927082.071    23927081.7854   23927087.5494
     -1106.498        -862.206
 -12616878.122 9  -9818427.00047  22292553.976    22292553.5824   22292558.7374
       451.945         352.165
  -1401674.248 9  -1070775.15846  24136061.130    24136060.4674   24136067.1014
      4446.739        3464.991
 96 10 31 18  7 59.9980000  0 10 17 28  3 25 23 21  1  9 31 15      -0.001319298
  13161401.100 8  10247870.10546  23999174.614    23999174.0704   23999181.7984
     -2659.257       -2072.148
  15180966.863 8  11818719.491 8  24015378.713    24015378.287    24015385.783
     -2643.595       -2059.944
   1075517.005 9    844577.81148  22078681.273    22078681.1134   22078686.9004
     -1584.555       -1234.718
  -9124529.501 9  -7096625.52646  23595545.310    23595545.3284   23595551.6554
      4163.333        3244.156
   6520728.731 9   5063013.47647  22561533.012    22561532.3764   22561537.9714
     -1071.810        -835.177
  -4693041.760 9  -3651734.50248  20431598.279    20431597.7904   20431602.5094
       347.178         270.528
 -13969753.794 9 -10869827.65348  19850755.568    19850755.1774   19850759.8984
       821.292         639.968
  -2182889.209 9  -1696224.15846  23933453.802    23933453.5404   23933459.3974
     -1125.703        -877.171
 -12630126.909 9  -9828750.74747  22290032.922    22290032.4884   22290037.6244
       431.386         336.145
  -1535018.838 9  -1174679.98846  24110686.526    24110685.8024   24110692.3984
      4443.039        3462.108
 96 10 31 18  8 29.9980000  0 10 17 28  3 25 23 21  1  9 31 15      -0.001335839
  13241302.974 8  10310131.19346  24014379.490    24014378.9184   24014386.7474
     -2668.101       -2079.040
  15260280.195 8  11880522.001 8  24030471.486    24030471.099    24030478.666
     -2644.444       -2060.606
   1123258.501 9    881778.94848  22087766.286    22087766.0804   22087771.8924
     -1598.562       -1245.633
  -9249381.734 9  -7193912.95046  23571786.688    23571786.6644   23571793.0884
      4159.732        3241.350
   6552961.215 9   5088129.64447  22567666.648    22567665.9814   22567671.6534
     -1077.553        -839.652
  -4703328.779 9  -3659750.37148  20429640.737    20429640.2344   20429644.9564
       338.095         263.451
 -13994116.573 9 -10888811.64448  19846119.488    19846119.1134   19846123.8224
       802.452         625.287
  -2148833.271 9  -1669687.06146  23939934.519    23939934.2764   23939939.7694
     -1144.847        -892.089
 -12642770.959 9  -9838603.26547  22287626.853    22287626.4274   22287631.5144
       411.095         320.334
  -1668261.248 9  -1278505.18546  24085331.197    24085330.5564   24085337.2814
      4439.370        3459.249
 96 10 31 18  8 59.9980000  0 10 17 28  3 25 23 21  1  9 31 15      -0.001352328
  13321476.973 8  10372604.34045  24029636.260    24029635.7054   24029643.4384
     -2676.811       -2085.827
  15339620.718 8  11942345.677 8  24045569.289    24045569.140    24045576.743
     -2644.820       -2060.899
   1171408.563 9    919298.43648  22096929.049    22096928.7794   22096934.6384
     -1611.212       -1255.490
  -9374126.950 9  -7291116.98646  23548048.388    23548048.4814   23548054.9024
      4156.790        3239.057
   6585373.578 9   5113385.99647  22573834.572    22573833.9554   22573839.5864
     -1083.181        -844.037
  -4713338.845 9  -3667550.43448  20427735.883    20427735.4064   20427740.1014
       329.413         256.685
 -14017913.992 9 -10907355.09248  19841590.975    19841590.5974   19841595.3154
       784.052         610.950
  -2114211.301 9  -1642708.99246  23946522.872    23946522.5994   23946528.2094
     -1163.215        -906.401
 -12654806.091 9  -9847981.31047  22285336.646    22285336.2114   22285341.3254
       391.269         304.885
  -1801394.275 9  -1382245.22245  24059996.671    24059996.0894   24060002.8444
      4436.257        3456.824
 96 10 31 18  9 29.9980000  0 10 17 28  3 25 23 21  1  9 31 15      -0.001368769
  13401925.736 8  10435291.58045  24044945.166    24044944.6404   24044952.5904
     -2686.021       -2093.003
  15418979.793 8  12004183.816 8  24060670.836    24060670.762    24060678.367
     -2645.614       -2061.517
   1219940.096 9    957115.18848  22106164.260    22106164.0304   22106169.9364
     -1624.050       -1265.494
  -9498776.927 9  -7388246.81446  23524328.332    23524328.3434   23524334.8514
      4153.532        3236.518
   6617965.416 9   5138782.19647  22580036.611    22580036.0144   22580041.6534
     -1089.332        -848.830
  -4723071.615 9  -3675134.42048  20425883.816    20425883.3494   20425888.0494
       319.702         249.118
 -14041140.601 9 -10925453.75748  19837171.089    19837170.7044   19837175.4414
       764.742         595.903
  -2079019.330 9  -1615286.71146  23953219.701    23953219.3944   23953225.0134
     -1182.381        -921.336
 -12666230.963 9  -9856883.82147  22283162.565    22283162.1524   22283167.2974
       370.463         288.672
  -1934421.594 9  -1485902.81445  24034682.334    24034681.8524   24034688.6294
      4432.432        3453.843
 96 10 31 18  9 59.9980000  0 10 17 28  3 25 23 21  1  9 31 15      -0.001385174
  13482641.586 8  10498186.90845  24060304.858    24060304.1794   24060312.4774
     -2695.346       -2100.270
  15498355.252 8  12066034.695 8  24075775.445    24075775.416    24075783.063
     -2646.375       -2062.110
   1268852.290 9    995228.55648  22115471.878    22115471.6904   22115477.5484
     -1636.991       -1275.577
  -9623339.237 9  -7485308.31246  23500624.959    23500624.9124   23500631.4324
      4150.399        3234.077
   6650738.269 9   5164319.45247  22586273.116    22586272.5734   22586278.1294
     -1095.726        -853.812
  -4732523.630 9  -3682499.63848  20424085.198    20424084.7254   20424089.4364
       310.009         241.565
 -14063790.162 9 -10943102.76948  19832861.018    19832860.6504   19832865.3824
       745.094         580.593
  -2043272.303 9  -1587431.88446  23960022.113    23960021.7774   23960027.3704
     -1200.828        -935.710
 -12677027.171 9  -9865296.46447  22281108.132    22281107.6694   22281112.8714
       348.945         271.905
  -2067340.762 9  -1589476.15346  24009388.679    24009388.1484   24009394.8724
      4428.573        3450.836
 96 10 31 18 10 29.9980000  0 10 17 28  3 25 23 21  1  9 31 15      -0.001401523
  13563625.583 8  10561291.17345  24075715.687    24075715.1024   24075723.3664
     -2703.424       -2106.564
  15577737.904 8  12127891.209 8  24090881.343    24090881.498    24090889.153
     -2645.741       -2061.616
   1318140.012 9   1033634.53648  22124851.001    22124850.8254   22124856.8274
     -1648.879       -1284.841
  -9747818.876 9  -7582305.40046  23476937.267    23476937.2834   23476943.6614
      4148.256        3232.407
   6683682.033 9   5189989.86847  22592542.178    22592541.5744   22592547.1764
     -1100.333        -857.402
  -4741690.703 9  -3689642.82049  20422340.747    20422340.2984   20422345.0184
       301.205         234.705
 -14085867.344 9 -10960305.77648  19828659.872    19828659.4854   19828664.2204
       726.966         566.467
  -2007001.085 9  -1559168.67146  23966924.164    23966923.8884   23966929.7004
     -1217.141        -948.422
 -12687198.420 9  -9873222.13347  22279172.555    22279172.1034   22279177.4194
       329.127         256.463
  -2200155.973 9  -1692968.54945  23984114.714    23984114.2494   23984120.7954
      4425.864        3448.725
 96 10 31 18 10 59.9980000  0 10 17 28  3 25 23 21  1  9 31 15      -0.001417838
  13644863.565 8  10624593.37045  24091174.799    24091174.3974   24091182.6004
     -2711.723       -2113.031
  15657119.741 8  12189747.062 8  24105987.226    24105987.398    24105995.136
     -2645.936       -2061.768
   1367800.483 9   1072330.96548  22134301.102    22134300.9214   22134306.9274
     -1661.427       -1294.618
  -9872211.148 9  -7679234.40646  23453266.213    23453266.1834   23453272.5434
      4145.059        3229.916
   6716772.702 9   5215774.77047  22598839.086    22598838.5264   22598844.1704
     -1105.224        -861.214
  -4750575.832 9  -3696566.31149  20420649.954    20420649.5334   20420654.2374
       291.614         227.232
 -14107387.453 9 -10977074.69548  19824564.689    19824564.3394   19824569.1024
       708.197         551.842
  -1970225.649 9  -1530512.49846  23973922.306    23973922.0264   23973927.9214
     -1234.197        -961.712
 -12696755.709 9  -9880669.38747  22277353.841    22277353.3984   22277358.7434
       308.324         240.252
  -2332870.970 9  -1796382.80545  23958859.789    23958859.3124   23958865.8264
      4422.284        3445.936
 96 10 31 18 11 29.9980000  0 10 17 28  3 25 23 21  1  9 31 15      -0.001434121
  13726328.925 8  10688072.77445  24106677.223    24106676.7954   24106685.0154
     -2718.771       -2118.523
  15736495.577 8  12251598.238 8  24121092.138    24121092.241    24121099.958
     -2645.404       -2061.354
   1417833.934 9   1111318.02948  22143822.203    22143821.9904   22143827.9834
     -1673.926       -1304.358
  -9996514.111 9  -7776093.81246  23429612.086    23429612.1004   23429618.4034
      4142.195        3227.684
   6749999.293 9   5241665.57347  22605162.025    22605161.3824   22605166.9744
     -1109.625        -864.643
  -4759179.128 9  -3703270.19249  20419012.817    20419012.3824   20419017.1074
       282.233         219.922
 -14128354.297 9 -10993412.50648  19820574.858    19820574.4744   19820579.2484
       690.104         537.743
  -1932950.376 9  -1501466.88046  23981015.348    23981015.1374   23981021.0704
     -1250.404        -974.341
 -12705697.830 9  -9887637.29847  22275652.305    22275651.8084   22275657.1094
       288.141         224.525
  -2465485.625 9  -1899718.84046  23933623.918    23933623.4284   23933630.0874
      4419.040        3443.408
 96 10 31 18 11 59.9980000  0 10 17 28  3 25 23 21  1  9 31 15      -0.001450368
  13808008.453 8  10751719.00045  24122220.300    24122219.8184   24122228.0644
     -2725.824       -2124.019
  15815861.290 8  12313441.514 8  24136195.002    24136195.089    24136202.854
     -2644.932       -2060.986
   1468247.701 9   1150601.45148  22153415.587    22153415.4114   22153421.4164
     -1686.430       -1314.101
 -10120718.383 9  -7872876.31146  23405976.838    23405976.7934   23405982.9664
      4138.720        3224.977
   6783371.783 9   5267670.07347  22611512.559    22611511.9664   22611517.5624
     -1114.523        -868.459
  -4767495.222 9  -3709750.27948  20417430.361    20417429.8944   20417434.6164
       272.742         212.526
 -14148780.709 9 -11009329.19748  19816687.847    19816687.4694   19816692.2264
       672.362         523.918
  -1895187.327 9  -1472041.14646  23988201.543    23988201.3124   23988207.2444
     -1266.611        -986.970
 -12714030.665 9  -9894130.43047  22274066.635    22274066.1474   22274071.4204
       268.143         208.943
  -2597999.246 9  -2002976.19546  23908407.371    23908406.8504   23908413.5014
      4415.814        3440.894
 96 10 31 18 12 29.9980000  0 10 17 28  3 25 23 21  1  9 31 15      -0.001466578
  13889895.070 8  10815526.64845  24137802.898    24137802.3874   24137810.6364
     -2732.962       -2129.581
  15895209.578 8  12375271.225 8  24151294.519    24151294.579    24151302.440
     -2644.748       -2060.843
   1519037.011 9   1190177.50348  22163080.487    22163080.3544   22163086.4024
     -1699.353       -1324.171
 -10244814.788 9  -7969574.74346  23382361.945    23382362.0114   23382368.1204
      4134.494        3221.684
   6816896.889 9   5293793.48447  22617892.339    22617891.6594   22617897.2294
     -1120.335        -872.988
  -4775526.935 9  -3716008.76649  20415901.953    20415901.5034   20415906.2344
       262.993         204.930
 -14168683.698 9 -11024838.02548  19812900.423    19812900.0384   19812904.8214
       654.704         510.159
  -1856935.441 9  -1442234.53046  23995480.741    23995480.5234   23995486.4724
     -1283.413       -1000.062
 -12721775.116 9  -9900165.09347  22272592.920    22272592.4224   22272597.7454
       248.310         193.488
  -2730414.608 9  -2106157.00946  23883209.640    23883208.9714   23883215.5184
      4412.095        3437.996
 96 10 31 18 12 59.9980000  0 10 17 28  3 25 23 21  1  9 31 15      -0.001482749
  13971958.102 8  10879471.76145  24153419.043    24153418.5954   24153426.6914
     -2738.233       -2133.688
  15974529.968 8  12437079.209 8  24166388.694    24166388.863    24166396.777
     -2643.492       -2059.864
   1570198.149 9   1230043.29148  22172816.237    22172816.0504   22172822.0564
     -1711.422       -1333.576
 -10368800.144 9  -8066186.64346  23358768.259    23358768.3154   23358774.3644
      4131.093        3219.034
   6850583.157 9   5320042.48647  22624302.553    22624302.0004   22624307.6224
     -1125.670        -877.145
  -4783291.003 9  -3722058.69949  20414424.478    20414424.0424   20414428.7894
       254.404         198.237
 -14188075.651 9 -11039948.64648  19809210.245    19809209.8654   19809214.6744
       637.825         497.006
  -1818195.600 9  -1412047.64746  24002852.734    24002852.4664   24002858.4624
     -1299.473       -1012.576
 -12728936.013 9  -9905745.02947  22271230.291    22271229.7834   22271235.0804
       228.865         178.336
  -2862736.826 9  -2209265.19146  23858029.513    23858028.8424   23858035.4134
      4409.186        3435.729
 96 10 31 18 13 29.9980000  0 10 17 28  3 25 23 21  1  9 31 15      -0.001498901
  14054177.371 8  10943538.61045  24169065.045    24169064.5494   24169072.5654
     -2742.968       -2137.378
  16053806.572 8  12498853.033 8  24181474.789    24181474.779    24181482.761
     -2641.401       -2058.235
   1621709.857 9   1270182.23548  22182618.587    22182618.3674   22182624.4344
     -1722.339       -1342.082
 -10492689.766 9  -8162723.93746  23335192.737    23335192.7684   23335198.8914
      4128.309        3216.864
   6884426.910 9   5346414.19047  22630742.792    22630742.2294   22630748.0004
     -1130.355        -880.796
  -4790805.605 9  -3727914.24649  20412994.496    20412994.0444   20412998.8194
       246.785         192.300
 -14206968.988 9 -11054670.72948  19805614.936    19805614.5674   19805619.4104
       621.977         484.657
  -1778980.167 9  -1381490.24046  24010315.148    24010314.8064   24010321.0464
     -1314.756       -1024.485
 -12735526.809 9  -9910880.72747  22269976.167    22269975.6444   22269980.9264
       210.687         164.172
  -2994977.249 9  -2312309.65546  23832864.999    23832864.4264   23832870.8104
      4407.037        3434.055
 96 10 31 18 13 59.9980000  0 10 17 28  3 25 23 21  1  9 31 15      -0.001515056
  14136556.311 8  11007729.86145  24184741.211    24184740.8064   24184748.8094
     -2748.803       -2141.924
  16133031.404 8  12560586.527 8  24196550.989    24196550.872    24196558.911
     -2640.102       -2057.222
   1673554.523 9   1310580.64748  22192484.382    22192484.1544   22192490.1064
     -1733.742       -1350.968
 -10616479.874 9  -8259183.68146  23311636.248    23311636.1584   23311642.3904
      4124.594        3213.969
   6918424.327 9   5372905.65347  22637212.333    22637211.7794   22637217.4874
     -1135.761        -885.009
  -4798080.218 9  -3733582.78949  20411610.188    20411609.7324   20411614.5244
       238.439         185.797
 -14225376.255 9 -11069014.05748  19802112.184    19802111.8064   19802116.6414
       605.254         471.626
  -1739287.924 9  -1350561.21046  24017868.445    24017868.0974   24017874.1084
     -1331.266       -1037.350
 -12741563.126 9  -9915584.38247  22268827.460    22268826.9614   22268832.2714
       191.756         149.420
  -3127139.051 9  -2415292.86046  23807715.406    23807714.8704   23807721.2284
      4403.868        3431.585
 96 10 31 18 14 29.9980000  0 10 17 28  3 25 23 21  1  9 31 15      -0.001531115
  14219116.893 8  11072062.68345  24200452.110    24200451.6174   24200459.6714
     -2755.308       -2146.993
  16212220.629 8  12622292.287 8  24211620.306    24211620.234    24211628.303
     -2639.415       -2056.687
   1725741.120 9   1351245.48048  22202415.171    22202414.9314   22202420.9484
     -1745.541       -1360.162
 -10740156.152 9  -8355554.72046  23288101.268    23288101.3034   23288107.5204
      4120.344        3210.658
   6952575.953 9   5399517.25947  22643711.190    22643710.6584   22643716.3274
     -1141.131        -889.193
  -4805103.459 9  -3739055.45549  20410273.674    20410273.2294   20410278.0664
       229.632         178.934
 -14243281.612 9 -11082966.28448  19798704.914    19798704.5444   19798709.3844
       588.199         458.337
  -1699094.635 9  -1319241.84146  24025517.049    24025516.7184   24025522.6594
     -1348.462       -1050.750
 -12747023.416 9  -9919839.16447  22267788.511    22267787.9554   22267793.2324
       171.939         133.978
  -3259200.953 9  -2518198.23246  23782584.798    23782584.2624   23782590.6694
      4399.999        3428.571
 96 10 31 18 14 59.9980000  0 10 17 28  3 25 23 21  1  9 31 15      -0.001547122
  14301872.002 8  11136547.08845  24216199.869    24216199.4454   24216207.4464
     -2762.639       -2152.706
  16291392.284 8  12683984.340 8  24226686.455    24226686.213    24226694.314
     -2639.435       -2056.702
   1778282.358 9   1392186.67147  22212413.330    22212413.1924   22212419.2734
     -1757.864       -1369.764
 -10863706.248 9  -8451827.43846  23264590.467    23264590.4484   23264596.7394
      4115.731        3207.063
   6986883.955 9   5426250.73247  22650239.821    22650239.3254   22650245.0414
     -1146.680        -893.517
  -4811856.129 9  -3744317.28849  20408988.715    20408988.2654   20408993.0964
       219.781         171.258
 -14260669.879 9 -11096515.58748  19795396.014    19795395.6534   19795400.4844
       570.262         444.360
  -1658382.201 9  -1287517.90546  24033264.588    24033264.2974   24033269.8364
     -1366.422       -1064.744
 -12751878.294 9  -9923622.20547  22266864.628    22266864.1004   22266869.3834
       150.944         117.619
  -3391139.674 9  -2621007.62146  23757477.561    23757477.1134   23757483.5494
      4395.134        3424.780
 96 10 31 18 15 29.9980000  0 10 17 28  3 25 23 21  1  9 31 15      -0.001563077
  14384845.496 8  11201201.66745  24231989.267    24231988.8684   24231996.6494
     -2769.449       -2158.012
  16370552.784 8  12745667.712 8  24241750.067    24241750.050    24241758.227
     -2638.393       -2055.891
   1831177.809 9   1433403.86347  22222478.867    22222478.8174   22222484.9544
     -1769.066       -1378.493
 -10987131.004 9  -8548002.49346  23241103.399    23241103.3924   23241109.7294
      4112.052        3204.196
   7021342.541 9   5453101.52147  22656796.981    22656796.4674   22656802.2384
     -1151.063        -896.932
  -4818325.362 9  -3749358.26349  20407757.683    20407757.2284   20407762.0274
       211.014         164.426
 -14277531.353 9 -11109654.39848  19792187.330    19792186.9644   19792191.8334
       553.314         431.154
  -1617142.876 9  -1255383.43546  24041111.797    24041111.5804   24041117.2734
     -1383.433       -1078.000
 -12756122.022 9  -9926929.03447  22266057.110    22266056.5304   22266061.8624
       131.296         102.309
  -3522944.492 9  -2723712.66646  23732395.904    23732395.3624   23732401.9524
      4391.297        3421.790
 96 10 31 18 15 59.9980000  0 10 17 28  3 25 23 21  1  9 31 15      -0.001578979
  14468046.077 8  11266033.17345  24247821.876    24247821.4704   24247829.2304
     -2777.057       -2163.941
  16449702.307 8  12807342.506 8  24256811.934    24256811.799    24256820.002
     -2638.191       -2055.733
   1884436.573 9   1474904.15647  22232613.795    22232613.6694   22232619.7394
     -1781.359       -1388.072
 -11110429.790 9  -8644079.38346  23217640.332    23217640.3804   23217646.7414
      4107.919        3200.976
   7055953.964 9   5480071.41447  22663383.337    22663382.8354   22663388.6294
     -1156.224        -900.954
  -4824510.047 9  -3754177.51649  20406580.849    20406580.3594   20406585.1384
       201.460         156.982
 -14293859.735 9 -11122377.81948  19789080.076    19789079.7484   19789084.6204
       535.265         417.090
  -1575373.900 9  -1222836.23146  24049060.188    24049060.0744   24049065.7714
     -1400.920       -1091.626
 -12759751.593 9  -9929757.29247  22265366.388    22265365.8914   22265371.2124
       110.764          86.310
  -3654610.289 9  -2826309.34146  23707340.731    23707340.1444   23707346.7534
      4386.517        3418.065
 96 10 31 18 16 29.9980000  0 10 17 28  3 25 23 21  1  9 31 15      -0.001594838
  14551463.718 8  11331033.81045  24263695.715    24263695.2784   24263703.1624
     -2784.422       -2169.679
  16528836.794 8  12869005.627 8  24271870.823    24271870.708    24271878.890
     -2637.716       -2055.363
   1938054.977 9   1516684.69447  22242817.033    22242816.9144   22242823.0164
     -1793.473       -1397.511
 -11233615.845 9  -8740068.43646  23194198.730    23194198.7714   23194205.1004
      4104.121        3198.016
   7090713.797 9   5507156.94847  22669997.972    22669997.4184   22670003.2874
     -1161.477        -905.047
  -4830413.139 9  -3758777.33749  20405457.472    20405457.0644   20405461.8224
       191.763         149.426
 -14309652.247 9 -11134683.67448  19786074.875    19786074.4904   19786079.4034
       517.197         403.011
  -1533097.593 8  -1189893.68646  24057105.257    24057104.9564   24057110.7384
     -1417.760       -1104.748
 -12762770.069 9  -9932109.37647  22264791.956    22264791.4814   22264796.8674
        90.236          70.314
  -3786136.061 9  -2928796.98746  23682312.437    23682311.6994   23682318.2754
      4381.581        3414.219
 96 10 31 18 16 59.9980000  0 10 17 28  3 25 23 21  1  9 31 15      -0.001610657
  14635095.883 8  11396201.61445  24279610.576    24279610.1794   24279617.9204
     -2791.106       -2174.888
  16607954.727 8  12930655.830 8  24286926.551    24286926.438    24286934.637
     -2636.731       -2054.595
   1992032.116 9   1558744.76347  22253088.533    22253088.4114   22253094.5174
     -1804.995       -1406.490
 -11356688.234 9  -8835968.93446  23170778.820    23170778.8184   23170785.1934
      4100.696        3195.348
   7125634.349 9   5534367.72847  22676643.134    22676642.5924   22676648.4374
     -1166.491        -908.954
  -4836032.498 9  -3763156.07849  20404388.204    20404387.7514   20404392.4964
       182.868         142.495
 -14324896.717 9 -11146562.48948  19783173.936    19783173.5774   19783178.4704
       499.125         388.929
  -1490322.160 9  -1156562.24846  24065245.109    24065244.8404   24065250.8064
     -1433.784       -1117.234
 -12765180.744 9  -9933987.84447  22264333.178    22264332.7174   22264338.1444
        70.603          55.015
  -3917518.591 9  -3031172.95446  23657311.268    23657310.5274   23657316.8764
      4377.339        3410.914
 96 10 31 18 17 29.9980000  0 10 17 28  3 25 23 21  1  9 31 15      -0.001626447
  14718932.596 8  11461528.80945  24295564.221    24295563.8714   24295571.5714
     -2797.106       -2179.563
  16687039.807 8  12992280.453 8  24301976.146    24301975.913    24301984.142
     -2634.810       -2053.099
   2046360.221 9   1601078.30547  22263426.888    22263426.7094   22263432.9044
     -1816.027       -1415.086
 -11479645.570 9  -8931779.77546  23147380.767    23147380.7594   23147387.1214
      4097.220        3192.639
   7160711.921 9   5561700.83847  22683318.279    22683317.6694   22683323.5764
     -1171.196        -912.620
  -4841389.577 9  -3767330.43949  20403368.814    20403368.3384   20403373.1084
       175.115         136.453
 -14339591.865 9 -11158013.25548  19780377.566    19780377.1834   19780382.0764
       481.534         375.221
  -1447067.414 9  -1122857.24246  24073476.412    24073476.1124   24073481.9484
     -1448.876       -1128.994
 -12767008.120 9  -9935411.80247  22263985.425    22263984.9334   22263990.3944
        51.866          40.415
  -4048769.317 9  -3133446.22246  23632335.015    23632334.3224   23632340.6644
      4373.630        3408.023
 96 10 31 18 17 59.9980000  0 10 17 28  3 25 23 21  1  9 31 15      -0.001642212
  14802957.630 8  11527002.75345  24311553.706    24311553.2454   24311561.5284
     -2803.486       -2184.535
  16766075.902 8  13053866.909 8  24317016.237    24317016.101    24317024.292
     -2633.273       -2051.901
   2101025.622 9   1643674.68847  22273829.328    22273829.1864   22273835.2804
     -1827.295       -1423.866
 -11602485.280 9  -9027498.96246  23124005.220    23124005.1254   23124011.4474
      4092.905        3189.277
   7195937.894 9   5589149.58847  22690021.617    22690021.0224   22690026.9024
     -1176.287        -916.587
  -4846504.913 9  -3771316.42849  20402395.349    20402394.9374   20402399.7234
       166.798         129.972
 -14353756.068 9 -11169050.30348  19777682.213    19777681.8334   19777686.6794
       463.670         361.301
  -1403357.394 8  -1088797.57646  24081794.071    24081793.7184   24081799.8234
     -1464.129       -1140.880
 -12768260.783 9  -9936387.92547  22263747.093    22263746.6094   22263752.0604
        32.533          25.350
  -4179899.604 9  -3235625.66346  23607381.604    23607380.9554   23607387.2744
      4369.324        3404.668
 96 10 31 18 18 29.9980000  0 10 17 28  3 25 23 21  1  9 31 15      -0.001657959
  14887149.092 8  11592606.35845  24327574.975    24327574.5564   24327582.4824
     -2809.076       -2188.890
  16845045.272 8  13115401.375 8  24332043.749    24332043.603    24332051.725
     -2630.900       -2050.052
   2156003.312 9   1686514.40447  22284291.219    22284291.0614   22284297.2504
     -1837.699       -1431.973
 -11725209.314 9  -9123128.01546  23100651.565    23100651.4844   23100657.7594
      4088.913        3186.166
   7231300.265 9   5616704.64547  22696750.911    22696750.3014   22696756.0984
     -1180.823        -920.122
  -4851390.345 9  -3775123.26849  20401465.692    20401465.2654   20401470.0744
       159.276         124.111
 -14367402.889 9 -11179684.19448  19775085.314    19775084.9254   19775089.7354
       446.514         347.933
  -1359211.562 9  -1054398.22846  24090194.687    24090194.4264   24090200.4394
     -1478.800       -1152.312
 -12768945.914 9  -9936921.80447  22263616.789    22263616.2664   22263621.6924
        13.374          10.421
  -4310922.240 9  -3337721.17746  23582448.612    23582448.0994   23582454.5054
      4365.786        3401.911
 96 10 31 18 18 59.9980000  0 10 17 28  3 25 23 21  1  9 31 15      -0.001673686
  14971513.692 8  11658344.85545  24343629.175    24343628.8664   24343637.0814
     -2815.127       -2193.605
  16923931.733 8  13176871.213 8  24347055.473    24347055.291    24347063.433
     -2628.188       -2047.939
   2211290.588 9   1729595.37047  22294812.047    22294811.9654   22294818.0044
     -1848.120       -1440.094
 -11847811.225 9  -9218661.92646  23077321.096    23077321.0184   23077327.3664
      4084.637        3182.834
   7266792.454 9   5644360.86347  22703504.902    22703504.3184   22703510.1574
     -1185.338        -923.640
  -4856063.018 9  -3778764.32349  20400576.494    20400576.0694   20400580.8854
       152.006         118.446
 -14380546.299 9 -11189925.81948  19772584.208    19772583.8064   19772588.6294
       429.723         334.849
  -1314625.398 8  -1019655.82146  24098679.062    24098678.7394   24098684.9654
     -1493.616       -1163.857
 -12769063.243 9  -9937013.25047  22263594.403    22263593.9204   22263599.3804
        -5.604          -4.367
  -4441848.365 9  -3439741.50046  23557534.229    23557533.7284   23557540.1034
      4362.503        3399.353
 96 10 31 18 19 29.9980000  0 10 17 28  3 25 23 21  1  9 31 15      -0.001689396
  15056044.356 8  11724212.74645  24359714.952    24359714.5214   24359723.0654
     -2820.810       -2198.034
  17002720.868 8  13238265.226 8  24362048.584    24362048.370    24362056.557
     -2624.879       -2045.360
   2266871.406 9   1772905.05347  22305388.715    22305388.6324   22305394.7684
     -1857.619       -1447.495
 -11970300.816 9  -9314108.29746  23054011.981    23054011.9594   23054018.2804
      4080.864        3179.894
   7302404.029 9   5672110.08847  22710281.571    22710281.0034   22710286.7954
     -1189.307        -926.733
  -4860522.528 9  -3782239.27949  20399727.829    20399727.4324   20399732.2704
       144.714         112.764
 -14393208.503 9 -11199792.47748  19770174.664    19770174.2634   19770179.0954
       414.000         322.597
  -1269612.545 8   -984580.87046  24107244.742    24107244.3694   24107250.6714
     -1507.839       -1174.939
 -12768624.147 9  -9936671.11647  22263677.964    22263677.4304   22263682.9194
       -24.296         -18.932
  -4572687.929 9  -3541694.38146  23532636.311    23532635.7064   23532642.1494
      4359.612        3397.100
 96 10 31 18 19 59.9980000  0 10 17 28  3 25 23 21  1  9 31 15      -0.001705101
  15140724.279 8  11790196.94245  24375828.835    24375828.6794   24375837.0834
     -2824.761       -2201.112
  17081391.548 8  13299566.928 8  24377019.102    24377018.961    24377027.178
     -2620.027       -2041.579
   2322711.979 9   1816417.14347  22316014.971    22316014.8804   22316020.9694
     -1865.359       -1453.526
 -12092702.011 9  -9409485.80846  23030719.659    23030719.6844   23030726.0234
      4078.994        3178.437
   7338116.486 9   5699937.92647  22717077.435    22717076.8494   22717082.6364
     -1191.853        -928.717
  -4864773.296 9  -3785551.57649  20398918.978    20398918.5594   20398923.3994
       138.415         107.856
 -14405417.983 9 -11209306.36548  19767851.275    19767850.8674   19767855.7214
       399.588         311.367
  -1224186.297 8   -949183.89546  24115889.014    24115888.7304   24115895.2404
     -1520.781       -1185.024
 -12767651.270 9  -9935913.05347  22263863.098    22263862.5874   22263868.0784
       -40.806         -31.797
  -4703457.156 9  -3643592.44246  23507751.605    23507751.0514   23507757.5124
      4358.092        3395.916
 96 10 31 18 20 29.9980000  0 10 17 28  3 25 23 21  1  9 31 15      -0.001720810
  15225548.062 8  11856293.26545  24391970.336    24391970.2614   24391978.5604
     -2829.916       -2205.129
  17159935.297 8  13360769.727 8  24391965.415    24391965.424    24391973.700
     -2615.906       -2038.368
   2378802.760 9   1860124.20947  22326688.767    22326688.6304   22326694.6254
     -1873.771       -1460.081
 -12215028.317 9  -9504804.95946  23007441.805    23007441.7154   23007447.9964
      4076.541        3176.525
   7373931.764 9   5727845.89547  22723892.856    22723892.2894   22723898.1454
     -1195.387        -931.470
  -4868809.038 9  -3788696.32449  20398151.056    20398150.6024   20398155.4584
       131.003         102.080
 -14417169.895 9 -11218463.70448  19765614.965    19765614.5694   19765619.4024
       384.248         299.414
  -1178352.374 8   -913469.14546  24124611.158    24124610.8934   24124617.1184
     -1534.549       -1195.752
 -12766165.457 9  -9934755.29947  22264145.869    22264145.3574   22264150.8254
       -57.804         -45.042
  -4834159.253 9  -3745438.18946  23482879.793    23482879.1204   23482885.7114
      4355.640        3394.005
 96 10 31 18 20 59.9980000  0 10 17 28  3 25 23 21  1  9 31 15      -0.001736536
  15310513.958 8  11922500.30745  24408139.238    24408139.0284   24408147.1544
     -2834.516       -2208.714
  17238342.468 8  13421866.083 8  24406886.004    24406885.933    24406894.259
     -2611.487       -2034.925
   2435130.944 9   1904016.22547  22337407.800    22337407.5074   22337413.6524
     -1881.461       -1466.073
 -12337292.852 9  -9600075.96946  22984175.546    22984175.5144   22984181.7114
      4074.383        3174.844
   7409837.025 9   5755823.96447  22730725.477    22730724.8514   22730730.8154
     -1198.559        -933.942
  -4872632.610 9  -3791675.74349  20397423.402    20397422.9674   20397427.8474
       123.619          96.326
 -14428472.458 9 -11227270.89948  19763464.182    19763463.7714   19763468.6034
       369.005         287.536
  -1132120.392 8   -877444.28746  24133408.783    24133408.4664   24133414.7354
     -1547.743       -1206.034
 -12764199.093 9  -9933223.10147  22264520.017    22264519.5084   22264525.0184
       -73.546         -57.309
  -4964799.030 9  -3847235.41146  23458019.863    23458019.2434   23458025.6984
      4353.393        3392.254
 96 10 31 18 21 29.9980000  0 10 17 28  3 25 23 21  1  9 31 15      -0.001752313
  15395590.815 8  11988793.78645  24424328.946    24424328.7244   24424337.1964
     -2837.329       -2210.906
  17316606.539 8  13482850.931 8  24421779.337    24421779.179    24421787.584
     -2606.284       -2030.871
   2491671.652 9   1948073.91747  22348167.310    22348167.0244   22348172.9694
     -1888.091       -1471.240
 -12459507.616 9  -9695308.22046  22960918.891    22960918.7634   22960924.8694
      4072.999        3173.765
   7445822.974 9   5783864.92547  22737573.457    22737572.8424   22737578.7884
     -1200.716        -935.623
  -4876244.360 9  -3794490.10349  20396736.154    20396735.6924   20396740.5464
       117.197          91.322
 -14439328.828 9 -11235730.41248  19761398.308    19761397.8724   19761402.7294
       354.616         276.324
  -1085507.852 8   -841122.88846  24142278.892    24142278.6424   24142284.8254
     -1559.930       -1215.530
 -12761776.523 9  -9931335.40247  22264981.033    22264980.5344   22264985.9994
       -88.254         -68.769
  -5095378.041 8  -3948985.24946  23433171.546    23433170.7704   23433177.4964
      4351.768        3390.988
 96 10 31 18 21 59.9980000  0 10 17 28  3 25 23 21  1  9 31 15      -0.001768097
  15480766.218 8  12055164.07645  24440537.403    24440537.1424   24440545.8244
     -2841.072       -2213.822
  17394726.727 8  13543723.662 8  24436645.277    24436645.086    24436653.531
     -2601.847       -2027.413
   2548427.834 9   1992299.45747  22358967.483    22358967.3074   22358973.4434
     -1895.867       -1477.299
 -12581663.475 9  -9790494.54947  22937673.313    22937673.1874   22937679.2424
      4070.599        3171.895
   7481890.070 9   5811969.09947  22744436.832    22744436.2014   22744442.1474
     -1203.854        -938.068
  -4879656.598 9  -3797148.99849  20396086.818    20396086.3924   20396091.1924
       110.109          85.799
 -14449735.469 9 -11243839.48848  19759417.987    19759417.5784   19759422.4114
       338.992         264.150
  -1038512.603 9   -804503.29246  24151221.664    24151221.4684   24151227.7244
     -1573.099       -1225.791
 -12758903.271 9  -9929096.52647  22265527.761    22265527.2974   22265532.7904
      -103.556         -80.693
  -5225892.442 9  -4050684.74846  23408335.174    23408334.6904   23408341.4384
      4349.095        3388.905
 96 10 31 18 22 29.9980000  0 10 17 28  3 25 23 21  1  9 31 15      -0.001783904
  15566044.620 8  12121614.60745  24456765.608    24456765.2594   24456773.7974
     -2844.631       -2216.595
  17472710.220 8  13604489.852 8  24451485.016    24451484.980    24451493.460
     -2597.383       -2023.935
   2605409.493 9   2036700.70447  22369810.791    22369810.4834   22369816.6694
     -1903.381       -1483.154
 -12703747.863 9  -9885625.20346  22914441.354    22914441.2274   22914447.2724
      4068.090        3169.940
   7518042.875 9   5840140.08147  22751316.536    22751315.9344   22751321.7664
     -1206.574        -940.188
  -4882855.322 9  -3799641.52449  20395478.111    20395477.6724   20395482.4984
       102.901          80.183
 -14459683.628 9 -11251591.30348  19757524.954    19757524.5414   19757529.3774
       324.099         252.545
   -991131.924 9   -767583.28546  24160237.986    24160237.8494   24160243.9884
     -1586.031       -1235.868
 -12755567.556 9  -9926497.29447  22266162.502    22266162.0484   22266167.5474
      -119.177         -92.865
  -5356329.940 9  -4152324.34246  23383513.883    23383513.2314   23383519.9334
      4346.461        3386.853
 96 10 31 18 22 59.9980000  0 10 17 28  3 25 23 21  1  9 31 15      -0.001799706
  15651446.359 8  12188161.26345  24473017.250    24473016.6684   24473025.3734
     -2849.218       -2220.170
  17550582.167 8  13665169.125 8  24466303.604    24466303.675    24466312.137
     -2594.521       -2021.705
   2662642.235 9   2081297.60447  22380701.790    22380701.6154   22380707.8904
     -1912.611       -1490.346
 -12825732.784 9  -9980678.34147  22891228.412    22891228.2904   22891234.2534
      4063.686        3166.509
   7554299.644 9   5868392.07247  22758216.081    22758215.4774   22758221.2904
     -1211.037        -943.665
  -4885816.536 9  -3801948.97049  20394914.620    20394914.1894   20394919.0084
        93.990          73.239
 -14469173.609 9 -11258986.09148  19755719.132    19755718.6854   19755723.5144
       308.246         240.192
   -943332.061 8   -730336.64446  24169334.229    24169334.0094   24169340.1984
     -1600.959       -1247.501
 -12751737.645 9  -9923512.96047  22266891.421    22266890.9594   22266896.4034
      -136.792        -106.591
  -5486660.554 9  -4253880.62146  23358712.686    23358712.0564   23358718.9144
      4341.907        3383.304
 96 10 31 18 23 29.9980000  0 10 17 28  3 25 23 21  1  9 31 15      -0.001815477
  15736981.523 8  12254811.88645  24489294.307    24489293.5564   24489302.3874
     -2853.468       -2223.482
  17628357.492 8  13725773.112 8  24481104.121    24481104.017    24481112.429
     -2590.733       -2018.753
   2720145.897 9   2126105.60947  22391644.397    22391644.1964   22391650.4834
     -1921.283       -1497.104
 -12947587.917 9 -10075630.36147  22868040.111    22868040.0264   22868045.9594
      4059.575        3163.305
   7590684.749 9   5896744.04947  22765139.889    22765139.3244   22765145.1744
     -1214.820        -946.613
  -4888514.384 9  -3804051.19849  20394401.291    20394400.8304   20394405.6294
        85.679          66.763
 -14478207.065 9 -11266025.14648  19754000.145    19753999.6954   19754004.5214
       293.755         228.900
   -895096.312 8   -692750.42446  24178513.189    24178512.9294   24178519.1964
     -1614.999       -1258.441
 -12747380.592 9  -9920117.87647  22267720.562    22267720.0724   22267725.5944
      -154.005        -120.004
  -5616864.571 9  -4355338.28146  23333935.581    23333934.9954   23333941.8904
      4338.145        3380.373
 96 10 31 18 23 59.9980000  0 10 17 28  3 25 23 21  1  9 31 15      -0.001831202
  15822678.454 8  12321588.53545  24505601.917    24505601.3944   24505610.0914
     -2859.558       -2228.227
  17706044.122 8  13786307.978 8  24495887.609    24495887.449    24495895.864
     -2588.249       -2016.817
   2777932.149 9   2171133.81747  22402640.791    22402640.6044   22402646.8484
     -1930.929       -1504.620
 -13069287.737 9 -10170461.34847  22844881.410    22844881.3244   22844887.2164
      4053.923        3158.901
   7627209.650 9   5925204.95247  22772090.289    22772089.7914   22772095.6494
     -1220.021        -950.666
  -4890936.861 9  -3805938.85449  20393940.333    20393939.8674   20393944.6834
        75.945          59.178
 -14486781.480 9 -11272706.50848  19752368.505    19752368.0694   19752372.8754
       277.872         216.524
   -846409.668 9   -654812.81046  24187778.010    24187777.8074   24187783.9654
     -1630.545       -1270.554
 -12742475.795 9  -9916295.97047  22268653.949    22268653.4794   22268658.9494
      -172.803        -134.652
  -5746929.062 9  -4456687.22146  23309185.003    23309184.6474   23309191.4664
      4332.945        3376.321
 96 10 31 18 24 29.9980000  0 10 17 28  3 25 23 21  1  9 31 15      -0.001846879
  15908542.060 8  12388495.08845  24521941.357    24521940.8184   24521949.3434
     -2864.660       -2232.203
  17783638.067 8  13846770.619 8  24510653.505    24510653.278    24510661.666
     -2584.744       -2014.086
   2835986.392 9   2216370.83547  22413688.096    22413687.9224   22413694.1674
     -1939.350       -1511.182
 -13190834.442 9 -10265173.04347  22821751.815    22821751.7574   22821757.6604
      4049.055        3155.108
   7663873.356 9   5953774.02247  22779067.223    22779066.6864   22779072.6654
     -1224.256        -953.966
  -4893086.880 9  -3807614.20749  20393531.206    20393530.7474   20393535.5794
        67.452          52.560
 -14494903.881 9 -11279035.65548  19750822.882    19750822.4454   19750827.2334
       263.492         205.318
   -797274.757 8   -616525.96246  24197128.091    24197127.8554   24197134.0154
     -1645.262       -1282.022
 -12737019.596 9  -9912044.41247  22269692.256    22269691.7684   22269697.2454
      -191.040        -148.862
  -5876853.455 9  -4557927.00446  23284461.282    23284460.7544   23284467.8004
      4328.601        3372.936
 96 10 31 18 24 59.9980000  0 10 17 28  3 25 23 21  1  9 31 15      -0.001862510
  15994551.344 8  12455515.18145  24538308.551    24538307.9734   24538316.4084
     -2869.045       -2235.619
  17861132.041 8  13907155.342 8  24525400.196    24525400.022    24525408.441
     -2581.198       -2011.323
   2894303.966 9   2261813.06447  22424785.659    22424785.4444   22424791.5324
     -1948.007       -1517.928
 -13312218.102 9 -10359757.66247  22798653.346    22798653.2554   22798659.1414
      4043.430        3150.725
   7700672.821 9   5982448.88347  22786070.028    22786069.4364   22786075.3464
     -1228.643        -957.384
  -4894989.361 9  -3809096.67449  20393169.192    20393168.7334   20393173.5544
        59.691          46.512
 -14502577.556 9 -11285015.13848  19749362.623    19749362.1884   19749366.9604
       248.170         193.379
   -747686.642 9   -577885.85046  24206564.569    24206564.4284   24206570.1034
     -1660.126       -1293.605
 -12731005.238 9  -9907357.92047  22270836.815    22270836.3184   22270841.7424
      -209.675        -163.383
  -6006639.652 9  -4659059.04946  23259763.846    23259763.2744   23259770.3824
      4324.164        3369.478
 96 10 31 18 25 29.9980000  0 10 17 28  3 25 23 21  1  9 31 15      -0.001878114
  16080692.514 8  12522638.04345  24554700.935    24554700.3574   24554708.7154
     -2873.746       -2239.283
  17938516.859 8  13967455.036 8  24540126.324    24540126.050    24540134.425
     -2577.861       -2008.723
   2952875.242 9   2307452.97947  22435931.559    22435931.4244   22435937.3614
     -1956.853       -1524.821
 -13433437.584 9 -10454214.37247  22775586.011    22775585.9344   22775591.8484
      4037.988        3146.484
   7737599.782 9   6011223.10147  22793097.098    22793096.4434   22793102.3084
     -1233.147        -960.894
  -4896661.607 9  -3810399.72949  20392850.936    20392850.4884   20392855.3314
        51.882          40.428
 -14509781.647 9 -11290628.71648  19747991.707    19747991.2954   19747996.0614
       231.797         180.621
   -697660.394 9   -538904.46846  24216084.135    24216083.9944   24216089.8014
     -1675.011       -1305.203
 -12724431.497 9  -9902235.53947  22272087.776    22272087.2984   22272092.6904
      -228.664        -178.180
  -6136291.998 9  -4760086.87046  23235091.741    23235091.3744   23235098.1834
      4319.288        3365.679
 96 10 31 18 25 59.9980000  0 10 17 28  3 25 23 21  1  9 31 15      -0.001893716
  16166950.186 8  12589851.69246  24571115.304    24571114.7394   24571123.0464
     -2877.148       -2241.934
  18015778.628 8  14027658.850 8  24554828.882    24554828.584    24554837.010
     -2573.365       -2005.219
   3011688.196 9   2353281.19347  22447123.168    22447123.0444   22447129.1214
     -1964.540       -1530.810
 -13554523.022 9 -10548566.62947  22752544.100    22752544.0944   22752550.0804
      4034.112        3143.464
   7774636.429 9   6040082.77447  22800144.913    22800144.2634   22800150.3074
     -1236.403        -963.431
  -4898130.673 9  -3811544.47049  20392571.398    20392570.9394   20392575.7734
        45.427          35.398
 -14516505.633 9 -11295868.18248  19746712.171    19746711.7784   19746716.5254
       216.011         168.320
   -647206.723 9   -499589.93846  24225685.322    24225685.1494   24225690.9304
     -1688.887       -1316.016
 -12717314.015 9  -9896689.47447  22273442.229    22273441.7434   22273447.1384
      -246.233        -191.870
  -6265819.867 9  -4861017.57346  23210443.378    23210442.8844   23210449.8164
      4315.408        3362.656
 96 10 31 18 26 29.9980000  0 10 17 28  3 25 23 21  1  9 31 15      -0.001909316
  16253316.111 8  12657149.68245  24587550.317    24587549.5934   24587558.0794
     -2880.520       -2244.561
  18092920.885 8  14087769.554 8  24569508.588    24569508.388    24569516.847
     -2569.367       -2002.104
   3070757.324 9   2399309.05047  22458363.852    22458363.6384   22458369.6594
     -1973.325       -1537.656
 -13675480.208 9 -10642818.94347  22729526.594    22729526.6174   22729532.6454
      4029.628        3139.970
   7811784.385 9   6069029.19247  22807214.084    22807213.3774   22807219.2854
     -1240.025        -966.253
  -4899379.578 9  -3812517.65549  20392333.776    20392333.3154   20392338.1244
        37.861          29.502
 -14522744.334 9 -11300729.51148  19745524.993    19745524.5884   19745529.3354
       199.997         155.842
   -596330.308 8   -459946.11346  24235366.741    24235366.5764   24235372.7424
     -1702.710       -1326.787
 -12709661.075 9  -9890726.15747  22274898.631    22274898.1204   22274903.4444
      -263.955        -205.679
  -6395214.779 9  -4961844.81746  23185820.588    23185819.9474   23185826.8544
      4310.996        3359.218
 96 10 31 18 26 59.9980000  0  9 17  3 25 23 21  1  9 31 15         -0.001924917
  16339790.261 8  12724531.99045  24604005.933    24604005.2174   24604013.7454
     -2884.451       -2247.624
   3130087.726 9   2445540.49847  22469653.930    22469653.8664   22469659.9444
     -1981.826       -1544.280
 -13796302.833 9 -10736966.39947  22706534.769    22706534.7824   22706540.8734
      4025.380        3136.660
   7849042.037 9   6098061.09547  22814303.978    22814303.3074   22814309.2154
     -1243.799        -969.194
  -4900393.413 9  -3813307.66449  20392140.865    20392140.3984   20392145.2174
        29.565          23.038
 -14528493.616 9 -11305209.47648  19744430.923    19744430.5114   19744435.2654
       183.444         142.943
   -545045.248 9   -419983.71046  24245126.003    24245125.7664   24245131.8394
     -1716.059       -1337.189
 -12701479.289 9  -9884350.75947  22276455.562    22276455.0724   22276460.4004
      -281.422        -219.290
  -6524473.737 9  -5062566.01846  23161223.212    23161222.6974   23161229.7694
      4306.389        3355.628
 96 10 31 18 27 29.9980000  0  8  3 25 23 21  1  9 31 15            -0.001940516
   3189669.041 9   2491967.43047  22480991.794    22480991.7544   22480997.9704
     -1990.448       -1550.998
 -13916999.184 9 -10831015.47147  22683566.949    22683566.9564   22683573.0894
      4020.846        3133.127
   7886418.311 9   6127185.40947  22821416.331    22821415.7544   22821421.7054
     -1248.259        -972.669
  -4901138.224 9  -3813888.04749  20391999.142    20391998.6464   20392003.4654
        19.794          15.424
 -14533751.279 9 -11309306.36348  19743430.434    19743430.0194   19743434.7614
       166.951         130.092
   -493362.261 9   -379711.27946  24254961.036    24254960.8714   24254966.8074
     -1729.624       -1347.759
 -12692779.183 9  -9877571.47847  22278111.118    22278110.6304   22278115.9724
      -298.830        -232.855
  -6653592.246 9  -5163177.81546  23136652.742    23136652.2234   23136659.3374
      4301.282        3351.648
 96 10 31 18 27 59.9980000  0  8  3 25 23 21  1  9 31 15            -0.001956103
   3249494.812 9   2538584.86747  22492376.420    22492376.2874   22492382.4934
     -1998.162       -1557.009
 -14037559.018 9 -10924958.14147  22660625.205    22660625.1294   22660631.2684
      4016.062        3129.399
   7923924.486 9   6156410.95047  22828553.542    22828552.9014   22828558.9104
     -1252.477        -975.956
  -4901594.346 9  -3814243.47849  20391912.292    20391911.8424   20391916.6674
        10.327           8.047
 -14538531.674 9 -11313031.35448  19742520.790    19742520.3544   19742525.0824
       151.711         118.216
   -441287.688 8   -339133.75646  24264870.695    24264870.4954   24264876.4174
     -1742.340       -1357.668
 -12683574.124 9  -9870398.72547  22279862.733    22279862.3004   22279867.6624
      -315.107        -245.538
  -6782568.734 9  -5263678.93946  23112109.391    23112108.7634   23112115.8034
      4296.876        3348.215
 96 10 31 18 28 29.9980000  0  8  3 25 23 21  1  9 31 15            -0.001971663
   3309549.693 9   2585380.82947  22503804.564    22503804.4184   22503810.7314
     -2004.753       -1562.145
 -14157962.279 9 -11018778.80047  22637713.241    22637713.1154   22637719.2164
      4011.395        3125.762
   7961564.302 9   6185740.61447  22835716.106    22835715.5054   22835721.5284
     -1256.290        -978.927
  -4901769.243 9  -3814379.77148  20391879.048    20391878.5734   20391883.3914
         2.307           1.798
 -14542868.315 9 -11316410.56048  19741695.535    19741695.1044   19741699.8444
       137.958         107.500
   -388835.166 9   -298261.75446  24274852.011    24274851.7804   24274857.6654
     -1753.924       -1366.694
 -12673880.968 9  -9862845.64047  22281707.273    22281706.7594   22281712.2154
      -330.677        -257.670
  -6911409.755 9  -5364074.54846  23087591.858    23087591.2134   23087598.1864
      4293.186        3345.340
 96 10 31 18 28 59.9980000  0  8  3 25 23 21  1  9 31 15            -0.001987198
   3369808.876 9   2632335.99647  22515271.541    22515271.3584   22515277.6774
     -2012.180       -1567.932
 -14278204.845 9 -11112474.25347  22614831.846    22614831.6824   22614837.7574
      4005.293        3121.008
   7999344.947 9   6215180.02647  22842905.568    22842905.0264   22842911.0784
     -1262.031        -983.401
  -4901700.672 9  -3814326.35048  20391892.115    20391891.6214   20391896.4714
        -6.488          -5.056
 -14546773.229 9 -11319453.36448  19740952.461    19740952.0094   19740956.7494
       122.867          95.741
   -336008.205 9   -257097.85146  24284904.829    24284904.5114   24284910.1704
     -1767.499       -1377.272
 -12663697.392 9  -9854910.40147  22283645.147    22283644.6874   22283650.1214
      -347.759        -270.981
  -7040120.793 9  -5464368.82046  23063098.719    23063098.2784   23063105.1574
      4287.997        3341.296
 96 10 31 18 29 29.9980000  0  8  3 25 23 21  1  9 31 15            -0.002002707
   3430263.626 9   2679443.53347  22526775.887    22526775.6084   22526781.9684
     -2018.553       -1572.898
 -14398297.112 9 -11206052.57847  22591978.943    22591978.8574   22591984.9064
      4000.488        3117.263
   8037261.342 9   6244725.23147  22850120.858    22850120.3194   22850126.3194
     -1266.169        -986.625
  -4901412.524 9  -3814101.83449  20391946.962    20391946.4654   20391951.3324
       -13.041         -10.162
 -14550267.834 9 -11322176.44648  19740287.399    19740286.9804   19740291.7474
       109.599          85.402
   -282804.274 9   -215640.30346  24295029.087    24295028.7664   24295034.6244
     -1779.847       -1386.894
 -12653041.393 9  -9846607.04547  22285672.822    22285672.4124   22285677.8494
      -363.033        -282.883
  -7168708.581 9  -5564567.08246  23038629.354    23038628.9204   23038635.7824
      4284.038        3338.211
 96 10 31 18 29 59.9970000  0  8  3 25 23 21  1  9 31 15            -0.002018199
   3490910.665 9   2726700.92347  22538316.665    22538316.4234   22538322.8074
     -2025.175       -1578.058
 -14518238.280 9 -11299513.16047  22569154.836    22569154.7624   22569160.7504
      3995.430        3113.322
   8075299.429 9   6274365.24047  22857359.367    22857358.7884   22857364.8054
     -1270.206        -989.771
  -4900942.578 9  -3813735.65548  20392036.359    20392035.8704   20392040.7734
       -18.862         -14.698
 -14553365.714 9 -11324590.38848  19739697.858    19739697.4324   19739702.2294
        96.389          75.108
   -229230.640 8   -173894.67646  24305223.637    24305223.3614   24305229.5934
     -1792.514       -1396.764
 -12641933.217 9  -9837951.34447  22287786.798    22287786.3244   22287791.7674
      -378.065        -294.596
  -7297170.954 9  -5664667.62246  23014183.730    23014183.4044   23014190.0584
      4279.836        3334.937
 96 10 31 18 30 29.9970000  0  8  3 25 23 21  1  9 31 15            -0.002033678
   3551761.870 9   2774117.38747  22549896.271    22549895.9784   22549902.3914
     -2031.105       -1582.679
 -14638034.570 9 -11392860.84947  22546358.323    22546358.2714   22546364.2154
      3991.425        3110.201
   8113449.889 9   6304092.81047  22864619.184    22864618.6444   22864624.7084
     -1272.811        -991.801
  -4900295.141 9  -3813231.17049  20392159.522    20392159.0774   20392163.9804
       -24.095         -18.775
 -14556059.531 9 -11326689.47848  19739185.225    19739184.8114   19739189.5974
        83.294          64.904
   -175262.829 8   -131841.89545  24315493.395    24315493.0474   24315499.4704
     -1804.935       -1406.443
 -12630360.387 9  -9828933.56647  22289989.007    22289988.5324   22289993.9584
      -393.426        -306.566
  -7425503.414 9  -5764666.88946  22989762.853    22989762.3734   22989769.0854
      4275.927        3331.891
 96 10 31 18 30 59.9970000  0  8  3 25 23 21  1  9 31 15            -0.002049154
   3612814.107 9   2821690.50547  22561514.158    22561513.9454   22561520.4364
     -2038.655       -1588.562
 -14757691.209 9 -11486099.72947  22523588.431    22523588.3354   22523594.2724
      3986.176        3106.111
   8151699.329 9   6333897.52647  22871897.914    22871897.3654   22871903.3474
     -1276.608        -994.759
  -4899453.247 9  -3812575.16049  20392319.774    20392319.3104   20392324.1984
       -31.885         -24.845
 -14558321.181 9 -11328451.81648  19738754.847    19738754.4424   19738759.2264
        67.800          52.831
   -120888.083 8    -89471.90046  24325840.665    24325840.1844   24325846.4334
     -1819.562       -1417.841
 -12618294.923 9  -9819531.93647  22292285.036    22292284.5114   22292290.0894
      -410.485        -319.858
  -7553689.260 8  -5864551.97646  22965369.797    22965369.4624   22965376.2294
      4270.240        3327.460
 96 10 31 18 31 29.9970000  0  8  3 25 23 21  1  9 31 15            -0.002064643
   3674066.609 9   2869419.68847  22573170.008    22573169.7674   22573176.2314
     -2045.307       -1593.746
 -14877217.087 9 -11579236.72047  22500843.441    22500843.3274   22500849.1534
      3981.695        3102.619
   8190024.811 9   6363761.49647  22879190.998    22879190.4924   22879196.5104
     -1278.987        -996.613
  -4898391.521 9  -3811747.85749  20392521.873    20392521.3724   20392526.2484
       -39.356         -30.667
 -14560136.231 9 -11329866.14648  19738409.438    19738409.0294   19738413.8014
        52.569          40.963
    -66107.723 8    -46786.04146  24336264.951    24336264.5434   24336271.0594
     -1832.858       -1428.201
 -12605740.054 9  -9809748.93047  22294674.143    22294673.7164   22294679.1764
      -427.079        -332.789
  -7681727.263 9  -5964321.85446  22941004.812    22941004.7014   22941011.2344
      4265.142        3323.487
 96 10 31 18 31 59.9970000  0  8  3 25 23 21  1  9 31 15            -0.002080155
   3735508.255 9   2917296.22547  22584861.902    22584861.7394   22584868.2984
     -2051.085       -1598.248
 -14996610.728 9 -11672270.66747  22478123.589    22478123.4764   22478129.2224
      3977.496        3099.348
   8228416.699 9   6393677.18347  22886496.778    22886496.2524   22886502.3144
     -1280.786        -998.015
  -4897111.248 9  -3810750.25249  20392765.508    20392765.0254   20392769.8904
       -46.425         -36.175
 -14561498.986 9 -11330928.04148  19738150.079    19738149.6884   19738154.4714
        38.080          29.673
    -10938.567 8     -3797.09146  24346763.376    24346762.9104   24346769.5454
     -1845.313       -1437.906
 -12592688.271 9  -9799578.74947  22297157.752    22297157.2524   22297162.9384
      -443.389        -345.498
  -7809621.786 9  -6063979.84446  22916667.300    22916666.9264   22916673.6684
      4260.894        3320.177
 96 10 31 18 32 29.9970000  0  8  3 25 23 21  1  9 31 15            -0.002095688
   3797131.801 9   2965314.53247  22596588.557    22596588.3484   22596594.7614
     -2057.402       -1603.170
 -15115868.358 9 -11765198.65947  22455429.572    22455429.4624   22455435.1654
      3972.822        3095.705
   8266877.743 9   6423646.76747  22893815.712    22893815.1834   22893821.2944
     -1283.710       -1000.293
  -4895600.955 9  -3809573.41149  20393052.951    20393052.4504   20393057.3124
       -54.450         -42.428
 -14562412.045 9 -11331639.51748  19737976.378    19737975.9744   19737980.7144
        22.646          17.646
     44606.251 8     39484.50946  24357333.308    24357332.8484   24357339.4174
     -1857.688       -1447.549
 -12579125.075 9  -9789010.02547  22299738.789    22299738.3574   22299743.9534
      -460.909        -359.150
  -7937380.524 9  -6163532.09746  22892355.670    22892355.1714   22892361.9644
      4256.155        3316.484
 96 10 31 18 32 59.9970000  0  8  3 25 23 21  1  9 31 15            -0.002111234
   3858943.919 9   3013479.76647  22608351.087    22608350.9344   22608357.3454
     -2063.394       -1607.839
 -15234983.640 9 -11858015.71247  22432762.573    22432762.4884   22432768.1984
      3968.195        3092.100
   8305439.053 9   6453694.47947  22901153.718    22901153.1444   22901159.2544
     -1286.960       -1002.826
  -4893843.674 9  -3808204.11849  20393387.316    20393386.8554   20393391.7254
       -62.593         -48.774
 -14562865.241 9 -11331992.65948  19737890.177    19737889.7544   19737894.4674
         7.919           6.171
    100507.481 8     83043.87546  24367970.936    24367970.4554   24367976.8364
     -1869.005       -1456.368
 -12565059.526 9  -9778049.88547  22302415.162    22302414.7694   22302420.4904
      -476.466        -371.272
  -8064999.141 9  -6262975.18546  22868070.509    22868070.2194   22868076.8614
      4251.877        3313.151
 96 10 31 18 33 29.9970000  0  8  3 25 23 21  1  9 31 15            -0.002126772
   3920961.124 9   3061804.78347  22620152.678    22620152.3764   22620158.9064
     -2071.555       -1614.199
 -15353924.709 9 -11950697.03247  22410128.711    22410128.7184   22410134.4044
      3960.730        3086.283
   8344128.597 9   6483842.12047  22908516.288    22908515.6334   22908521.7174
     -1292.857       -1007.421
  -4891822.702 9  -3806629.34349  20393771.936    20393771.4624   20393776.3214
       -72.430         -56.439
 -14562862.690 9 -11331990.66648  19737890.687    19737890.2594   19737894.9584
        -8.308          -6.474
    156765.421 9    126881.22146  24378676.348    24378676.1034   24378682.3064
     -1881.863       -1466.387
 -12550513.427 9  -9766715.29147  22305183.329    22305182.8744   22305188.6544
      -493.651        -384.663
  -8192463.228 9  -6362297.81646  22843814.940    22843814.5174   22843821.2394
      4245.371        3308.081
 96 10 31 18 33 59.9970000  0  8  3 25 23 21  1  9 31 15            -0.002142276
   3983204.891 9   3110306.38147  22631997.371    22631997.0594   22632003.5164
     -2078.601       -1619.689
 -15472649.936 9 -12043210.16647  22387536.066    22387535.9734   22387541.6974
      3953.760        3080.852
   8382983.689 9   6514118.76547  22915910.153    22915909.6274   22915915.7154
     -1298.064       -1011.478
  -4889524.253 9  -3804838.36349  20394209.331    20394208.8514   20394213.7144
       -81.490         -63.499
 -14562400.647 9 -11331630.63148  19737978.583    19737978.1794   19737982.9064
       -22.995         -17.918
    213393.081 8    171006.59845  24389452.289    24389452.0354   24389458.3364
     -1893.888       -1475.757
 -12535474.748 9  -9754996.85447  22308044.973    22308044.6154   22308050.3264
      -509.537        -397.042
  -8319750.893 9  -6461482.93446  22819592.840    22819592.3714   22819599.2314
      4239.868        3303.793
 96 10 31 18 34 29.9970000  0  8  3 25 23 21  1  9 31 15            -0.002157735
   4045675.638 9   3158984.80847  22643885.259    22643884.9234   22643891.4404
     -2086.011       -1625.463
 -15591150.534 9 -12135548.26547  22364986.007    22364985.9774   22364991.7214
      3946.358        3075.084
   8422012.385 9   6544530.67047  22923337.104    22923336.4964   22923342.6324
     -1303.770       -1015.925
  -4886930.800 9  -3802817.50048  20394702.856    20394702.3694   20394707.2404
       -91.113         -70.997
 -14561483.084 9 -11330915.64848  19738153.163    19738152.7794   19738157.5074
       -38.012         -29.620
    270401.142 9    215428.46746  24400300.483    24400300.3164   24400306.6594
     -1906.518       -1485.598
 -12519946.126 9  -9742896.68047  22311000.139    22310999.6074   22311005.4244
      -525.509        -409.488
  -8446849.344 9  -6560520.72546  22795406.829    22795406.3694   22795413.0294
      4233.457        3298.798
 96 10 31 18 34 59.9970000  0  8  3 25 23 21  1  9 31 15            -0.002173142
   4108370.652 9   3207838.01147  22655815.736    22655815.3844   22655821.8764
     -2092.987       -1630.899
 -15709412.159 9 -12227700.15147  22342481.576    22342481.5394   22342487.2344
      3938.416        3068.896
   8461215.462 9   6575078.45247  22930797.307    22930796.6544   22930802.7824
     -1308.971       -1019.977
  -4884050.019 9  -3800572.75448  20395251.019    20395250.5294   20395255.4374
      -100.143         -78.034
 -14560120.839 9 -11329854.15548  19738412.385    19738411.9964   19738416.7244
       -52.155         -40.640
    327796.744 8    260152.21846  24411222.569    24411222.4554   24411228.8444
     -1919.380       -1495.621
 -12503944.192 9  -9730427.64547  22314045.197    22314044.7814   22314050.4074
      -540.879        -421.464
  -8573744.675 9  -6659400.17846  22771259.562    22771259.1164   22771265.6954
      4226.923        3293.706
 96 10 31 18 35 29.9970000  0  8  3 25 23 21  1  9 31 15            -0.002188501
   4171281.399 9   3256859.31847  22667787.077    22667786.8834   22667793.4334
     -2100.945       -1637.100
 -15827429.395 9 -12319661.61347  22320023.643    22320023.5874   22320029.2744
      3929.782        3062.168
   8500575.857 9   6605748.83247  22938287.307    22938286.6994   22938292.9404
     -1314.966       -1024.649
  -4880902.390 9  -3798120.07048  20395849.964    20395849.5064   20395854.4314
      -109.588         -85.393
 -14558325.409 9 -11328455.11648  19738754.030    19738753.6414   19738758.3864
       -67.485         -52.586
    385590.403 8    305186.17646  24422220.339    24422220.2634   24422226.8244
     -1933.262       -1506.438
 -12487449.989 9  -9717575.05747  22317184.021    22317183.5074   22317189.1704
      -558.659        -435.319
  -8700433.715 9  -6758118.87047  22747151.329    22747151.0674   22747157.6944
      4219.135        3287.638
 96 10 31 18 35 59.9970000  0  8  3 25 23 21  1  9 31 15            -0.002203813
   4234400.286 9   3306042.79447  22679798.157    22679797.9704   22679804.5914
     -2106.708       -1641.591
 -15945220.304 9 -12411446.69547  22297608.724    22297608.6824   22297614.4034
      3923.468        3057.248
   8540086.171 9   6636536.03947  22945805.997    22945805.3274   22945811.5854
     -1318.755       -1027.601
  -4877495.517 9  -3795465.37148  20396498.249    20396497.7984   20396502.7654
      -117.154         -91.289
 -14556098.669 9 -11326719.99748  19739177.764    19739177.3634   19739182.1244
       -80.710         -62.891
    443775.430 8    350525.14645  24433292.788    24433292.6304   24433298.9894
     -1945.414       -1515.907
 -12470446.734 9  -9704325.79847  22320419.669    22320419.2084   22320424.8034
      -574.565        -447.713
  -8826916.019 9  -6856676.49046  22723082.509    22723082.1304   22723088.7514
      4213.280        3283.075
 96 10 31 18 36 29.9970000  0  8  3 25 23 21  1  9 31 15            -0.002219089
   4297719.763 9   3355382.60947  22691847.443    22691847.3324   22691853.8974
     -2114.168       -1647.404
 -16062803.814 9 -12503070.16947  22275233.349    22275233.2664   22275238.9964
      3915.899        3051.350
   8579733.360 9   6667429.87347  22953350.588    22953349.9214   22953356.2524
     -1323.946       -1031.646
  -4873844.632 9  -3792620.54048  20397193.017    20397192.5474   20397197.5284
      -125.790         -98.018
 -14553450.945 9 -11324656.83648  19739681.582    19739681.1944   19739685.9494
       -95.429         -74.360
    502338.982 9    396159.07246  24444437.247    24444436.9834   24444443.0454
     -1958.462       -1526.074
 -12452946.602 9  -9690689.36047  22323749.802    22323749.3104   22323754.9664
      -591.696        -461.062
  -8953195.649 8  -6955076.13946  22699052.397    22699051.8174   22699058.7044
      4205.857        3277.291
 96 10 31 18 36 59.9970000  0  8  3 25 23 21  1  9 31 15            -0.002234341
   4361232.006 9   3404872.57847  22703933.456    22703933.3104   22703940.0264
     -2120.441       -1652.292
 -16180187.118 9 -12594537.63347  22252895.952    22252895.9354   22252901.6784
      3909.330        3046.231
   8619509.613 9   6698424.32347  22960919.749    22960919.1944   22960925.5314
     -1328.307       -1035.044
  -4869957.651 9  -3789591.73448  20397932.693    20397932.1794   20397937.2014
      -133.962        -104.386
 -14550377.091 9 -11322261.62648  19740266.537    19740266.1484   19740270.9074
      -110.084         -85.780
    561270.861 8    442079.97645  24455651.662    24455651.3464   24455657.5244
     -1970.930       -1535.790
 -12434957.384 9  -9676671.82147  22327173.020    22327172.5434   22327178.3214
      -608.265        -473.973
  -9079280.646 9  -7053324.26146  22675059.059    22675058.8594   22675065.4964
      4199.389        3272.251
 96 10 31 18 37 29.9970000  0  8  3 25 23 21  1  9 31 15            -0.002249579
   4424926.748 9   3454504.80847  22716054.379    22716054.2264   22716060.8554
     -2126.234       -1656.806
 -16297382.991 9 -12685859.03947  22230594.323    22230594.3194   22230600.0164
      3903.232        3041.479
   8659417.428 9   6729521.26147  22968513.985    22968513.4194   22968519.7074
     -1332.712       -1038.477
  -4865816.482 9  -3786364.86348  20398720.702    20398720.2094   20398725.2424
      -142.627        -111.138
 -14546857.307 9 -11319518.94348  19740936.324    19740935.9244   19740940.6904
      -124.862         -97.295
    620574.912 9    488290.89346  24466936.856    24466936.5264   24466942.7194
     -1982.857       -1545.083
 -12416468.918 9  -9662265.24647  22330691.337    22330690.8294   22330696.5674
      -624.446        -486.581
  -9205174.256 9  -7151423.13946  22651102.296    22651102.1134   22651108.6854
      4193.157        3267.395
 96 10 31 18 37 59.9970000  0  8  3 25 23 21  1  9 31 15            -0.002264809
   4488781.745 9   3504261.87647  22728205.659    22728205.4744   22728212.1294
     -2130.614       -1660.219
 -16414384.895 9 -12777029.29947  22208329.633    22208329.5914   22208335.3114
      3896.864        3036.517
   8699454.695 9   6760719.06447  22976132.892    22976132.3504   22976138.5984
     -1336.342       -1041.305
  -4861419.308 9  -3782938.50148  20399557.515    20399557.0124   20399562.0454
      -150.433        -117.221
 -14542904.367 9 -11316438.74148  19741688.569    19741688.1614   19741692.9174
      -138.609        -108.007
    680228.285 8    534773.97046  24478288.682    24478288.3224   24478294.5744
     -1993.938       -1553.718
 -12397520.424 9  -9647500.22447  22334297.168    22334296.6854   22334302.3734
      -638.903        -497.846
  -9330889.268 9  -7249382.81946  22627179.602    22627179.2674   22627186.0474
      4187.869        3263.274
 96 10 31 18 38 29.9970000  0  8  3 25 23 21  1  9 31 15            -0.002280037
   4552776.113 9   3554127.54247  22740383.580    22740383.3604   22740389.9774
     -2135.473       -1664.005
 -16531182.928 9 -12868040.68847  22186103.777    22186103.6584   22186109.3434
      3889.859        3031.059
   8739616.129 9   6792013.63647  22983775.437    22983774.9344   22983781.0884
     -1340.786       -1044.768
  -4856768.826 9  -3779314.76748  20400442.544    20400442.0004   20400447.0384
      -159.477        -124.268
 -14538526.226 9 -11313027.21348  19742521.745    19742521.2894   19742526.0354
      -153.176        -119.358
    740227.555 9    581526.57246  24489706.191    24489705.8374   24489712.1764
     -2005.880       -1563.023
 -12378119.298 9  -9632382.49247  22337989.165    22337988.6924   22337994.2974
      -654.435        -509.949
  -9456432.455 9  -7347208.67647  22603289.607    22603289.1894   22603295.7974
      4181.824        3258.564
 96 10 31 18 38 59.9970000  0  8  3 25 23 21  1  9 31 15            -0.002295268
   4616894.791 9   3604090.09747  22752584.939    22752584.7234   22752591.3224
     -2139.504       -1667.146
 -16647785.664 9 -12958899.89747  22163914.948    22163914.8594   22163920.5404
      3883.374        3026.006
   8779893.598 9   6823398.61347  22991440.174    22991439.5664   22991445.6094
     -1344.654       -1047.782
  -4851861.987 9  -3775491.26848  20401376.264    20401375.7464   20401380.8224
      -167.841        -130.785
 -14533726.248 9 -11309286.98348  19743435.153    19743434.7364   19743439.4334
      -167.099        -130.207
    800576.392 9    628551.66645  24501190.185    24501189.9764   24501196.1604
     -2017.624       -1572.175
 -12358268.577 9  -9616914.42547  22341766.671    22341766.1714   22341771.8174
      -669.331        -521.557
  -9581809.327 9  -7444904.87646  22579431.231    22579430.6134   22579437.3514
      4176.241        3254.214
 96 10 31 18 39 29.9970000  0  8  3 25 23 21  1  9 31 15            -0.002310498
   4681139.412 9   3654150.75947  22764810.301    22764810.1074   22764816.7914
     -2143.666       -1670.389
 -16764186.544 9 -13049601.81647  22141764.522    22141764.4334   22141770.1564
      3876.629        3020.750
   8820286.529 9   6854873.57947  22999126.732    22999126.0784   22999132.2054
     -1348.207       -1050.551
  -4846702.395 9  -3771470.81948  20402358.101    20402357.5864   20402362.6624
      -176.108        -137.227
 -14528513.587 9 -11305225.17648  19744427.089    19744426.6794   19744431.3624
      -180.480        -140.634
    861275.171 8    675849.45345  24512740.844    24512740.7544   24512746.7664
     -2028.894       -1580.956
 -12337970.690 9  -9601097.91447  22345629.265    22345628.8084   22345634.4244
      -683.887        -532.899
  -9707012.164 9  -7542465.41946  22555606.052    22555605.2514   22555612.1484
      4170.524        3249.759
 96 10 31 18 39 59.9970000  0  8  3 25 23 21  1  9 31 15            -0.002325719
   4745532.009 9   3704326.76047  22777063.918    22777063.6794   22777070.3164
     -2149.252       -1674.742
 -16880369.128 9 -13140133.62547  22119655.630    22119655.5984   22119661.3014
      3869.051        3014.845
   8860799.678 9   6886442.21746  23006836.208    23006835.6244   23006841.7414
     -1352.610       -1053.982
  -4841278.655 9  -3767244.54748  20403390.174    20403389.6754   20403394.7614
      -185.495        -144.542
 -14522878.651 9 -11300834.33148  19745499.383    19745498.9964   19745503.6654
      -195.219        -152.119
    922334.194 8    723427.86346  24524360.015    24524359.8514   24524366.0134
     -2041.802       -1591.014
 -12317220.646 9  -9584929.08747  22349577.875    22349577.4004   22349583.0514
      -699.722        -545.238
  -9832021.583 9  -7639875.47246  22531817.731    22531816.9234   22531823.3484
      4163.433        3244.234
 96 10 31 18 40 29.9970000  0  7  3 25 23 21  1 31 15               -0.002340926
   4810099.009 9   3754638.63847  22789350.492    22789350.4034   22789357.0964
     -2155.708       -1679.772
 -16996345.359 9 -13230504.64647  22097586.068    22097585.9754   22097591.6824
      3862.278        3009.567
   8901442.078 9   6918111.54746  23014570.223    23014569.5844   23014575.7544
     -1357.307       -1057.642
  -4835578.416 9  -3762802.81748  20404474.878    20404474.4064   20404479.5044
      -194.788        -151.783
 -14516803.275 9 -11296100.28748  19746655.490    19746655.0894   19746659.7634
      -210.265        -163.843
 -12295996.176 9  -9568390.54747  22353616.811    22353616.3914   22353621.9474
      -715.576        -557.592
  -9956817.204 9  -7737118.85346  22508070.041    22508069.3724   22508075.5224
      4155.903        3238.366
 96 10 31 18 40 59.9970000  0  7  3 25 23 21  1 31 15               -0.002356118
   4874851.622 9   3805095.15347  22801672.584    22801672.4474   22801679.0634
     -2161.675       -1684.422
 -17112117.758 9 -13320716.83947  22075555.212    22075555.1174   22075560.8584
      3855.132        3003.999
   8942224.455 9   6949889.98847  23022330.766    23022330.3414   23022336.4664
     -1362.295       -1061.529
  -4829612.827 9  -3758154.32248  20405610.132    20405609.6484   20405614.7274
      -203.672        -158.705
 -14510277.982 9 -11291015.65448  19747897.239    19747896.8124   19747901.4604
      -225.359        -175.604
 -12274306.612 9  -9551489.63647  22357744.234    22357743.7974   22357749.3854
      -731.153        -569.730
 -10081389.318 9  -7834187.91447  22484364.654    22484364.1534   22484370.5274
      4148.237        3232.392
 96 10 31 18 41 29.9970000  0  7  3 25 23 21  1 31 15               -0.002371297
   4939766.383 9   3855678.03447  22814025.392    22814025.2984   22814031.8144
     -2166.683       -1688.324
 -17227683.802 9 -13410768.24547  22053563.570    22053563.5084   22053569.2884
      3848.501        2998.832
   8983151.471 9   6981781.10546  23030119.011    23030118.5614   23030124.6834
     -1366.907       -1065.122
  -4823388.389 9  -3753304.12648  20406794.666    20406794.1444   20406799.1884
      -212.028        -165.217
 -14503311.468 9 -11285587.21848  19749222.891    19749222.5074   19749227.1054
      -239.753        -186.821
 -12252162.451 9  -9534234.47847  22361958.191    22361957.7664   22361963.3324
      -745.920        -581.236
 -10205742.359 9  -7931086.44647  22460701.044    22460700.5434   22460706.6104
      4141.251        3226.949
 96 10 31 18 41 59.9970000  0  7  3 25 23 21  1 31 15               -0.002386460
   5004835.330 9   3906381.03547  22826407.838    22826407.6654   22826414.1964
     -2171.423       -1692.018
 -17343045.821 9 -13500660.67147  22031610.800    22031610.7804   22031616.5834
      3842.000        2993.766
   9024225.052 9   7013786.42946  23037934.842    23037934.4534   23037940.7854
     -1371.459       -1068.669
  -4816914.714 9  -3748259.71848  20408026.560    20408026.0554   20408031.0884
      -219.618        -171.131
 -14495917.104 9 -11279825.38848  19750630.021    19750629.6224   19750634.2114
      -253.232        -197.324
 -12229567.279 9  -9516627.88247  22366257.845    22366257.4044   22366262.9714
      -760.700        -592.753
 -10329878.851 9  -8027816.20747  22437078.686    22437078.2324   22437084.0684
      4134.368        3221.585
 96 10 31 18 42 29.9970000  0  7  3 25 23 21  1 31 15               -0.002401597
   5070056.805 9   3957202.89147  22838819.031    22838818.8734   22838825.4064
     -2176.674       -1696.110
 -17458191.361 9 -13590384.41447  22009699.294    22009699.2744   22009705.0334
      3834.167        2987.663
   9065450.807 9   7045910.32746  23045779.978    23045779.5154   23045785.8334
     -1376.878       -1072.892
  -4810210.448 9  -3743035.63248  20409302.328    20409301.8144   20409306.8554
      -227.325        -177.136
 -14488113.022 9 -11273744.30248  19752115.072    19752114.6874   19752119.2744
      -267.103        -208.132
 -12206512.898 9  -9498663.45747  22370644.904    22370644.4784   22370650.0954
      -776.264        -604.881
 -10453796.958 9  -8124375.67347  22413497.685    22413497.3614   22413503.5534
      4126.793        3215.683
 96 10 31 18 42 59.9970000  0  7  3 25 23 21  1 31 15               -0.002416710
   5135413.007 9   4008129.75247  22851256.036    22851255.8434   22851262.2724
     -2181.050       -1699.519
 -17573097.190 9 -13679921.37247  21987833.411    21987833.3734   21987839.0974
      3825.584        2980.975
   9106822.287 9   7078147.80446  23053652.788    23053652.3654   23053658.5824
     -1381.840       -1076.758
  -4803283.215 9  -3737637.80248  20410620.512    20410620.0274   20410625.0474
      -235.268        -183.326
 -14479904.824 9 -11267348.31648  19753677.046    19753676.6584   19753681.2454
      -280.697        -218.725
 -12182999.841 9  -9480341.62647  22375119.249    22375118.8444   22375124.4804
      -791.911        -617.074
 -10577499.379 9  -8220767.12547  22389957.771    22389957.5284   22389963.7764
      4119.381        3209.907
 96 10 31 18 43 29.9970000  0  7  3 25 23 21  1 31 15               -0.002431796
   5200904.742 9   4059162.17247  22863718.670    22863718.4224   22863725.0864
     -2185.377       -1702.891
 -17687747.679 9 -13769259.36747  21966016.165    21966016.1254   21966021.8064
      3817.598        2974.752
   9148338.461 9   7110497.99846  23061553.079    23061552.6084   23061558.8994
     -1385.897       -1079.920
  -4796118.798 9  -3732055.15548  20411983.833    20411983.3804   20411988.4174
      -242.489        -188.952
 -14471292.571 9 -11260637.48548  19755315.912    19755315.5484   19755320.1154
      -293.520        -228.717
 -12159022.604 9  -9461658.09247  22379681.960    22379681.5574   22379687.1794
      -806.736        -628.625
 -10700978.755 9  -8316984.84047  22366460.464    22366460.0644   22366466.2524
      4112.375        3204.448
 96 10 31 18 43 59.9970000  0  7  3 25 23 21  1 31 15               -0.002446860
   5266535.534 9   4110303.01947  22876207.917    22876207.5934   22876214.1104
     -2189.770       -1706.314
 -17802146.187 9 -13858401.02047  21944246.904    21944246.8244   21944252.4284
      3809.034        2968.078
   9189977.849 9   7142944.17946  23069476.828    23069476.2024   23069482.6504
     -1389.935       -1083.066
  -4788729.634 9  -3726297.38448  20413389.978    20413389.4894   20413394.5494
      -250.036        -194.833
 -14462294.451 9 -11253625.96948  19757028.235    19757027.8454   19757032.4254
      -306.338        -238.705
 -12134592.507 9  -9442621.69147  22384330.976    22384330.4914   22384336.1964
      -821.757        -640.330
 -10824237.092 9  -8413030.30547  22343005.163    22343004.7054   22343010.7804
      4105.011        3198.710
 96 10 31 18 44 29.9970000  0  7  3 25 23 21  1 31 15               -0.002461912
   5332290.422 9   4161540.49647  22888720.430    22888720.2334   22888727.0084
     -2193.369       -1709.119
 -17916290.069 9 -13947344.26047  21922526.071    21922525.9854   21922531.5464
      3801.017        2961.831
   9231735.514 9   7175482.55646  23077423.080    23077422.5554   23077428.9484
     -1393.562       -1085.892
  -4781110.037 9  -3720360.04948  20414839.953    20414839.4504   20414844.5264
      -257.586        -200.716
 -14452900.753 9 -11246306.21148  19758815.808    19758815.4264   19758819.9824
      -319.409        -248.890
 -12109723.173 9  -9423243.01947  22389063.362    22389062.8994   22389068.6394
      -835.670        -651.171
 -10947277.452 9  -8508905.88746  22319591.463    22319590.8404   22319596.9164
      4098.089        3193.316
 96 10 31 18 44 59.9970000  0  7  3 25 23 21  1 31 15               -0.002476961
   5398145.894 9   4212856.40047  22901252.647    22901252.3794   22901259.0174
     -2196.969       -1711.924
 -18030195.224 9 -14036101.49347  21900850.613    21900850.5404   21900856.0564
      3792.915        2955.518
   9273603.250 9   7208106.71946  23085390.387    23085389.9424   23085396.2714
     -1397.554       -1089.003
  -4773252.387 9  -3714237.21848  20416335.244    20416334.7474   20416339.8154
      -266.283        -207.493
 -14443124.132 9 -11238688.06648  19760676.274    19760675.8714   19760680.4054
      -332.177        -258.839
 -12084444.877 9  -9403545.68147  22393873.659    22393873.1954   22393878.9394
      -849.471        -661.925
 -11070109.446 9  -8604619.13446  22296217.537    22296216.7554   22296222.8024
      4090.762        3187.607
 96 10 31 18 45 29.9970000  0  7  3 25 23 21  1 31 15               -0.002492000
   5464105.933 9   4264253.76347  22913804.377    22913804.1334   22913810.8094
     -2200.384       -1714.585
 -18143878.139 9 -14124685.55047  21879217.506    21879217.4274   21879222.8384
      3785.822        2949.991
   9315577.577 9   7240813.94546  23093377.771    23093377.3374   23093383.6954
     -1400.661       -1091.424
  -4765141.740 9  -3707917.25048  20417878.702    20417878.1914   20417883.2304
      -274.500        -213.896
 -14432986.973 9 -11230788.97848  19762605.295    19762604.8964   19762609.4524
      -343.745        -267.853
 -12058772.238 9  -9383541.06747  22398758.997    22398758.4844   22398764.3564
      -862.156        -671.810
 -11192733.020 9  -8700169.92346  22272883.050    22272882.2754   22272888.3504
      4084.082        3182.401
 96 10 31 18 45 59.9970000  0  7  3 25 23 21  1 31 15               -0.002507025
   5530180.448 9   4315740.34647  22926378.056    22926377.8784   22926384.5054
     -2204.754       -1717.990
 -18257325.709 9 -14213086.22947  21857629.198    21857629.1054   21857634.4134
      3777.098        2943.193
   9357660.711 9   7273605.89146  23101385.898    23101385.4524   23101391.9544
     -1405.231       -1094.985
  -4756759.011 9  -3701385.27148  20419473.862    20419473.3814   20419478.4204
      -284.489        -221.680
 -14422481.157 9 -11222602.62648  19764604.477    19764604.0734   19764608.6724
      -356.954        -278.146
 -12032703.552 9  -9363227.82747  22403719.723    22403719.3044   22403725.0494
      -876.070        -682.652
 -11315138.562 9  -8795550.79246  22249589.799    22249589.2364   22249595.4064
      4076.109        3176.189
 96 10 31 18 46 29.9970000  0  7  3 25 23 21  1 31 15               -0.002522022
   5596384.054 9   4367327.48047  22938976.111    22938975.9784   22938982.6414
     -2209.211       -1721.463
 -18370513.183 9 -14301284.23247  21836090.330    21836090.2594   21836095.5224
      3768.420        2936.431
   9399885.322 9   7306508.14847  23109421.072    23109420.5974   23109427.1094
     -1410.038       -1098.731
  -4748078.605 9  -3694621.33148  20421125.690    20421125.2254   20421130.2514
      -294.403        -229.405
 -14411578.945 9 -11214107.39048  19766679.108    19766678.6984   19766683.3104
      -370.142        -288.422
 -12006217.138 9  -9342589.10247  22408759.939    22408759.4634   22408765.3034
      -890.205        -693.666
 -11437305.627 9  -8890745.86147  22226341.937    22226341.5264   22226347.7594
      4068.018        3169.884
 96 10 31 18 46 59.9970000  0  7  3 25 23 21  1 31 15               -0.002536990
   5662720.814 9   4419018.44047  22951599.642    22951599.5434   22951606.1344
     -2213.508       -1724.811
 -18483438.128 9 -14389277.67247  21814601.404    21814601.3474   21814606.5644
      3759.772        2929.692
   9442250.635 9   7339520.00446  23117482.969    23117482.4604   23117489.1104
     -1414.407       -1102.135
  -4739105.997 9  -3687629.70348  20422833.136    20422832.6834   20422837.6914
      -304.016        -236.895
 -14400281.353 9 -11205304.07248  19768828.934    19768828.5234   19768833.1894
      -383.382        -298.739
 -11979301.908 9  -9321616.23447  22413881.712    22413881.3324   22413887.1924
      -904.627        -704.904
 -11559229.877 9  -8985751.79247  22203140.416    22203140.0434   22203146.1134
      4060.016        3163.649
